[[{"header":{"parameterUnit":"m.s-1","parameterCategory":1,"la1":30.6,"la2":28.766,"lo1":-90.7593,"lo2":-88.6598,"dy":0.0162,"dx":0.0183,"nx":116,"ny":114,"refTime":"2023-10-24T06:00:00:Z","depth":0,"parameterNumber":2,"parameterNumberName":"U-component_of_WINDS"},"data":[0.0,0.0,0.0,0.0,0.0,0.0,0.0,0.0,0.0,0.0,0.0,0.0,0.0,0.0,0.0,0.0,0.0,0.0,0.0,0.0,0.0,0.0,0.0,0.0,0.0,0.0,0.0,0.0,0.0,0.0,0.0,0.0,0.0,0.0,0.0,0.0,0.0,0.0,0.0,0.0,0.0,0.0,0.0,0.0,0.0,0.0,0.0,0.0,0.0,0.0,0.0,0.0,0.0,0.0,0.0,0.0,0.0,0.0,0.0,0.0,0.0,0.0,0.0,0.0,0.0,0.0,0.0,0.0,0.0,0.0,0.0,0.0,0.0,0.0,0.0,0.0,0.0,0.0,0.0,0.0,0.0,0.0,0.0,0.0,0.0,0.0,0.0,0.0,0.0,0.0,0.0,0.0,0.0,0.0,0.0,0.0,0.0,0.0,0.0,0.0,0.0,0.0,0.0,0.0,0.0,0.0,0.0,0.0,0.0,0.0,0.0,0.0,0.0,0.0,0.0,0.0,0.0,0.0,0.0,0.0,0.0,0.0,0.0,0.0,0.0,0.0,0.0,0.0,0.0,0.0,0.0,0.0,0.0,0.0,0.0,0.0,0.0,0.0,0.0,0.0,0.0,0.0,0.0,0.0,0.0,0.0,0.0,0.0,0.0,0.0,0.0,0.0,0.0,0.0,0.0,0.0,0.0,0.0,0.0,0.0,0.0,0.0,0.0,0.0,0.0,0.0,0.0,0.0,0.0,0.0,0.0,0.0,0.0,0.0,0.0,0.0,0.0,0.0,0.0,0.0,0.0,0.0,0.0,0.0,0.0,0.0,0.0,0.0,0.0,0.0,0.0,0.0,0.0,0.0,0.0,0.0,0.0,0.0,0.0,0.0,0.0,0.0,0.0,0.0,0.0,0.0,0.0,0.0,0.0,0.0,0.0,0.0,0.0,0.0,0.0,0.0,0.0,0.0,0.0,0.0,0.0,0.0,0.0,0.0,0.0,0.0,0.0,0.0,0.0,0.0,0.0,0.0,0.0,0.0,0.0,0.0,0.0,0.0,0.0,0.0,0.0,0.0,0.0,0.0,0.0,0.0,0.0,0.0,0.0,0.0,0.0,0.0,0.0,0.0,0.0,0.0,0.0,0.0,0.0,0.0,0.0,0.0,0.0,0.0,0.0,0.0,0.0,0.0,0.0,0.0,0.0,0.0,0.0,0.0,0.0,0.0,0.0,0.0,0.0,0.0,0.0,0.0,0.0,0.0,0.0,0.0,0.0,0.0,0.0,0.0,0.0,0.0,0.0,0.0,0.0,0.0,0.0,0.0,0.0,0.0,0.0,0.0,0.0,0.0,0.0,0.0,0.0,0.0,0.0,0.0,0.0,0.0,0.0,0.0,0.0,0.0,0.0,0.0,0.0,0.0,0.0,0.0,0.0,0.0,0.0,0.0,0.0,0.0,0.0,0.0,0.0,0.0,0.0,0.0,0.0,0.0,0.0,0.0,0.0,0.0,0.0,0.0,0.0,0.0,0.0,0.0,0.0,0.0,0.0,0.0,0.0,0.0,0.0,0.0,0.0,0.0,0.0,0.0,0.0,0.0,0.0,0.0,0.0,0.0,0.0,0.0,0.0,0.0,0.0,0.0,0.0,0.0,0.0,0.0,0.0,0.0,0.0,0.0,0.0,0.0,0.0,0.0,0.0,0.0,0.0,0.0,0.0,0.0,0.0,0.0,0.0,0.0,0.0,0.0,0.0,0.0,0.0,0.0,0.0,0.0,0.0,0.0,0.0,0.0,0.0,0.0,0.0,0.0,0.0,0.0,0.0,0.0,0.0,0.0,0.0,0.0,0.0,0.0,0.0,0.0,0.0,0.0,0.0,0.0,0.0,0.0,0.0,0.0,0.0,0.0,0.0,0.0,0.0,0.0,0.0,0.0,0.0,0.0,0.0,0.0,0.0,0.0,0.0,0.0,0.0,0.0,0.0,0.0,0.0,0.0,0.0,0.0,0.0,0.0,0.0,0.0,0.0,0.0,0.0,0.0,0.0,0.0,0.0,0.0,0.0,0.0,0.0,0.0,0.0,0.0,0.0,0.0,0.0,0.0,0.0,0.0,0.0,0.0,0.0,0.0,0.0,0.0,0.0,0.0,0.0,0.0,0.0,0.0,0.0,0.0,0.0,0.0,0.0,0.0,0.0,0.0,0.0,0.0,0.0,0.0,0.0,0.0,0.0,0.0,0.0,0.0,0.0,0.0,0.0,0.0,0.0,0.0,0.0,0.0,0.0,0.0,0.0,0.0,0.0,0.0,0.0,0.0,0.0,0.0,0.0,0.0,0.0,0.0,0.0,0.0,0.0,0.0,0.0,0.0,0.0,0.0,0.0,0.0,0.0,0.0,0.0,0.0,0.0,0.0,0.0,0.0,0.0,0.0,0.0,0.0,0.0,0.0,0.0,0.0,0.0,0.0,0.0,0.0,0.0,0.0,0.0,0.0,0.0,0.0,0.0,0.0,0.0,0.0,0.0,0.0,0.0,0.0,0.0,0.0,0.0,0.0,0.0,0.0,0.0,0.0,0.0,0.0,0.0,0.0,0.0,0.0,0.0,0.0,0.0,0.0,0.0,0.0,0.0,0.0,0.0,0.0,0.0,0.0,0.0,0.0,0.0,0.0,0.0,0.0,0.0,0.0,0.0,0.0,0.0,0.0,0.0,0.0,0.0,0.0,0.0,0.0,0.0,0.0,0.0,0.0,0.0,0.0,0.0,0.0,0.0,0.0,0.0,0.0,0.0,0.0,0.0,0.0,0.0,0.0,0.0,0.0,0.0,0.0,0.0,0.0,0.0,0.0,0.0,0.0,0.0,0.0,0.0,0.0,0.0,0.0,0.0,0.0,0.0,0.0,0.0,0.0,0.0,0.0,0.0,0.0,0.0,0.0,0.0,0.0,0.0,0.0,0.0,0.0,0.0,0.0,0.0,0.0,0.0,0.0,0.0,0.0,0.0,0.0,0.0,0.0,0.0,0.0,0.0,0.0,0.0,0.0,0.0,0.0,0.0,0.0,0.0,0.0,0.0,0.0,0.0,0.0,0.0,0.0,0.0,0.0,0.0,0.0,0.0,0.0,0.0,0.0,0.0,0.0,0.0,0.0,0.0,0.0,0.0,0.0,0.0,0.0,0.0,0.0,0.0,0.0,0.0,0.0,0.0,0.0,0.0,0.0,0.0,0.0,0.0,0.0,0.0,0.0,0.0,0.0,0.0,0.0,0.0,0.0,0.0,0.0,0.0,0.0,0.0,0.0,0.0,0.0,0.0,0.0,0.0,0.0,0.0,0.0,0.0,0.0,0.0,0.0,0.0,0.0,0.0,0.0,0.0,0.0,0.0,0.0,0.0,0.0,0.0,0.0,0.0,0.0,0.0,0.0,0.0,0.0,0.0,0.0,0.0,0.0,0.0,0.0,0.0,0.0,0.0,0.0,0.0,0.0,0.0,0.0,0.0,0.0,0.0,0.0,0.0,0.0,0.0,0.0,0.0,0.0,0.0,0.0,0.0,0.0,0.0,0.0,0.0,0.0,0.0,0.0,0.0,0.0,0.0,0.0,0.0,0.0,0.0,0.0,0.0,0.0,0.0,0.0,0.0,0.0,0.0,0.0,0.0,0.0,0.0,0.0,0.0,0.0,0.0,0.0,0.0,0.0,0.0,0.0,0.0,0.0,0.0,0.0,0.0,0.0,0.0,0.0,0.0,0.0,0.0,0.0,0.0,0.0,0.0,0.0,0.0,0.0,0.0,0.0,0.0,0.0,0.0,0.0,0.0,0.0,0.0,0.0,0.0,0.0,0.0,0.0,0.0,0.0,0.0,0.0,0.0,0.0,0.0,0.0,0.0,0.0,0.0,0.0,0.0,0.0,0.0,0.0,0.0,0.0,0.0,0.0,0.0,0.0,0.0,0.0,0.0,0.0,0.0,0.0,0.0,0.0,0.0,0.0,0.0,0.0,0.0,0.0,0.0,0.0,0.0,0.0,0.0,0.0,0.0,0.0,0.0,0.0,0.0,0.0,0.0,0.0,0.0,0.0,0.0,0.0,0.0,0.0,0.0,0.0,0.0,0.0,0.0,0.0,0.0,0.0,0.0,0.0,0.0,0.0,0.0,0.0,0.0,0.0,0.0,0.0,0.0,0.0,0.0,0.0,0.0,0.0,0.0,0.0,0.0,0.0,0.0,0.0,0.0,0.0,0.0,0.0,0.0,0.0,0.0,0.0,0.0,0.0,0.0,0.0,0.0,0.0,0.0,0.0,0.0,0.0,0.0,0.0,0.0,0.0,0.0,0.0,0.0,0.0,0.0,0.0,0.0,0.0,0.0,0.0,0.0,0.0,0.0,0.0,0.0,0.0,0.0,0.0,0.0,0.0,0.0,0.0,0.0,0.0,0.0,0.0,0.0,0.0,0.0,0.0,0.0,0.0,0.0,0.0,0.0,0.0,0.0,0.0,0.0,0.0,0.0,0.0,0.0,0.0,0.0,0.0,0.0,0.0,0.0,0.0,0.0,0.0,0.0,0.0,0.0,0.0,0.0,0.0,0.0,0.0,0.0,0.0,0.0,0.0,0.0,0.0,0.0,0.0,0.0,0.0,0.0,0.0,0.0,0.0,0.0,0.0,0.0,0.0,0.0,0.0,0.0,0.0,0.0,0.0,0.0,0.0,0.0,0.0,0.0,0.0,0.0,0.0,0.0,0.0,0.0,0.0,0.0,0.0,0.0,0.0,0.0,0.0,0.0,0.0,0.0,0.0,0.0,0.0,0.0,0.0,0.0,0.0,0.0,0.0,0.0,0.0,0.0,0.0,0.0,0.0,0.0,0.0,0.0,0.0,0.0,0.0,0.0,0.0,0.0,0.0,0.0,0.0,0.0,0.0,0.0,0.0,0.0,0.0,0.0,0.0,0.0,0.0,0.0,0.0,0.0,0.0,0.0,0.0,0.0,0.0,0.0,0.0,0.0,0.0,0.0,0.0,0.0,0.0,0.0,0.0,0.0,0.0,0.0,0.0,0.0,0.0,0.0,0.0,0.0,0.0,0.0,0.0,0.0,0.0,0.0,0.0,0.0,0.0,0.0,0.0,0.0,0.0,0.0,0.0,0.0,0.0,0.0,0.0,0.0,0.0,0.0,0.0,0.0,0.0,0.0,0.0,0.0,0.0,0.0,0.0,0.0,0.0,0.0,0.0,0.0,0.0,0.0,0.0,0.0,0.0,0.0,0.0,0.0,0.0,0.0,0.0,0.0,0.0,0.0,0.0,0.0,0.0,0.0,0.0,0.0,0.0,0.0,0.0,0.0,0.0,0.0,0.0,0.0,0.0,0.0,0.0,0.0,0.0,0.0,0.0,0.0,0.0,0.0,0.0,0.0,0.0,0.0,0.0,0.0,0.0,0.0,0.0,0.0,0.0,0.0,0.0,0.0,0.0,0.0,0.0,0.0,0.0,0.0,0.0,0.0,0.0,0.0,0.0,0.0,0.0,0.0,0.0,0.0,0.0,0.0,0.0,0.0,0.0,0.0,0.0,0.0,0.0,0.0,0.0,0.0,0.0,0.0,0.0,0.0,0.0,0.0,0.0,0.0,0.0,0.0,0.0,0.0,0.0,0.0,0.0,0.0,0.0,0.0,0.0,0.0,0.0,0.0,0.0,0.0,0.0,0.0,0.0,0.0,0.0,0.0,0.0,0.0,0.0,0.0,0.0,0.0,0.0,0.0,0.0,0.0,0.0,0.0,0.0,0.0,0.0,0.0,0.0,0.0,0.0,0.0,0.0,0.0,0.0,0.0,0.0,0.0,0.0,0.0,0.0,0.0,0.0,0.0,0.0,0.0,0.0,0.0,0.0,0.0,0.0,0.0,0.0,0.0,0.0,0.0,0.0,0.0,0.0,0.0,0.0,0.0,0.0,0.0,0.0,0.0,0.0,0.0,0.0,0.0,0.0,0.0,0.0,0.0,0.0,0.0,0.0,0.0,0.0,0.0,0.0,0.0,0.0,0.0,0.0,0.0,0.0,0.0,0.0,0.0,0.0,0.0,0.0,0.0,0.0,0.0,0.0,0.0,0.0,0.0,0.0,-0.1336,-0.166,0.0,0.0,0.0,0.0,0.0,0.0,0.0,0.0,0.0,0.0,0.0,0.0,0.0,0.0,0.0,0.0,0.0,0.0,0.0,0.0,0.0,0.0,0.0,0.0,0.0,0.0,0.0,0.0,0.0,0.0,0.0,0.0,0.0,0.0,0.0,0.0,0.0,-0.3444,-0.3723,-0.382,-0.3716,-0.3075,-0.2509,-0.2014,0.0,0.0,0.0,0.0,0.0,0.0,0.0,0.0,0.0,0.0,0.0,0.0,0.0,0.0,0.0,0.0,0.0,0.0,0.0,0.0,0.0,0.0,0.0,0.0,0.0,0.0,0.0,0.0,0.0,0.0,0.0,0.0,0.0,0.0,0.0,0.0,0.0,0.0,0.0,0.0,0.0,0.0,0.0,0.0,0.0,0.0,0.0,0.0,0.0,0.0,0.0,0.0,0.0,0.0,0.0,0.0,0.0,0.0,0.0,0.0,0.0,0.0,0.0,0.0,0.0,0.0,0.0,0.0,0.0,0.0,-0.1852,-0.1861,0.0,0.0,0.0,0.0,0.0,0.0,0.0,0.0,0.0,0.0,0.0,0.0,0.0,0.0,0.0,0.0,0.0,0.0,0.0,0.0,0.0,0.0,0.0,-0.324,-0.3605,-0.3474,-0.3777,-0.4112,0.0,0.0,0.0,0.0,0.0,0.0,-0.4387,-0.4337,-0.4333,-0.4382,-0.5266,-0.5662,-0.5557,-0.5341,-0.4801,-0.3966,-0.3063,0.0,0.0,0.0,0.0,0.0,0.0,0.0,0.0,0.0,0.0,0.0,0.0,0.0,0.0,0.0,0.0,0.0,0.0,0.0,0.0,0.0,0.0,0.0,0.0,0.0,0.0,0.0,0.0,0.0,0.0,0.0,0.0,0.0,0.0,0.0,0.0,0.0,0.0,0.0,0.0,0.0,0.0,0.0,0.0,0.0,0.0,0.0,0.0,0.0,0.0,0.0,0.0,0.0,0.0,0.0,0.0,0.0,0.0,0.0,0.0,0.0,0.0,0.0,-0.2743,-0.2765,-0.3025,-0.2925,-0.2588,-0.2064,-0.2566,-0.2099,-0.1174,-0.3076,0.0,0.0,0.0,0.0,0.0,0.0,0.0,0.0,0.0,0.0,0.0,0.0,0.0,0.0,0.0,0.0,0.0,0.0,0.0,0.0,0.0,-0.4901,-0.5213,-0.5645,-0.5516,-0.5377,-0.5265,0.0,0.0,0.0,0.0,0.0,-0.4741,-0.5273,-0.6057,-0.7085,-0.8577,-0.9477,-0.9775,-0.9018,-0.8561,-0.8229,-0.5103,-0.3758,-0.3825,0.0,0.0,0.0,0.0,0.0,0.0,0.0,0.0,0.0,0.0,0.0,0.0,0.0,0.0,0.0,0.0,0.0,0.0,0.0,0.0,0.0,0.0,0.0,0.0,0.0,0.0,0.0,0.0,0.0,0.0,0.0,0.0,0.0,0.0,0.0,0.0,0.0,0.0,0.0,0.0,0.0,-0.5365,-0.5726,0.0,0.0,0.0,0.0,0.0,0.0,0.0,0.0,0.0,0.0,0.0,0.0,0.0,-0.5261,-0.5257,-0.431,-0.3985,-0.4255,-0.3141,-0.264,-0.2761,-0.2579,-0.2648,-0.2945,-0.3007,0.0,-0.2256,-0.2098,0.0,0.0,0.0,0.0,0.0,0.0,0.0,0.0,0.0,0.0,0.0,0.0,0.0,0.0,0.0,0.0,0.0,0.0,0.0,0.0,0.0,-0.5949,-0.65,-0.7109,-0.7647,-0.7687,-0.7067,-0.691,0.0,0.0,0.0,-0.543,-0.5585,-0.6614,-0.8063,-0.9908,-1.0762,-1.1281,-1.1419,-1.1011,-1.0814,-1.0681,-0.8332,-0.6386,-0.4854,-0.4495,0.0,0.0,0.0,0.0,0.0,0.0,0.0,0.0,0.0,0.0,0.0,0.0,0.0,0.0,0.0,0.0,0.0,0.0,0.0,0.0,0.0,0.0,0.0,0.0,0.0,0.0,0.0,0.0,0.0,0.0,0.0,0.0,0.0,0.0,0.0,0.0,0.0,0.0,0.0,-0.6307,-0.6861,-0.7434,-0.7443,-0.7453,0.0,0.0,0.0,0.0,0.0,0.0,0.0,0.0,0.0,-0.6241,-0.6613,-0.6434,-0.5625,-0.5308,-0.5071,-0.4959,-0.4397,-0.4312,-0.4711,-0.4051,-0.403,-0.4471,-0.3912,-0.4126,-0.4802,-0.397,-0.3856,-0.4281,0.0,0.0,0.0,0.0,-0.536,-0.5336,0.0,0.0,0.0,0.0,0.0,0.0,0.0,0.0,0.0,0.0,0.0,0.0,-0.6523,-0.7483,-0.8426,-0.938,-0.9887,-0.9996,-0.9634,-0.8973,-0.8371,-0.7919,-0.6859,-0.6524,-0.7002,-0.8615,-1.0397,-1.2383,-1.3043,-1.3423,-1.3485,-1.3339,-1.3216,-1.3058,-1.1738,-0.9592,-0.6917,-0.6313,-0.574,-0.523,0.0,0.0,0.0,0.0,0.0,0.0,0.0,0.0,0.0,0.0,0.0,0.0,0.0,0.0,0.0,0.0,0.0,0.0,0.0,0.0,0.0,0.0,0.0,0.0,0.0,0.0,0.0,0.0,0.0,0.0,0.0,0.0,0.0,0.0,0.0,0.0,0.0,-0.7051,-0.7619,-0.8666,-0.8191,-0.7984,0.0,0.0,0.0,0.0,0.0,0.0,-0.7199,-0.823,-0.8355,-0.735,-0.8003,-0.7698,-0.6352,-0.6623,-0.6639,-0.6418,-0.619,-0.6348,-0.6817,-0.6199,-0.6199,-0.6648,-0.6027,-0.6556,-0.7742,-0.6087,-0.5376,-0.5399,-0.6482,-0.6953,-0.7055,-0.7049,-0.7015,-0.6815,0.0,0.0,0.0,0.0,0.0,0.0,0.0,0.0,0.0,0.0,0.0,-0.7455,-0.8691,-1.0068,-1.156,-1.3273,-1.2182,-1.1893,-1.3078,-1.0765,-0.9638,-1.029,-0.8577,-0.8128,-0.9224,-1.161,-1.3282,-1.416,-1.5955,-1.6985,-1.7207,-1.6846,-1.6472,-1.612,-1.5034,-1.3206,-1.0767,-0.834,-0.7564,-0.7892,-0.6781,0.0,0.0,0.0,0.0,0.0,0.0,0.0,0.0,0.0,0.0,0.0,0.0,0.0,0.0,0.0,0.0,0.0,0.0,0.0,0.0,0.0,0.0,0.0,0.0,0.0,0.0,0.0,0.0,0.0,0.0,0.0,0.0,0.0,0.0,0.0,0.0,0.0,0.0,-0.8317,-0.7263,0.0,0.0,0.0,0.0,-0.6947,-0.8537,-0.9398,-0.916,-1.0818,-1.0926,-0.904,-0.9227,-0.9016,-0.8375,-0.845,-0.8769,-0.9385,-0.8543,-0.8215,-0.8313,-0.8778,-0.9243,-0.9726,-1.0121,-1.0534,-1.0747,-0.7563,-0.7677,-0.9834,-0.9672,-1.0294,-1.1096,-0.9411,-0.9057,-0.8978,0.0,0.0,0.0,0.0,0.0,0.0,0.0,0.0,-0.5179,-0.5991,-0.7389,-0.8836,-1.0211,-1.1927,-1.3293,-1.4072,-1.4293,-1.4415,-1.4439,-1.2655,-1.1612,-1.1656,-1.0146,-1.0253,-1.2257,-1.3325,-1.469,-1.6344,-1.737,-1.7913,-1.801,-1.7851,-1.7732,-1.7557,-1.6367,-1.5562,-1.4886,-1.1439,-0.9742,-0.929,-0.8476,-0.786,0.0,0.0,0.0,0.0,0.0,0.0,0.0,0.0,0.0,0.0,0.0,0.0,0.0,0.0,0.0,0.0,0.0,0.0,0.0,0.0,0.0,0.0,0.0,0.0,0.0,0.0,0.0,0.0,0.0,0.0,0.0,0.0,0.0,0.0,0.0,0.0,0.0,-1.0863,-0.9691,0.0,-1.0299,-0.9182,-0.8769,-0.9705,-1.0023,-1.0443,-1.1078,-1.1928,-1.2282,-1.1998,-1.2243,-1.2259,-1.1991,-1.1123,-1.0886,-1.1134,-1.0826,-1.0889,-1.1313,-1.1775,-1.2252,-1.2692,-1.2208,-1.2641,-1.3489,-1.1613,-1.0435,-0.9855,-0.9661,-0.9872,-1.018,-0.9589,-0.9485,-0.9516,0.0,0.0,0.0,0.0,0.0,0.0,0.0,0.0,-0.5574,-0.6901,-0.8611,-1.0387,-1.2197,-1.4064,-1.541,-1.5951,-1.6128,-1.6208,-1.6135,-1.4153,-1.3006,-1.3066,-1.2023,-1.2192,-1.387,-1.4871,-1.6151,-1.7756,-1.833,-1.8553,-1.8553,-1.8553,-1.8553,-1.8522,-1.7687,-1.7394,-1.738,-1.4659,-1.2841,-1.1634,-1.0782,-1.0152,-0.9595,0.0,0.0,0.0,0.0,0.0,0.0,0.0,0.0,0.0,0.0,0.0,0.0,0.0,0.0,0.0,0.0,0.0,0.0,0.0,0.0,0.0,0.0,0.0,0.0,0.0,0.0,0.0,0.0,0.0,0.0,0.0,0.0,0.0,0.0,-1.068,-1.1222,-1.3001,-1.1696,-1.1207,-1.2524,-1.1243,-1.0697,-1.1669,-1.1866,-1.2336,-1.3151,-1.3923,-1.4371,-1.4402,-1.459,-1.4515,-1.421,-1.333,-1.2935,-1.3029,-1.3029,-1.3123,-1.3394,-1.4126,-1.4655,-1.4963,-1.4472,-1.4919,-1.5835,-1.4601,-1.3262,-1.1877,-1.1037,-1.068,-1.0594,-1.0554,-1.0625,-1.0731,0.0,0.0,0.0,0.0,0.0,0.0,0.0,-0.4997,-0.5903,-0.7601,-0.976,-1.2092,-1.4635,-1.6478,-1.795,-1.9,-1.765,-1.7184,-1.8209,-1.5248,-1.3791,-1.458,-1.4112,-1.3909,-1.4039,-1.632,-1.781,-1.8312,-1.8862,-1.9116,-1.9104,-1.9104,-1.9104,-1.9104,-1.9104,-1.8688,-1.8022,-1.7814,-1.6759,-1.508,-1.372,-1.2839,-1.2126,0.0,0.0,0.0,0.0,0.0,0.0,0.0,0.0,0.0,0.0,0.0,0.0,0.0,0.0,0.0,0.0,0.0,0.0,0.0,0.0,0.0,0.0,0.0,0.0,0.0,0.0,0.0,0.0,0.0,0.0,0.0,0.0,0.0,-1.1304,-1.1733,-1.2659,-1.4455,-1.3026,-1.2357,-1.3581,-1.2758,-1.2322,-1.271,-1.4207,-1.5201,-1.5481,-1.6906,-1.7238,-1.6135,-1.61,-1.5708,-1.4959,-1.4873,-1.4908,-1.5022,-1.5022,-1.4801,-1.4418,-1.5866,-1.6533,-1.6577,-1.7016,-1.7455,-1.7797,-1.6365,-1.6013,-1.6231,-1.4003,-1.299,-1.2792,-1.2582,-1.2699,-1.292,0.0,0.0,0.0,0.0,0.0,0.0,-0.4567,-0.4997,-0.6024,-0.8048,-1.0445,-1.2788,-1.4953,-1.7268,-1.8641,-1.8599,-1.816,-1.7895,-1.7986,-1.5648,-1.4448,-1.4863,-1.4972,-1.5672,-1.7056,-1.7732,-1.8336,-1.8886,-1.9225,-1.9298,-1.9104,-1.9104,-1.9104,-1.9104,-1.9104,-1.8976,-1.8784,-1.8744,-1.8324,-1.7549,-1.555,-1.4105,-1.2968,0.0,0.0,0.0,0.0,0.0,0.0,0.0,0.0,0.0,0.0,0.0,0.0,0.0,0.0,0.0,0.0,0.0,0.0,0.0,0.0,0.0,0.0,0.0,0.0,0.0,0.0,0.0,0.0,0.0,0.0,0.0,-1.2951,-1.3682,-1.3683,-1.4192,-1.4888,-1.5654,-1.4824,-1.4562,-1.5451,-1.4641,-1.4577,-1.576,-1.6421,-1.7039,-1.7704,-1.8264,-1.8596,-1.8608,-1.8398,-1.8192,-1.7982,-1.6629,-1.5996,-1.6042,-1.6042,-1.5954,-1.591,-1.8357,-1.9448,-1.9448,-1.9588,-1.9718,-1.9675,-1.7586,-1.7184,-1.764,-1.5016,-1.4534,-1.5272,-1.4571,-1.5177,-1.6481,0.0,0.0,0.0,0.0,0.0,0.0,-0.4567,-0.4997,-0.6179,-0.864,-1.1008,-1.338,-1.5794,-1.7774,-1.8804,-1.8542,-1.8096,-1.7575,-1.708,-1.553,-1.4814,-1.518,-1.5818,-1.6839,-1.8263,-1.8613,-1.9019,-1.9455,-1.9479,-1.9418,-1.9273,-1.9165,-1.9165,-1.9261,-1.9152,-1.9165,-1.9261,-1.9152,-1.9019,-1.8763,-1.7464,-1.6175,-1.4908,-1.3789,-1.2954,-1.2254,-1.1422,-1.1144,-1.1045,-1.0357,0.0,0.0,0.0,0.0,0.0,0.0,0.0,0.0,0.0,0.0,0.0,0.0,0.0,0.0,0.0,0.0,0.0,0.0,0.0,0.0,0.0,0.0,0.0,0.0,-1.438,-1.545,-1.63,-1.6393,-1.6512,-1.6897,-1.657,-1.6571,-1.7259,-1.6704,-1.676,-1.7806,-1.8073,-1.836,-1.8721,-1.9103,-1.9257,-1.9127,-1.9193,-1.9117,-1.8899,-1.7805,-1.7499,-1.7885,-1.7885,-1.806,-1.8488,-2.0144,-2.0892,-2.0892,-2.0892,-2.1022,-2.1055,-1.95,-1.9404,-1.9951,0.0,0.0,0.0,0.0,-1.7132,-1.8103,0.0,0.0,0.0,0.0,0.0,0.0,-0.4567,-0.4997,-0.6334,-0.9214,-1.1373,-1.3755,-1.6642,-1.7937,-1.862,-1.862,-1.7677,-1.6718,-1.5946,-1.5234,-1.5125,-1.5741,-1.6706,-1.7624,-1.8456,-1.9213,-1.9684,-1.9833,-1.9684,-1.9564,-1.9491,-1.9298,-1.9322,-1.9539,-1.9298,-1.9334,-1.9527,-1.9298,-1.9201,-1.9201,-1.9165,-1.8415,-1.72,-1.5886,-1.5294,-1.5066,-1.4027,-1.3273,-1.2606,-1.1506,0.0,0.0,0.0,0.0,0.0,0.0,0.0,0.0,0.0,0.0,0.0,0.0,0.0,0.0,0.0,0.0,0.0,0.0,0.0,0.0,0.0,0.0,0.0,0.0,-1.5822,-1.6959,-1.9013,-1.8493,-1.8,-1.8315,-1.8353,-1.8547,-1.8961,-1.8817,-1.8885,-1.9308,-1.9477,-1.9509,-1.929,-1.9884,0.0,0.0,0.0,-1.9335,-1.8908,-1.8864,-1.9248,-2.0066,-2.0066,-2.0501,-2.1325,-2.1445,-2.1531,-2.1531,-2.1531,-2.1791,-2.2179,-2.1618,-2.2007,-2.2686,-1.9637,-1.8836,-1.9392,-1.9097,-1.8985,-1.8968,0.0,0.0,0.0,0.0,0.0,0.0,-0.4567,-0.4997,-0.6334,-0.9214,-1.1222,-1.3331,-1.5859,-1.729,-1.8064,-1.8064,-1.7261,-1.6525,-1.5934,-1.5741,-1.6214,-1.7387,-1.7829,-1.8541,-1.9555,-1.9941,-1.9963,-1.9576,-1.9963,-1.9926,-1.9503,-1.9684,-1.976,-1.9842,-1.9748,-1.976,-1.9842,-1.9781,-1.9769,-1.9745,-1.9515,-1.8688,-1.7574,-1.7127,-1.653,-1.5839,-1.5288,-1.5378,-1.5682,-1.5255,-1.4714,-1.4056,-1.3087,-1.1705,0.0,0.0,0.0,0.0,0.0,0.0,0.0,0.0,0.0,0.0,0.0,0.0,0.0,0.0,0.0,0.0,0.0,0.0,0.0,-1.7351,-1.8098,-1.9098,-2.0897,-2.1024,-2.0839,-2.0693,-2.0672,-2.0714,-2.0799,-2.0767,-2.0936,-2.141,-2.1442,-2.1568,-2.1704,-2.1988,-2.1987,-2.167,-2.1525,-2.1402,-2.1315,-2.0935,-2.0848,-2.1022,-2.1022,0.0,-2.1325,-2.2481,-2.2998,-2.2998,-2.2998,-2.3213,-2.3514,-2.2352,-2.3073,-2.4702,-2.2934,-2.1889,-2.1437,-2.2169,-2.2449,-2.2373,0.0,0.0,0.0,0.0,0.0,0.0,-0.4567,-0.491,-0.609,-0.8703,-1.0513,-1.2367,-1.4506,-1.5676,-1.6139,-1.5728,-1.5209,-1.5003,-1.5282,-1.6042,-1.7032,-1.8258,-1.8807,-1.9398,-2.0108,-2.0241,-2.0241,-2.0096,-2.0241,-2.0168,-1.9902,-1.9914,-1.9953,-2.0074,-1.9941,-1.9953,-2.0108,-1.9975,-1.9881,-1.9869,-1.9736,-1.9355,-1.8756,-1.8388,-1.7964,-1.7544,-1.6954,-1.6925,-1.7044,-1.6211,-1.5678,-1.5227,-1.4548,-1.3365,-1.2012,0.0,0.0,0.0,0.0,0.0,0.0,0.0,0.0,0.0,0.0,0.0,0.0,0.0,0.0,-1.5515,-1.5761,0.0,-1.8539,-2.0131,-2.0566,-2.1445,-2.3569,-2.3318,-2.2742,-2.217,-2.1967,-2.1889,-2.1889,-2.2281,-2.2414,-2.2016,-2.2371,-2.2483,-2.2214,-2.2525,-2.2449,-2.1893,-2.1954,-2.1877,-2.1661,-2.1412,-2.1661,-2.2352,-2.2352,-2.2697,-2.3397,-2.4341,-2.4769,-2.4769,-2.4982,-2.5239,-2.5367,-2.494,-2.5409,-2.6388,-2.5951,-2.5172,-2.4392,-2.494,-2.4823,-2.4407,0.0,0.0,0.0,0.0,0.0,0.0,0.0,-0.4874,-0.5892,-0.804,-0.9628,-1.1187,-1.279,-1.3635,-1.3836,-1.3199,-1.3245,-1.3798,-1.4944,-1.6513,-1.7877,-1.8951,-1.9664,-2.0168,-2.0386,-2.0386,-2.047,-2.0628,-2.047,-2.0362,-2.0313,-2.011,-2.018,-2.0374,-2.0134,-2.0192,-2.0374,-2.0156,-2.0071,-2.0071,-1.9989,-1.9999,-1.9938,-1.9394,-1.9189,-1.908,-1.8442,-1.8007,-1.7598,-1.6613,-1.6104,-1.5857,-1.555,-1.4823,-1.3905,-1.3093,-1.2316,0.0,0.0,0.0,0.0,0.0,0.0,0.0,0.0,-1.3073,-1.3499,-1.5203,-1.6713,-1.7968,-1.8781,-1.9961,-2.1305,-2.2787,-2.302,-2.3796,-2.6016,-2.5426,-2.4576,-2.3887,-2.3494,-2.3256,-2.3256,-2.3884,-2.386,-2.2837,-2.3524,-2.3618,-2.2718,-2.3354,-2.3225,-2.2147,-2.2654,-2.2654,-2.2093,-2.2104,-2.2665,-2.3783,-2.3858,-2.4469,-2.5562,-2.6018,-2.6231,-2.6273,-2.6741,-2.6923,-2.6965,-2.7431,-2.7643,-2.7698,-2.8132,-2.7807,-2.7127,-2.6957,-2.6428,-2.5848,0.0,0.0,0.0,0.0,0.0,0.0,0.0,0.0,-0.6102,-0.7434,-0.8893,-1.0034,-1.0613,-1.1382,-1.1864,-1.1895,-1.3285,-1.4714,-1.6045,-1.7641,-1.9019,-2.0083,-2.0446,-2.0628,-2.0652,-2.0664,-2.0555,-2.035,-2.0555,-2.0543,-2.0313,-2.0519,-2.0628,-2.0652,-2.0628,-2.0628,-2.0652,-2.0628,-2.0616,-2.0591,-2.0362,-2.0265,-2.0204,-1.966,-1.9455,-1.9431,-1.9092,-1.8496,-1.7943,-1.827,-1.8037,-1.7517,-1.695,-1.6254,-1.5384,-1.4112,-1.2659,-1.1346,-1.0919,-1.0524,-1.0667,-1.2526,-1.2358,-1.2886,0.0,-1.709,-1.6642,-1.8835,-1.9839,-2.0418,-2.0809,-2.1679,-2.2923,-2.4718,-2.5299,-2.6041,-2.734,-2.7183,-2.6974,-2.7074,-2.6439,-2.5951,-2.5951,-2.607,-2.5947,-2.5495,-2.6313,-2.631,-2.5056,-2.6613,-2.6685,-2.5006,-2.5805,-2.5848,-2.4963,-2.4963,-2.5006,-2.5177,-2.5592,-2.589,-2.6061,-2.6486,-2.6698,-2.6741,-2.722,-2.7431,-2.7487,-2.7939,-2.8094,-2.8134,-2.8444,-2.8465,-2.8294,-2.7466,-2.7274,-2.7315,0.0,0.0,0.0,0.0,0.0,0.0,0.0,0.0,0.0,-0.7107,-0.8149,-0.8943,-0.9378,-0.9455,-0.9602,-0.9921,-1.1824,-1.3634,-1.5104,-1.7702,-1.9576,-2.0495,-2.0954,-2.1099,-2.093,-2.093,-2.0797,-2.0543,-2.0652,-2.0652,-2.0543,-2.0652,-2.07,-2.0712,-2.0857,-2.093,-2.0942,-2.1111,-2.1075,-2.0918,-2.0809,-2.0591,-2.0253,-1.9709,-1.9116,-1.8526,-1.8263,-1.7858,0.0,-1.7315,-1.7273,-1.7155,-1.6891,-1.6309,-1.5587,-1.4824,-1.413,-1.355,-1.3295,-1.3385,-1.3693,-1.4265,-1.4882,-1.5991,-1.8353,-1.8409,-1.8514,-2.0255,-2.1525,-2.2372,-2.2456,-2.4011,-2.5542,-2.6346,-2.6867,-2.7581,-2.8793,-2.8132,-2.7564,-2.7764,-2.785,-2.765,-2.6951,-2.7304,-2.7323,-2.6766,-2.75,-2.7715,-2.7012,-2.7714,-2.763,-2.6626,-2.6753,-2.6868,-2.6953,-2.6188,-2.6188,-2.6953,-2.6656,-2.6528,-2.6528,-2.7008,-2.7347,-2.7643,-2.7812,-2.7897,-2.7939,-2.8094,-2.8179,-2.8219,-2.8484,-2.8711,-2.8771,-2.8369,-2.836,-2.8448,0.0,0.0,0.0,0.0,0.0,0.0,0.0,0.0,0.0,0.0,-0.7106,-0.7728,-0.8275,-0.7838,-0.7757,-0.8379,-1.0364,-1.2329,-1.4099,-1.7188,-1.9414,-2.0446,-2.1075,-2.1305,-2.1099,-2.1099,-2.1002,-2.0809,-2.0736,-2.07,-2.07,-2.07,-2.07,-2.0712,-2.0978,-2.1099,-2.1111,-2.1401,-2.1353,-2.1087,-2.1015,-2.0712,-2.0195,-1.9369,-1.8462,-1.7564,-1.7304,-1.6854,-1.6338,-1.5888,-1.5912,-1.6153,-1.6263,-1.597,-1.5553,-1.5541,-1.5471,-1.5333,-1.501,-1.558,-1.6198,-1.5978,-1.7381,-1.8938,-1.95,-1.999,-2.0681,-2.2015,-2.3212,-2.4122,-2.4531,-2.6098,-2.7491,-2.7854,-2.8292,-2.8885,-2.968,-2.8778,-2.7976,-2.7814,-2.8109,-2.7991,-2.7199,-2.8295,-2.881,-2.8186,-2.8821,-2.9011,-2.8503,-2.8838,-2.8726,-2.8052,-2.7968,-2.7954,-2.8094,-2.7165,-2.7025,-2.7757,-2.722,-2.7008,-2.7008,-2.7565,-2.7987,-2.8312,-2.8393,-2.8433,-2.8433,-2.8433,-2.8433,-2.846,-2.8724,-2.8978,-2.9135,-2.9202,-2.9242,-2.9268,0.0,0.0,0.0,0.0,0.0,0.0,0.0,0.0,0.0,0.0,0.0,0.0,0.0,-0.6615,-0.6646,-0.7639,-0.9286,-1.1252,-1.3565,-1.6137,-1.8268,-1.9857,-2.0688,-2.1099,-2.1099,-2.1099,-2.1087,-2.1087,-2.0833,-2.07,-2.07,-2.07,-2.07,-2.0712,-2.0978,-2.1099,-2.1111,-2.1401,-2.1353,-2.1075,-2.0821,-2.0555,-2.0134,-1.8534,-1.7469,-1.6805,-1.6516,-1.5684,-1.4652,-1.4437,-1.4509,-1.4725,-1.5208,-1.5371,-1.5571,-1.6417,-1.6294,-1.5779,-1.5387,-1.6193,-1.73,-1.7872,-1.9525,-2.1195,-2.1832,-2.27,-2.3716,-2.4997,-2.5292,-2.5812,-2.7308,-2.7683,-2.815,-2.9336,-2.9792,-2.9922,-2.9633,-2.9298,-2.869,-2.7722,-2.6987,-2.6694,-2.6974,-2.9254,-3.0601,-3.033,-3.0735,-3.0565,-2.9523,-3.0678,-3.0803,-2.9495,-3.0247,-2.983,-2.8136,-2.8039,-2.763,-2.6825,-2.7262,-2.7487,-2.7487,-2.8244,-2.8548,-2.8604,-2.8855,-2.8961,-2.8961,-2.8961,-2.8961,-2.9001,-2.9339,-2.9459,-2.9499,-2.978,-2.9887,-2.9887,0.0,0.0,0.0,0.0,0.0,0.0,0.0,0.0,0.0,0.0,0.0,0.0,0.0,0.0,0.0,0.0,-0.861,-1.0352,-1.2125,-1.512,-1.7363,-1.8518,-2.0031,-2.0676,-2.0325,-2.0652,-2.0749,-2.0579,-2.0664,-2.07,-2.07,-2.07,-2.07,-2.0712,-2.0978,-2.1099,-2.1099,-2.1196,-2.1075,-2.0797,-2.0362,-1.9673,-1.8976,-1.8804,-1.7078,-1.4751,0.0,-1.4124,-1.3259,-1.2701,-1.279,-1.3165,-1.3331,-1.3292,-1.342,-1.4459,-1.5306,-1.6071,-1.6917,-1.7884,-1.8942,-2.0066,-2.1395,-2.2594,-2.3162,-2.4248,-2.5212,-2.5381,-2.6584,-2.7562,-2.7311,-2.7753,-2.829,-2.8606,-2.8908,-2.9069,-2.8962,-2.9038,-2.849,-2.6813,-2.7417,-2.8024,-2.8229,-2.8276,-2.8718,-2.9777,-3.0015,-3.0354,-3.0888,-3.1317,-3.134,-3.0844,-3.0788,-3.0788,-3.0761,-2.9886,-2.9425,-2.9439,-2.8431,-2.8045,-2.8244,-2.8478,-2.8711,-2.8855,-2.8948,-2.9001,-2.9001,-2.9001,-2.9001,-2.9028,-2.9366,-2.9486,-2.9526,-2.9806,-2.9913,-2.9913,0.0,0.0,0.0,0.0,0.0,0.0,0.0,0.0,0.0,0.0,0.0,0.0,0.0,0.0,0.0,0.0,0.0,-0.9248,-1.0759,-1.3287,-1.5305,-1.6633,-1.7856,-1.864,-1.8847,-1.8746,-1.8925,-1.9401,-1.9378,-1.9528,-1.9841,-1.9935,-1.9999,-2.0011,-2.0362,-2.0519,-2.0519,-2.0319,-2.0093,-1.9781,-1.9008,-1.8201,-1.7387,-1.7273,-1.5457,0.0,-1.2559,-1.1993,-1.1328,-1.0863,-1.1193,-1.1839,-1.2133,-1.2768,-1.3591,-1.4443,-1.5771,-1.7302,-1.8779,-1.9893,-2.0921,-2.21,-2.3277,-2.4155,-2.4225,-2.5288,-2.6099,-2.5606,-2.6888,-2.7817,-2.6902,-2.7053,-2.7599,-2.8401,-2.8624,-2.8861,-2.9346,-2.9498,-2.899,-2.745,-2.7797,-2.8302,-2.861,-2.7793,-2.8303,-3.0829,-3.0884,-3.1257,-3.2257,-3.204,-3.1971,-3.2226,-3.1937,-3.1881,-3.2087,-3.0927,-3.0192,-2.9858,-2.8849,-2.8417,-2.8617,-2.8831,-2.9018,-2.9161,-2.9268,-2.9308,-2.9308,-2.9308,-2.9308,-2.9322,-2.9566,-2.9633,-2.9659,-2.9847,-2.9913,-2.9913,0.0,0.0,0.0,0.0,0.0,0.0,0.0,0.0,0.0,0.0,0.0,0.0,0.0,0.0,0.0,0.0,0.0,0.0,-0.9479,-1.0714,-1.2279,-1.4223,-1.4451,-1.524,-1.6774,-1.5702,-1.5927,-1.7626,-1.7107,-1.7305,-1.8185,-1.8441,-1.856,-1.8596,-1.9124,-1.9354,-1.9298,-1.8776,-1.8376,-1.8051,-1.6896,-1.6114,-1.5505,-1.4204,-1.2796,-1.1388,-1.0283,-0.9534,-0.9095,-0.9132,-0.9898,-1.0956,-1.1739,-1.3734,-1.5875,-1.627,-1.7609,-1.9303,-2.0802,-2.2058,-2.3164,-2.3933,-2.5052,-2.5813,-2.5136,-2.5808,-2.6425,-2.5819,-2.6268,-2.6688,-2.6328,-2.5796,-2.6203,-2.8629,-2.8937,-2.9328,-3.0637,-3.0589,-3.0149,-2.9377,-2.8122,-2.7582,-2.822,-2.8063,-2.9484,-3.3358,-3.3158,-3.3058,-3.351,-3.2761,-3.2664,-3.3476,-3.3492,-3.3066,-3.217,-3.1316,-2.9983,-2.8276,-2.8542,-2.866,-2.8644,-2.9219,-2.9486,-2.9526,-2.9793,-2.9913,-2.9913,-2.9913,-2.9913,-2.9913,-2.9913,-2.9913,-2.9913,-2.9913,-2.9913,-2.9913,0.0,0.0,0.0,0.0,0.0,0.0,0.0,0.0,0.0,0.0,0.0,0.0,0.0,0.0,0.0,0.0,0.0,0.0,-0.7721,-0.9136,-1.0481,-1.1697,-1.2869,-1.3731,-1.4319,-1.4829,-1.5224,-1.5486,-1.6037,-1.6443,-1.6655,-1.6738,-1.6884,-1.7083,-1.7191,-1.7253,-1.7229,-1.6608,-1.6193,-1.5892,-1.4908,-1.41,-1.3518,-1.3812,-1.2493,-1.0533,-1.0874,-1.0089,-0.8974,-0.9618,-1.1067,-1.2639,-1.3034,-1.4381,-1.5995,-1.6967,-1.8692,-2.0548,-2.205,-2.3287,-2.4372,-2.527,-2.5548,-2.5659,-2.578,-2.6135,-2.6299,-2.5752,-2.6263,-2.6585,-2.59,-2.5685,-2.6121,-2.7674,-2.8178,-2.8678,-2.9568,-3.0316,-3.0295,-2.9083,-2.9043,-2.9296,-2.9713,-3.0234,-3.1531,-3.3929,-3.2177,-3.1469,-3.2665,-3.2801,-3.303,-3.3476,-3.3492,-3.3394,-3.3148,-3.2226,-3.0886,-2.9146,-2.9464,-2.9342,-2.8895,-2.9312,-2.9606,-2.9806,-2.9887,-2.9913,-2.9913,-2.9913,-2.9913,-2.9913,-2.9913,-2.9913,-2.9913,-2.9913,-2.9913,-2.9913,0.0,0.0,0.0,0.0,0.0,0.0,0.0,0.0,0.0,0.0,0.0,0.0,0.0,0.0,0.0,0.0,0.0,0.0,0.0,-0.7676,-0.8596,-0.9448,-1.0119,-1.0804,-1.1503,-1.1713,-1.2119,-1.2733,-1.3209,-1.3689,-1.4097,-1.4327,-1.4507,-1.4657,-1.4895,-1.5007,-1.4958,-1.4264,-1.3803,0.0,0.0,-1.2026,-1.1493,-1.2068,-1.1136,-0.9594,-1.0083,-1.0221,-1.0327,-1.1476,-1.2893,-1.4269,-1.4794,-1.6061,-1.7582,-1.8665,-2.0258,-2.193,-2.3148,-2.4315,-2.538,-2.6126,-2.5907,-2.5567,-2.5789,-2.5711,-2.5301,-2.4313,-2.4682,-2.4833,-2.372,-2.3781,-2.4595,-2.6341,-2.7279,-2.8321,-2.9783,-3.0673,-3.0859,-3.0038,-3.0124,-3.0382,-3.0529,-3.0982,-3.1728,-3.2929,-3.2089,-3.2092,-3.3431,-3.3162,-3.3151,-3.3476,-3.3492,-3.3312,-3.2886,-3.2335,-3.1218,-2.9523,-2.9929,-2.9721,-2.9015,-2.9486,-2.9766,-2.9913,-2.9913,-2.9913,-2.9913,-2.9913,-2.9913,-2.9913,-2.9913,-2.9913,-2.9913,-2.9913,-2.9993,-3.0114,0.0,0.0,0.0,0.0,0.0,0.0,0.0,0.0,0.0,0.0,0.0,0.0,0.0,0.0,0.0,0.0,0.0,0.0,0.0,0.0,-0.6889,-0.758,-0.7228,-0.7577,-0.8805,-0.8063,-0.8381,-0.9849,-0.9906,-1.0359,-1.1175,-1.1651,-1.1922,-1.1972,-1.2448,-1.2674,-1.2666,-1.1954,-1.1503,-1.1217,-1.0702,-1.0159,-0.9681,0.0,-0.9458,-0.8804,-0.8925,-1.0209,-1.2082,-1.3748,-1.4977,-1.5965,-1.6847,-1.8317,-1.9923,-2.0806,-2.205,-2.3322,-2.4142,-2.5181,-2.6072,-2.6451,-2.5916,-2.5269,-2.5291,-2.4677,-2.3748,-2.2376,-2.2367,-2.2241,-2.0947,-2.1368,-2.2686,-2.5006,-2.6434,-2.8088,-3.0414,-3.1095,-3.1379,-3.1383,-3.1195,-3.1036,-3.1036,-3.1083,-3.1297,-3.1724,-3.2572,-3.3547,-3.4592,-3.3627,-3.3215,-3.3476,-3.3599,-3.3214,-3.2293,-3.25,-3.1715,-2.9858,-3.0439,-3.0189,-2.9189,-2.9691,-2.9913,-2.9913,-2.9913,-2.9913,-2.9913,-2.9913,-2.9913,-2.9913,-2.9913,-2.9913,-2.9913,-2.9913,-3.01,-3.04,0.0,0.0,0.0,0.0,0.0,0.0,0.0,0.0,0.0,0.0,-0.484,0.0,0.0,0.0,0.0,0.0,0.0,0.0,0.0,0.0,0.0,-0.6611,-0.657,-0.6811,-0.7433,-0.777,-0.7965,-0.8053,-0.8756,-0.9189,-0.9364,-0.9623,-0.9894,-1.0162,-1.0238,-1.0407,-1.0584,-1.0126,-0.9967,-0.9977,-0.9548,-0.9213,-0.8975,-0.9017,0.0,0.0,-0.9618,-1.0565,-1.1899,-1.4594,-1.6607,-1.8103,-1.8985,-2.0307,-2.171,-2.2605,-2.3532,-2.4462,-2.5117,-2.5611,-2.5956,-2.5776,-2.4894,-2.4121,-2.4218,-2.29,-2.1609,-2.1547,-2.0823,-2.0231,-2.0296,-2.123,-2.2599,-2.4518,-2.6077,-2.7736,-2.9725,-3.0265,-3.0745,-3.1338,-3.1586,-3.1729,-3.1729,-3.1983,-3.2561,-3.3631,-3.3265,-3.313,-3.3339,-3.3369,-3.3429,-3.3492,-3.4213,-3.4115,-3.3183,-3.4653,-3.4164,-3.1659,-3.2251,-3.1725,-3.0174,-3.0001,-2.9913,-2.9913,-2.9913,-2.9913,-2.9913,-2.9913,-2.9913,-2.9913,-2.9913,-2.9913,-2.9913,-2.9913,-3.01,-3.04,0.0,0.0,0.0,0.0,0.0,0.0,0.0,0.0,0.0,0.0,-0.5631,-0.5628,0.0,0.0,0.0,0.0,0.0,0.0,0.0,0.0,0.0,0.0,-0.603,-0.6138,-0.6377,-0.6754,-0.6902,-0.6762,0.0,-0.766,-0.7755,-0.8009,-0.8277,-0.8563,-0.8697,-0.8938,-0.9191,-0.9012,-0.8961,-0.9018,-0.8973,-0.8803,-0.8617,0.0,0.0,0.0,-0.9792,-1.0982,-1.239,-1.4087,-1.6593,-1.9187,-2.0365,-2.1617,-2.2792,-2.338,-2.4182,-2.489,-2.4986,-2.5491,-2.5926,-2.5534,-2.4588,-2.3732,-2.3642,-2.2165,-2.0693,-2.0368,-1.9683,-1.9065,-1.8837,-2.0221,-2.1725,-2.2761,-2.4105,-2.5925,-2.8505,-2.8774,-2.9298,-3.0956,-3.1744,-3.211,-3.1935,-3.2396,-3.2962,-3.354,-3.3234,-3.3274,-3.3912,-3.4091,-3.4172,-3.4172,-3.5011,-3.5254,-3.4815,-3.5682,-3.5221,-3.347,-3.3641,-3.278,-3.1052,-3.077,-3.0616,-3.0616,-3.0616,-3.0616,-3.0616,-3.0616,-3.0361,-2.9913,-2.9913,-2.9913,-2.994,-3.0087,-3.0327,-3.0654,0.0,0.0,0.0,0.0,0.0,0.0,0.0,-0.4184,-0.4657,-0.6192,-0.6245,-0.6032,-0.5777,-0.5648,-0.5463,0.0,0.0,0.0,0.0,0.0,0.0,0.0,0.0,0.0,-0.5696,0.0,0.0,-0.6001,-0.6202,0.0,0.0,0.0,0.0,0.0,-0.7804,-0.8084,-0.8402,-0.8402,-0.8442,0.0,0.0,-0.8671,-0.851,0.0,0.0,0.0,0.0,-1.1009,-1.2363,-1.3367,-1.5778,-1.8652,-2.0311,-2.1871,-2.3145,-2.3407,-2.4191,-2.485,-2.4639,-2.5184,-2.5747,-2.5436,-2.4393,-2.3355,-2.3129,-2.1486,-1.9823,-1.9077,-1.854,-1.8063,-1.7697,-1.9201,-2.073,-2.1433,-2.2613,-2.4452,-2.7376,-2.7665,-2.8387,-3.0511,-3.1729,-3.2301,-3.2046,-3.265,-3.3104,-3.3104,-3.3104,-3.3596,-3.4726,-3.4783,-3.4905,-3.5068,-3.5901,-3.6385,-3.6385,-3.6385,-3.604,-3.5395,-3.4927,-3.3789,-3.2086,-3.1974,-3.1671,-3.1315,-3.1493,-3.1582,-3.1582,-3.1582,-3.1062,-3.0182,-3.0182,-3.0133,-3.0034,-3.0319,-3.0627,-3.0915,0.0,0.0,0.0,0.0,0.0,0.0,0.0,-0.4531,-0.5128,-0.6262,-0.6478,-0.6371,-0.5927,-0.5864,-0.5649,0.0,0.0,0.0,0.0,0.0,0.0,0.0,0.0,0.0,0.0,0.0,0.0,-0.5998,-0.6024,0.0,0.0,0.0,0.0,0.0,0.0,-0.8084,-0.8402,-0.8402,0.0,0.0,0.0,0.0,0.0,0.0,0.0,0.0,0.0,-1.0205,-1.0742,-1.3213,-1.4456,-1.5341,-1.7622,-2.0237,-2.2512,-2.2539,-2.3367,-2.4329,-2.4532,-2.489,-2.5184,-2.5288,-2.3905,-2.2477,-2.2331,-2.0135,-1.8053,-1.7729,-1.7037,-1.6836,-1.7862,-1.8812,-2.0081,-2.2072,-2.3423,-2.4834,-2.6734,-2.8095,-2.9274,-3.0224,-3.1586,-3.2396,-3.2364,-3.3015,-3.3429,-3.3429,-3.3429,-3.3854,-3.4743,-3.4783,-3.5149,-3.5982,-3.6827,-3.7285,-3.7285,-3.7285,-3.7405,-3.7677,-3.6332,-3.489,-3.3406,-3.3742,-3.2896,-3.136,-3.2189,-3.2543,-3.2543,-3.2543,-3.2026,-3.1196,-3.1196,-3.0825,-3.0373,-3.04,-3.0715,-3.1196,0.0,0.0,0.0,0.0,0.0,0.0,0.0,-0.473,-0.5234,-0.6589,-0.6676,-0.6607,-0.661,-0.6157,-0.5634,0.0,0.0,0.0,0.0,0.0,0.0,0.0,0.0,0.0,0.0,0.0,-0.5804,-0.5996,-0.6,0.0,0.0,0.0,0.0,0.0,0.0,-0.7925,-0.8402,-0.8402,0.0,0.0,0.0,0.0,0.0,0.0,0.0,0.0,0.0,0.0,-1.053,-1.1396,-1.27,-1.4074,-1.4669,-1.6754,-1.9332,-2.1109,-2.2472,-2.3536,-2.3981,-2.4583,-2.4978,-2.4512,-2.3759,-2.2832,-2.1788,-2.0037,-1.8422,-1.766,-1.6854,-1.6525,-1.7239,-1.7844,-1.8883,-2.0973,-2.1105,-2.1946,-2.4855,-2.5431,-2.6463,-2.8927,-3.0356,-3.149,-3.2332,-3.3063,-3.3492,-3.3492,-3.3492,-3.4131,-3.5497,-3.5578,-3.574,-3.6103,-3.7428,-3.8123,-3.8123,-3.8123,-3.8322,-3.8702,-3.7277,-3.5794,-3.4357,-3.3611,-3.2852,-3.2159,-3.2543,-3.3043,-3.3587,-3.3587,-3.3043,-3.2173,-3.2419,-3.2353,-3.2195,-3.2531,-3.2445,-3.2124,0.0,0.0,0.0,0.0,0.0,0.0,-0.4765,-0.4895,-0.5327,-0.6698,-0.6632,-0.6559,-0.6833,-0.6014,-0.5358,-0.5146,0.0,0.0,0.0,0.0,0.0,0.0,0.0,0.0,0.0,0.0,-0.5933,-0.621,-0.6287,-0.6604,0.0,0.0,-0.7294,-0.7735,0.0,0.0,0.0,0.0,0.0,0.0,0.0,0.0,0.0,0.0,0.0,0.0,0.0,0.0,0.0,0.0,0.0,-1.2719,-1.2658,-1.4049,-1.6246,-1.9199,-2.1149,-2.2505,-2.3108,-2.3991,-2.4649,-2.4268,-2.3689,-2.2946,-2.1694,-2.0012,-1.8439,-1.7369,-1.6597,-1.6266,-1.6653,-1.7257,-1.8265,-2.0042,-1.9903,-2.0659,-2.3806,-2.4227,-2.5194,-2.79,-2.9395,-3.0695,-3.1804,-3.3106,-3.3886,-3.3886,-3.4131,-3.4808,-3.6005,-3.6345,-3.6586,-3.6827,-3.7508,-3.8123,-3.86,-3.7845,-3.8136,-3.9369,-3.7329,-3.5902,-3.5015,-3.37,-3.294,-3.2719,-3.2999,-3.3719,-3.4612,-3.4612,-3.4087,-3.3339,-3.3621,-3.3649,-3.3613,-3.4068,-3.364,-3.2869,0.0,0.0,0.0,0.0,0.0,0.0,0.0,-0.5034,-0.5529,-0.6471,-0.6312,-0.6162,-0.6306,-0.5295,-0.4768,-0.5158,0.0,0.0,0.0,0.0,0.0,0.0,0.0,0.0,0.0,0.0,-0.6221,-0.6691,-0.6956,-0.7475,-0.8184,-0.798,-0.8035,-0.8289,0.0,0.0,0.0,0.0,0.0,0.0,0.0,0.0,0.0,0.0,0.0,0.0,0.0,0.0,0.0,0.0,0.0,0.0,0.0,-1.2732,-1.3828,-1.6754,-1.9279,-2.1256,-2.1844,-2.2907,-2.3988,-2.477,-2.3733,-2.2443,-2.2142,-1.9915,-1.7606,-1.6515,-1.5991,-1.5826,-1.6231,-1.7294,-1.8503,-1.9712,-2.09,-2.2278,-2.4042,-2.5617,-2.6799,-2.7449,-2.9058,-3.0298,-3.0757,-3.3238,-3.4783,-3.4783,-3.5578,-3.6103,-3.6103,-3.6907,-3.7765,-3.856,-3.6987,-3.6907,-3.856,-3.612,-3.6521,-3.9832,-3.6267,-3.4869,-3.5478,-3.4507,-3.3601,-3.2764,-3.3763,-3.47,-3.5573,-3.5573,-3.5238,-3.4691,-3.4691,-3.4472,-3.4168,-3.4183,-3.3783,-3.321,0.0,0.0,0.0,0.0,0.0,0.0,0.0,-0.4321,-0.463,-0.5523,-0.5356,-0.5256,-0.5512,-0.4533,-0.41,-0.4726,0.0,0.0,0.0,0.0,0.0,0.0,0.0,0.0,0.0,0.0,-0.674,-0.7728,-0.7946,-0.8435,-0.9149,-0.8766,-0.8623,-0.8696,-0.8243,-0.8263,0.0,0.0,0.0,0.0,0.0,0.0,-0.8791,0.0,0.0,0.0,0.0,0.0,0.0,0.0,0.0,0.0,0.0,0.0,0.0,-1.4135,-1.6675,-1.9389,-2.1278,-2.2017,-2.2303,-2.2542,-2.2531,-2.2134,-2.07,-1.938,-1.804,-1.66,-1.5991,-1.5826,-1.6231,-1.6616,-1.7807,-2.0683,-2.0995,-2.177,-2.4296,-2.6081,-2.7288,-2.7669,-3.0069,-3.2037,-3.3025,-3.4142,-3.5068,-3.5619,-3.5942,-3.6385,-3.6947,-3.6707,-3.6907,-3.7765,-3.7805,-3.8084,-3.86,-3.7228,-3.7251,-3.8576,-3.6416,-3.531,-3.516,-3.4473,-3.3616,-3.2764,-3.3763,-3.4349,-3.47,-3.5355,-3.5506,-3.5385,-3.5796,-3.593,-3.5909,-3.6389,-3.6035,-3.5133,0.0,0.0,0.0,0.0,0.0,0.0,0.0,-0.3932,-0.4105,-0.4768,-0.4569,-0.4526,-0.4971,-0.3928,-0.3545,-0.4415,0.0,0.0,0.0,0.0,0.0,0.0,0.0,0.0,-0.5996,-0.6266,-0.7033,-0.8322,-0.8711,-0.9281,-0.997,-0.9784,-0.9442,-0.8997,-0.8492,-0.8387,0.0,0.0,0.0,0.0,0.0,0.0,-0.8528,0.0,0.0,0.0,0.0,0.0,0.0,0.0,0.0,0.0,0.0,0.0,0.0,0.0,-1.4499,-1.6508,-1.9498,-2.0587,-2.096,-2.145,-2.1599,-2.1277,-1.9912,-1.878,-1.7642,-1.634,-1.5863,-1.5787,-1.6028,-1.645,-1.7532,-1.995,-2.0317,-2.1203,-2.39,-2.5511,-2.687,-2.8135,-3.0232,-3.2043,-3.3191,-3.4346,-3.5362,-3.6046,-3.6707,-3.7268,-3.7805,-3.7348,-3.7308,-3.7845,-3.7725,-3.7964,-3.86,-3.7468,-3.71,-3.7468,-3.5858,-3.4967,-3.4726,-3.3851,-3.3479,-3.3552,-3.401,-3.4393,0.0,-3.5498,-3.5844,-3.6018,-3.6574,-3.6876,-3.7051,-3.7558,-3.7054,-3.608,0.0,0.0,0.0,0.0,0.0,0.0,0.0,0.0,0.0,0.0,-0.3968,-0.3959,-0.4522,-0.3439,-0.3073,0.0,0.0,0.0,0.0,0.0,0.0,0.0,0.0,0.0,-0.6006,-0.6309,-0.716,-0.8597,-0.9342,-1.0056,-1.0768,-1.0993,-1.0475,-0.9281,-0.9053,-0.8707,-0.8301,0.0,0.0,0.0,0.0,0.0,0.0,0.0,0.0,0.0,0.0,0.0,0.0,0.0,0.0,0.0,0.0,0.0,0.0,0.0,0.0,0.0,0.0,-1.8575,-1.979,-2.1062,-2.0678,-1.9906,-1.9465,-1.8067,0.0,-1.5808,-1.5625,-1.5659,-1.5769,-1.6652,-1.7587,-1.8247,-1.9309,-2.0842,-2.3159,-2.4386,-2.6111,-2.9031,-3.0008,-3.0859,-3.1905,-3.4132,-3.5726,-3.6149,-3.7649,-3.8563,-3.86,-3.8582,-3.8563,-3.86,-3.7108,-3.7028,-3.856,-3.6987,-3.6338,-3.6624,-3.4891,-3.4253,-3.4461,-3.3099,-3.3352,-3.4823,-3.4458,-3.4744,-3.5518,-3.5911,-3.6288,-3.6606,-3.6988,-3.7337,-3.7685,-3.7701,-3.7116,-3.6173,0.0,0.0,0.0,0.0,0.0,0.0,0.0,0.0,0.0,0.0,-0.3518,-0.3334,-0.3324,-0.2772,-0.2535,0.0,0.0,0.0,0.0,0.0,0.0,0.0,0.0,0.0,-0.6287,-0.6721,-0.7795,-0.9575,-1.0304,-1.123,-1.2287,-1.2134,-1.1424,-1.0252,-0.9688,-0.9017,-0.8273,-0.7887,0.0,0.0,0.0,0.0,0.0,0.0,0.0,0.0,-0.9031,-0.9311,0.0,0.0,0.0,0.0,0.0,0.0,0.0,0.0,-1.1291,-1.1799,-1.4091,0.0,-1.674,-1.7773,-1.809,-1.7958,0.0,-1.675,-1.6213,-1.5404,-1.5001,-1.5166,-1.6395,-1.634,-1.7165,-2.0353,-2.1083,-2.1957,-2.3968,-2.6011,-2.844,-3.1435,-3.183,-3.2362,-3.3576,-3.5061,-3.6281,-3.7028,-3.7737,-3.827,-3.8582,-3.8307,-3.827,-3.86,-3.8243,-3.8203,-3.86,-3.7587,-3.712,-3.7208,-3.6351,-3.5784,-3.5462,-3.537,-3.4961,-3.4401,-3.5018,-3.5006,-3.4599,-3.5646,-3.6145,-3.6288,-3.6892,-3.7178,-3.7289,-3.7575,-3.7532,-3.7209,0.0,0.0,0.0,0.0,0.0,0.0,0.0,0.0,0.0,0.0,0.0,0.0,0.0,0.0,0.0,0.0,0.0,0.0,0.0,0.0,0.0,0.0,0.0,-0.5022,-0.6373,-0.674,-0.786,-0.9766,-1.0388,-1.1402,-1.2807,-1.2654,-1.1995,-1.0866,-0.9685,-0.8838,-0.8273,-0.7738,-0.779,0.0,-0.8001,0.0,0.0,0.0,0.0,0.0,-0.8965,-0.9312,0.0,-1.0327,-1.0805,-1.1169,0.0,0.0,0.0,0.0,-1.0474,-1.0887,-1.2308,-1.3925,-1.5618,-1.7311,-1.7387,-1.7043,-1.6895,-1.6268,-1.5572,-1.4949,-1.4799,-1.5111,-1.6156,-1.6281,-1.7117,-1.9873,-2.0692,-2.206,-2.5203,-2.7723,-2.9969,-3.1854,-3.2167,-3.2485,-3.3123,-3.4654,-3.5867,-3.65,-3.7448,-3.8112,-3.8324,-3.7947,-3.7886,-3.8307,-3.8307,-3.8417,-3.86,-3.8163,-3.7547,-3.6769,-3.6916,-3.6478,-3.5592,-3.593,-3.5755,-3.5205,-3.5451,-3.5312,-3.4922,-3.5892,-3.6336,-3.64,-3.7099,-3.7385,-3.7401,-3.7591,-3.7717,-3.7578,0.0,0.0,0.0,0.0,0.0,0.0,0.0,0.0,0.0,0.0,0.0,0.0,0.0,0.0,0.0,0.0,0.0,0.0,0.0,0.0,0.0,0.0,-0.3866,-0.4713,-0.6439,-0.6665,-0.7748,-0.9763,-1.0293,-1.1359,-1.2848,-1.3064,-1.2522,-1.1273,-0.9536,-0.8573,-0.8248,-0.7722,-0.7587,-0.7731,-0.7847,0.0,0.0,0.0,0.0,0.0,0.0,0.0,0.0,-1.0474,-1.0992,-1.1312,-1.1179,0.0,0.0,0.0,0.0,0.0,-1.1341,-1.3147,-1.5218,-1.7306,-1.7228,-1.6723,-1.6991,-1.6107,-1.5139,-1.4793,-1.4995,-1.5402,-1.5995,-1.665,-1.7561,-1.8987,-2.0158,-2.2333,-2.6474,-2.8948,-3.0597,-3.1357,-3.1757,-3.1978,-3.1973,-3.3831,-3.5128,-3.5461,-3.6932,-3.7877,-3.7984,-3.7566,-3.7501,-3.7998,-3.8016,-3.8179,-3.86,-3.86,-3.7849,-3.6414,-3.721,-3.6893,-3.5568,-3.5858,-3.6088,-3.6158,-3.5793,-3.5617,-3.5665,-3.6257,-3.6559,-3.667,-3.7337,-3.7669,-3.7717,-3.7717,-3.7717,-3.7578,0.0,0.0,0.0,0.0,0.0,0.0,0.0,0.0,0.0,0.0,0.0,0.0,0.0,0.0,0.0,0.0,0.0,0.0,0.0,0.0,0.0,-0.328,-0.3689,-0.4819,-0.6784,-0.6967,-0.8161,-1.0456,-1.137,-1.2244,-1.3082,-1.4271,-1.3691,-1.1575,-1.0099,-0.8982,-0.8189,-0.7707,-0.7799,-0.8252,-0.8012,0.0,0.0,0.0,0.0,0.0,0.0,0.0,0.0,-0.9431,-1.0179,-1.0929,-1.018,0.0,0.0,0.0,0.0,0.0,-1.1741,-1.3014,-1.3802,-1.3863,-1.5377,-1.6542,-1.5321,-1.5463,-1.5846,-1.5771,-1.5827,-1.6272,-1.7641,-1.8167,-1.9129,-2.1315,-2.321,-2.5126,-2.7139,-2.8372,-2.9582,-3.0905,-3.157,-3.2026,-3.2372,-3.3932,-3.5072,-3.5461,-3.6428,-3.7288,-3.7947,-3.7308,-3.7226,-3.7998,-3.8016,-3.8179,-3.86,-3.86,-3.8481,-3.8185,-3.8362,-3.7859,-3.6817,-3.6868,-3.6474,-3.5711,-3.5645,-3.5617,-3.5605,-3.6018,-3.6352,-3.6638,-3.7051,-3.7401,-3.7717,-3.7717,-3.7717,-3.7671,0.0,0.0,0.0,0.0,0.0,0.0,0.0,0.0,0.0,0.0,0.0,0.0,0.0,0.0,0.0,0.0,0.0,0.0,0.0,0.0,-0.2613,-0.3324,-0.3782,-0.4676,-0.611,-0.6704,-0.8097,-1.0333,-1.1257,-1.2394,-1.3674,-1.368,-1.2767,-1.1037,-0.9627,-0.8647,-0.7997,-0.7497,-0.7609,-0.8117,0.0,0.0,0.0,0.0,0.0,0.0,0.0,0.0,0.0,0.0,-1.0379,-1.1102,-1.0396,0.0,0.0,0.0,0.0,0.0,-1.1113,-1.254,-1.3653,-1.3386,-1.5169,-1.6953,-1.6763,-1.6556,-1.651,-1.6973,-1.6918,-1.7225,-1.8729,-1.9414,-2.0542,-2.3084,-2.5283,-2.7103,-2.8329,-2.9336,-3.0324,-3.1404,-3.1783,-3.2102,-3.2528,-3.4017,-3.5215,-3.5823,-3.6636,-3.7371,-3.7952,-3.7016,-3.6936,-3.7976,-3.7561,-3.7739,-3.86,-3.838,-3.838,-3.86,-3.86,-3.8079,-3.711,-3.711,-3.6549,-3.5617,-3.5617,-3.5617,-3.5649,-3.5955,-3.6193,-3.6384,-3.6924,-3.7226,-3.7401,-3.7591,-3.7717,-3.7717,0.0,0.0,0.0,0.0,0.0,0.0,0.0,0.0,0.0,0.0,0.0,0.0,0.0,0.0,0.0,0.0,0.0,0.0,0.0,0.0,-0.265,-0.3446,-0.3908,-0.4711,-0.5937,-0.6643,-0.8143,-1.0515,-1.1364,-1.2729,-1.4509,-1.3243,-1.1973,-1.0639,-0.9345,-0.8387,-0.7754,-0.7359,-0.7463,-0.7904,0.0,0.0,0.0,0.0,0.0,0.0,0.0,0.0,0.0,0.0,0.0,0.0,0.0,0.0,0.0,-1.0501,-1.0127,-1.0154,-1.0827,-1.2213,-1.3535,-1.382,-1.5536,-1.7414,-1.8362,-1.7894,-1.7576,-1.858,-1.8553,-1.8728,-1.9966,-2.103,-2.255,-2.5003,-2.6972,-2.8475,-2.928,-3.0273,-3.1093,-3.1666,-3.2067,-3.2404,-3.2724,-3.4212,-3.5439,-3.6163,-3.6868,-3.7446,-3.7845,-3.6886,-3.6811,-3.7836,-3.7179,-3.7336,-3.8453,-3.8142,-3.8179,-3.86,-3.86,-3.8079,-3.711,-3.711,-3.6549,-3.5617,-3.5617,-3.5617,-3.5605,-3.5875,-3.6034,-3.6161,-3.6765,-3.7099,-3.7289,-3.7575,-3.7717,-3.7717,0.0,0.0,0.0,0.0,0.0,0.0,0.0,0.0,0.0,0.0,0.0,0.0,0.0,0.0,0.0,0.0,0.0,0.0,0.0,0.0,-0.2628,-0.3367,-0.3971,-0.5246,-0.7312,-0.7294,-0.8741,-1.1764,-1.2506,-1.3791,-1.5461,-1.4062,-1.2533,-1.0928,-0.9959,-0.8754,-0.744,-0.7466,-0.7635,-0.7904,-0.7904,0.0,0.0,0.0,0.0,0.0,0.0,0.0,0.0,0.0,0.0,0.0,0.0,0.0,-1.0998,-1.0667,-1.0171,-1.0089,-1.173,-1.2293,-1.2779,-1.4328,-1.6071,-1.7603,-1.8553,-1.8892,-1.9418,-2.0783,-2.1097,-2.1264,-2.18,-2.3641,-2.5645,-2.7458,-2.851,-2.9157,-2.9285,-3.0224,-3.0932,-3.0968,-3.2243,-3.3125,-3.3158,-3.4612,-3.5753,-3.6163,-3.6608,-3.7034,-3.7421,-3.6997,-3.6961,-3.7446,-3.7031,-3.7189,-3.8053,-3.8034,-3.8179,-3.86,-3.86,-3.8079,-3.711,-3.711,-3.6549,-3.5617,-3.5617,-3.5617,-3.5617,-3.5649,-3.5812,-3.6145,-3.6495,-3.7051,-3.7685,-3.7701,-3.7717,-3.7717,0.0,0.0,0.0,0.0,0.0,0.0,0.0,0.0,0.0,0.0,0.0,0.0,0.0,0.0,0.0,0.0,0.0,0.0,0.0,-0.2516,-0.2848,-0.368,-0.4041,-0.4895,-0.6299,-0.7051,-0.8886,-1.1894,-1.3713,-1.4715,-1.4873,-1.3355,-1.1802,-1.0272,-0.9344,-0.8538,-0.7875,-0.7558,-0.7881,-0.8527,-0.7903,-0.7896,0.0,0.0,0.0,0.0,0.0,0.0,0.0,0.0,-0.9459,-0.9833,-0.9766,-1.0419,-1.1152,-1.0734,-1.0289,-1.014,-1.0998,-1.1895,-1.2885,-1.4019,-1.574,-1.7496,-1.88,-1.9947,-2.1267,-2.31,-2.3125,-2.3235,-2.4486,-2.5468,-2.6598,-2.8176,-2.9026,-2.9609,-2.9884,-3.0092,-3.0378,-3.0845,-3.142,-3.1955,-3.2484,-3.3477,-3.4594,-3.5754,-3.6201,-3.6812,-3.7715,-3.7144,-3.711,-3.7746,-3.6904,-3.6687,-3.7195,-3.7506,-3.7706,-3.7845,-3.7845,-3.7612,-3.7068,-3.6526,-3.604,-3.5617,-3.5617,-3.5617,-3.5617,-3.5617,-3.5653,-3.5828,-3.6384,-3.7035,-3.7717,-3.7717,-3.7717,-3.7717,0.0,0.0,0.0,0.0,0.0,0.0,0.0,0.0,0.0,0.0,0.0,0.0,0.0,0.0,0.0,0.0,0.0,0.0,-0.267,-0.2628,-0.2958,-0.3778,-0.411,-0.4708,-0.5647,-0.6877,-0.8688,-1.1108,-1.3368,-1.4197,-1.3592,-1.228,-1.115,-1.0218,-0.927,-0.8797,-0.869,-0.7968,-0.8129,-0.8803,-0.7865,-0.7709,0.0,0.0,0.0,0.0,0.0,0.0,0.0,0.0,-0.9072,-0.9459,-0.9698,-1.0459,-1.1223,-1.0945,-1.0771,-1.0715,-1.0948,-1.1806,-1.2879,-1.3798,-1.5596,-1.7585,-1.9436,-2.0818,-2.2362,-2.4761,-2.4804,-2.4816,-2.6141,-2.6379,-2.6939,-2.8742,-2.9563,-3.0245,-3.1115,-3.1108,-3.1097,-3.1232,-3.1677,-3.208,-3.2268,-3.3091,-3.4029,-3.5157,-3.5717,-3.6442,-3.7365,-3.7034,-3.7165,-3.7968,-3.6571,-3.6056,-3.6546,-3.6597,-3.6827,-3.721,-3.6775,-3.6731,-3.6939,-3.6125,-3.5635,-3.5415,-3.5526,-3.5617,-3.5617,-3.5617,-3.5701,-3.5939,-3.6416,-3.6972,-3.7512,-3.7623,-3.7591,-3.7512,0.0,0.0,0.0,0.0,0.0,0.0,0.0,0.0,0.0,0.0,0.0,0.0,0.0,0.0,0.0,0.0,0.0,0.0,-0.2803,-0.2675,-0.2898,-0.3573,-0.411,-0.4829,-0.5764,-0.6899,-0.8106,-0.9405,-1.1205,-1.1944,-1.169,-1.1029,-1.0801,-1.096,-1.0022,-0.9712,-0.9822,-0.869,-0.8363,-0.8542,-0.7807,-0.7389,-0.7263,0.0,0.0,0.0,0.0,0.0,0.0,0.0,-0.8791,-0.9058,-1.0514,-1.0982,-1.1049,-1.1312,-1.1623,-1.1882,-1.1899,-1.2096,-1.2599,-1.3788,-1.5715,-1.7979,-2.0535,-2.1435,-2.2572,-2.558,-2.6113,-2.6123,-2.6548,-2.6286,-2.6858,-2.9384,-3.0207,-3.1146,-3.2932,-3.3499,-3.3257,-3.2143,-3.3332,-3.3852,-3.2774,-3.3713,-3.4351,-3.4389,-3.5139,-3.5754,-3.6163,-3.6571,-3.7181,-3.7972,-3.6052,-3.5372,-3.6182,-3.5347,-3.5535,-3.6745,-3.5449,-3.5414,-3.6587,-3.605,-3.5505,-3.5006,-3.5415,-3.5617,-3.5617,-3.5617,-3.5987,-3.659,-3.659,-3.6813,-3.7133,-3.7544,-3.7448,-3.7133,0.0,0.0,0.0,0.0,0.0,0.0,0.0,0.0,0.0,0.0,0.0,0.0,0.0,0.0,0.0,0.0,0.0,0.0,-0.2733,-0.2689,-0.2868,-0.3294,-0.3823,-0.4331,-0.4811,-0.565,-0.7278,-0.9664,-1.1446,-1.1937,-1.1215,-1.1345,-1.1077,-1.0498,-1.0349,-1.007,-0.9655,-0.8981,-0.8854,-0.9039,-0.8283,-0.8108,-0.8248,0.0,0.0,0.0,0.0,0.0,0.0,0.0,0.0,0.0,-0.9404,-1.0459,-1.1219,-1.0932,-1.1169,-1.1463,-1.1095,-1.1948,-1.3173,-1.4148,-1.6424,-1.9029,-2.1423,-2.2574,-2.3909,-2.6374,-2.7036,-2.7258,-2.7669,-2.7599,-2.8066,-2.9917,-3.0728,-3.1616,-3.3003,-3.3074,-3.2648,-3.1758,-3.2074,-3.1887,-3.0787,-3.1169,-3.2114,-3.3524,-3.3854,-3.4645,-3.6109,-3.6584,-3.6911,-3.7148,-3.6017,-3.5372,-3.5269,-3.5037,-3.4907,-3.4981,-3.4844,-3.5414,-3.6546,-3.5424,-3.4912,-3.5006,-3.5415,-3.5617,-3.5617,-3.5617,-3.5987,-3.659,-3.659,-3.6972,-3.7528,-3.7685,-3.7607,-3.7528,0.0,0.0,0.0,0.0,0.0,0.0,0.0,0.0,0.0,0.0,-0.3916,-0.3882,0.0,0.0,0.0,0.0,0.0,0.0,0.0,-0.2869,-0.2997,-0.3414,-0.3854,-0.4387,-0.5067,-0.5493,-0.6485,-0.81,-0.9515,-1.0104,-0.9899,-1.085,-1.1291,-1.1316,-1.1618,-1.1348,-1.0659,-1.0011,-0.9648,-0.9495,-0.8848,-0.8671,-0.8749,0.0,0.0,0.0,0.0,0.0,0.0,0.0,0.0,0.0,-0.8644,-0.9565,-1.0419,-1.0677,-1.1159,-1.165,-1.1922,-1.3019,-1.4349,-1.5458,-1.7435,-1.9804,-2.2439,-2.4222,-2.5771,-2.7278,-2.7629,-2.7701,-2.7961,-2.7867,-2.831,-3.0099,-3.1131,-3.2248,-3.3851,-3.4061,-3.3489,-3.2135,-3.2076,-3.1532,-2.9968,-3.0087,-3.0803,-3.2018,-3.2682,-3.3688,-3.5176,-3.5918,-3.6372,-3.6522,-3.5466,-3.4672,-3.4221,-3.3998,-3.3776,-3.349,-3.4374,-3.4981,-3.5302,-3.4732,-3.462,-3.4816,-3.5351,-3.5617,-3.5617,-3.5617,-3.5987,-3.659,-3.659,-3.686,-3.7258,-3.7401,-3.7289,-3.7083,0.0,0.0,0.0,0.0,0.0,0.0,0.0,0.0,0.0,0.0,-0.3894,-0.3832,0.0,0.0,0.0,0.0,0.0,0.0,0.0,0.0,-0.323,-0.3813,-0.4141,-0.4853,-0.6018,-0.591,-0.5696,-0.5429,-0.6436,-0.7323,-0.8087,-0.9953,-1.1479,-1.2651,-1.3211,-1.2996,-1.2221,-1.1241,-1.0433,-0.9769,-0.9324,-0.9068,-0.893,-0.883,0.0,0.0,0.0,0.0,0.0,0.0,0.0,0.0,-0.8201,-0.8603,-0.9098,-1.0474,-1.136,-1.2189,-1.3608,-1.4691,-1.5765,-1.7314,-1.8735,-2.049,-2.3428,-2.5914,-2.7718,-2.8088,-2.7961,-2.7786,-2.7754,-2.7518,-2.7997,-3.01,-3.1316,-3.2779,-3.507,-3.5689,-3.5139,-3.3085,-3.302,-3.2307,-3.0139,-3.0081,-3.0235,-3.0378,-3.1783,-3.2951,-3.3711,-3.4954,-3.5712,-3.5884,-3.4552,-3.3633,-3.3146,-3.2641,-3.238,-3.2412,-3.392,-3.4205,-3.346,-3.4227,-3.4562,-3.4541,-3.5192,-3.5538,-3.5526,-3.5526,-3.5939,-3.6559,-3.6559,-3.6574,-3.6638,-3.6988,-3.6733,-3.6288,0.0,0.0,0.0,0.0,0.0,0.0,0.0,0.0,0.0,0.0,0.0,0.0,0.0,0.0,0.0,0.0,0.0,0.0,0.0,0.0,-0.3204,-0.3996,-0.4755,-0.5293,-0.5615,-0.4986,-0.4703,-0.4789,-0.6482,-0.7118,-0.6864,-1.0225,-1.1659,-1.1441,-1.2489,-1.2341,-1.1241,-1.0067,-0.9418,-0.9083,-0.8775,-0.8909,-0.9203,-0.8354,-0.7906,0.0,0.0,0.0,0.0,0.0,0.0,0.0,-0.8134,-0.8738,-0.9231,-0.9806,-1.0891,-1.2074,-1.2864,-1.421,-1.5858,-1.7809,-2.0312,-2.2613,-2.3761,-2.5489,-2.701,-2.7684,-2.8217,-2.8456,-2.8135,-2.8024,-2.8615,-3.0557,-3.108,-3.2219,-3.4998,-3.5248,-3.4829,-3.4036,-3.3296,-3.2263,-3.0881,-2.9997,-2.9885,-3.0762,-3.1703,-3.256,-3.3375,-3.5062,-3.5506,-3.4411,-3.4267,-3.3737,-3.2834,-3.2284,-3.2158,-3.2412,-3.3058,-3.3409,-3.3533,-3.461,-3.4909,-3.4509,-3.4668,-3.489,-3.5145,-3.5145,-3.5573,-3.6209,-3.6209,-3.6368,-3.6638,-3.6988,-3.699,-3.6972,0.0,0.0,0.0,0.0,0.0,0.0,0.0,0.0,0.0,0.0,0.0,0.0,0.0,0.0,0.0,0.0,0.0,0.0,0.0,0.0,-0.3384,-0.4257,-0.5044,-0.5362,-0.5172,-0.4567,-0.417,-0.402,-0.5307,-0.6307,-0.7124,-0.9995,-1.1572,-1.2043,-1.2904,-1.2438,-1.096,-1.0326,-0.9676,-0.9062,-0.9281,-0.9285,-0.9114,-0.8652,-0.7929,-0.7129,-0.6692,0.0,0.0,0.0,0.0,0.0,0.0,0.0,-0.8378,-0.9552,-1.0651,-1.1815,-1.3414,-1.512,-1.6967,-1.9199,-2.1086,-2.2585,-2.3373,-2.4631,-2.5843,-2.6581,-2.7694,-2.8408,-2.8024,-2.8088,-2.8728,-3.0386,-3.0856,-3.1884,-3.4417,-3.4832,-3.4691,-3.4066,-3.3686,-3.2752,-3.0935,-3.038,-3.0211,-3.0458,-3.1489,-3.2439,-3.3214,-3.4877,-3.5041,-3.3322,-3.3605,-3.3137,-3.1855,-3.1741,-3.1645,-3.1542,-3.2762,-3.3516,-3.3848,-3.4423,-3.4593,-3.4509,-3.4509,-3.47,-3.499,-3.499,-3.5419,-3.6085,-3.5754,-3.5638,-3.573,-3.6199,-3.609,-3.5852,0.0,0.0,0.0,0.0,0.0,0.0,0.0,0.0,0.0,0.0,0.0,0.0,0.0,0.0,0.0,0.0,0.0,0.0,0.0,0.0,0.0,-0.4375,-0.5017,-0.5172,-0.4765,-0.4317,-0.3886,-0.3466,-0.4034,-0.5561,-0.7967,-0.9637,-1.1313,-1.2953,-1.3328,-1.2576,-1.0982,-1.0658,-0.9946,-0.9066,-0.955,-0.9353,-0.8776,-0.8764,-0.7806,-0.6463,-0.6547,-0.651,-0.6439,-0.6685,0.0,0.0,0.0,0.0,-0.743,-0.9205,-1.0301,-1.1427,-1.3688,-1.5842,-1.7996,-2.0361,-2.1216,-2.1744,-2.2628,-2.3624,-2.4547,-2.5272,-2.6775,-2.7849,-2.7643,-2.7786,-2.8451,-3.0055,-3.0577,-3.1545,-3.3714,-3.4359,-3.439,-3.3842,-3.396,-3.3264,-3.1133,-3.1007,-3.0795,-3.0128,-3.1443,-3.2525,-3.3081,-3.4693,-3.4727,-3.2861,-3.3038,-3.2522,-3.1098,-3.1239,-3.1158,-3.0845,-3.275,-3.3796,-3.3998,-3.4007,-3.4141,-3.4334,-3.4334,-3.4557,-3.4895,-3.4895,-3.5399,-3.6041,-3.5476,-3.5176,-3.5128,-3.5653,-3.5315,-3.4862,0.0,0.0,0.0,0.0,0.0,0.0,0.0,0.0,0.0,0.0,-0.352,-0.3597,0.0,0.0,0.0,0.0,0.0,0.0,0.0,0.0,0.0,-0.3988,-0.4513,-0.4727,-0.4545,-0.3973,-0.3696,-0.3755,-0.4181,-0.579,-0.8518,-0.9567,-1.085,-1.2224,-1.2307,-1.1823,-1.0895,-0.9262,-0.8479,-0.8295,-0.7749,-0.7836,-0.8197,-0.7351,-0.6886,-0.6607,-0.6224,-0.6225,-0.6455,-0.6892,-0.7215,0.0,0.0,0.0,-0.7531,-0.8045,-0.9365,-1.0787,-1.1373,-1.4122,-1.7395,-1.973,-2.0762,-2.1274,-2.1698,-2.2581,-2.3491,-2.4177,-2.5683,-2.6995,-2.7232,-2.7057,-2.7654,-2.9915,-3.012,-3.082,-3.3314,-3.3467,-3.3546,-3.4054,-3.3651,-3.3169,-3.2713,-3.1921,-3.1254,-3.0787,-3.2178,-3.2959,-3.2667,-3.4747,-3.523,-3.3679,-3.3357,-3.2782,-3.1859,-3.127,-3.1229,-3.1724,-3.3002,-3.3439,-3.3194,-3.3855,-3.3961,-3.3619,-3.3619,-3.3985,-3.4573,-3.4573,-3.5176,-3.6069,-3.5984,-3.6142,-3.6395,-3.6745,-3.6664,-3.6348,0.0,0.0,0.0,0.0,0.0,0.0,0.0,0.0,0.0,0.0,0.0,-0.358,0.0,0.0,0.0,0.0,0.0,0.0,0.0,0.0,0.0,-0.3891,-0.4118,-0.4162,-0.4001,-0.3625,-0.3641,-0.4083,-0.4114,-0.606,-0.9785,-0.9933,-1.1171,-1.3245,-1.273,-1.2007,-1.1047,-0.932,-0.8355,-0.7929,-0.7458,-0.7706,-0.8275,-0.7425,-0.728,-0.745,-0.6669,-0.6462,-0.6652,-0.7194,-0.7532,-0.7722,-0.7722,0.0,0.0,0.0,-0.9085,-1.0647,-1.3223,-1.5617,-1.7982,-2.0338,-2.1308,-2.1653,-2.1617,-2.2395,-2.3195,-2.3481,-2.4443,-2.5547,-2.6485,-2.6518,-2.7004,-2.8823,-2.9344,-3.0227,-3.2354,-3.3089,-3.3558,-3.4076,-3.4101,-3.3681,-3.2819,-3.232,-3.1838,-3.1279,-3.2054,-3.2752,-3.3261,-3.4602,-3.4895,-3.3831,-3.3806,-3.3127,-3.1731,-3.1585,-3.1561,-3.1633,-3.2319,-3.2633,-3.269,-3.3259,-3.3508,-3.3492,-3.3492,-3.3873,-3.4509,-3.4509,-3.5017,-3.58,-3.5603,-3.5533,-3.5609,-3.6092,-3.5953,-3.5683,0.0,0.0,0.0,0.0,0.0,0.0,0.0,0.0,0.0,0.0,0.0,0.0,0.0,0.0,0.0,0.0,0.0,0.0,0.0,0.0,0.0,-0.373,-0.3725,-0.3638,-0.3452,-0.3454,-0.3646,-0.4022,-0.4609,-0.6815,-1.0529,-1.0778,-1.225,-1.4686,-1.3571,-1.2468,-1.1402,-0.9827,-0.8738,-0.8069,-0.7861,-0.8072,-0.848,-0.8297,-0.8489,-0.869,-0.7603,-0.7181,-0.7193,-0.7615,-0.781,-0.7898,-0.8074,-0.831,0.0,0.0,0.0,-1.0124,-1.4234,-1.5984,-1.7253,-1.9691,-2.0902,-2.1462,-2.1312,-2.2148,-2.3082,-2.35,-2.3854,-2.4533,-2.6007,-2.6136,-2.6536,-2.7957,-2.8909,-2.9978,-3.1561,-3.27,-3.3521,-3.3778,-3.4083,-3.3854,-3.2733,-3.2646,-3.2445,-3.1935,-3.2316,-3.3006,-3.4026,-3.4763,-3.4886,-3.4264,-3.428,-3.3491,-3.1803,-3.1729,-3.1624,-3.1395,-3.1843,-3.2195,-3.2428,-3.2938,-3.3266,-3.3492,-3.3492,-3.3873,-3.4509,-3.4509,-3.4986,-3.572,-3.5455,-3.528,-3.5248,-3.5804,-3.5589,-3.5198,0.0,0.0,0.0,0.0,0.0,0.0,0.0,0.0,0.0,0.0,0.0,0.0,-0.3514,-0.3669,-0.3679,-0.3421,0.0,0.0,0.0,0.0,0.0,-0.3323,-0.3277,0.0,-0.3034,-0.3587,-0.3663,-0.3263,-0.618,-0.8443,-1.0079,-1.2293,-1.4357,-1.6129,-1.4465,-1.3114,-1.1964,-1.0476,-0.9453,-0.8836,-0.8836,-0.8682,-0.8646,-1.0001,-1.0553,-1.0389,-0.9069,-0.8477,0.0,0.0,-0.7996,-0.7911,-0.8554,-0.8764,-0.8658,0.0,0.0,0.0,-1.2069,-1.3029,-1.3682,-1.6292,-1.8466,-1.9991,-2.0299,-2.1533,-2.3064,-2.4593,-2.4483,-2.4579,-2.6178,-2.6011,-2.6198,-2.7923,-2.9084,-3.0151,-3.129,-3.2294,-3.295,-3.295,-3.3077,-3.3108,-3.2893,-3.3,-3.3033,-3.3014,-3.3688,-3.4307,-3.483,-3.5559,-3.5792,-3.5401,-3.4677,-3.3754,-3.2537,-3.1478,-3.109,-3.1395,-3.22,-3.2498,-3.2412,-3.3197,-3.3547,-3.3492,-3.3492,-3.3873,-3.4509,-3.4509,-3.5129,-3.6082,-3.6025,-3.6215,-3.6532,-3.6897,-3.6596,-3.6057,0.0,0.0,0.0,0.0,0.0,0.0,0.0,0.0,0.0,0.0,0.0,0.0,0.0,-0.3363,-0.3319,-0.3212,-0.3202,0.0,0.0,0.0,0.0,-0.311,-0.3002,-0.2918,-0.287,-0.3085,-0.3612,-0.449,-0.5593,-0.7735,-1.0843,-1.1687,-1.3186,-1.5099,-1.4196,-1.3577,-1.3028,-1.0692,-0.9637,-0.9504,-0.9081,-0.9582,-1.0651,-1.0917,-1.1678,-1.2476,-1.1393,0.0,0.0,0.0,0.0,0.0,0.0,0.0,-0.9232,-0.8456,-0.8751,-0.969,-1.1442,-1.2581,-1.385,-1.6133,-1.814,-1.9632,-1.9914,-2.1302,-2.269,-2.3279,-2.3424,-2.3822,-2.5055,-2.527,-2.5546,-2.6389,-2.7949,-2.9226,-2.9906,-3.1646,-3.284,-3.284,-3.3114,-3.318,-3.2931,-3.2938,-3.2873,-3.2681,-3.2685,-3.3225,-3.4407,-3.4499,-3.4845,-3.5504,-3.523,-3.426,-3.2609,-3.1228,-3.0696,-3.1083,-3.159,-3.2016,-3.2412,-3.2689,-3.309,-3.3492,-3.3492,-3.3746,-3.4207,-3.4414,-3.4859,-3.5419,-3.5923,-3.6177,-3.6304,-3.6431,-3.632,-3.6098,0.0,0.0,0.0,0.0,0.0,0.0,0.0,0.0,0.0,-0.3365,0.0,0.0,0.0,0.0,-0.3504,-0.3324,-0.3266,-0.3237,-0.324,-0.2984,-0.2875,-0.2959,-0.2838,-0.2781,-0.2838,-0.3052,-0.3606,-0.45,-0.5578,-0.7573,-1.0381,-1.1247,-1.2649,-1.4357,-1.3588,-1.3491,-1.3803,-1.1607,-1.0615,-1.0485,-1.0222,-1.0777,-1.1851,-1.249,-1.3276,-1.3921,0.0,0.0,0.0,0.0,0.0,0.0,0.0,0.0,0.0,0.0,-0.8991,-0.9812,-1.0483,-1.1663,-1.3262,-1.5433,-1.6876,-1.817,-1.9608,-2.0803,-2.1917,-2.2944,-2.3191,-2.3681,-2.5081,-2.5367,-2.5456,-2.5595,-2.6999,-2.8386,-2.9101,-3.0997,-3.2452,-3.2762,-3.307,-3.3133,-3.2931,-3.288,-3.2829,-3.2662,-3.2534,-3.2933,-3.3978,-3.4084,-3.4538,-3.5451,-3.4646,-3.3667,-3.2609,-3.0945,-3.0245,-3.0476,-3.0979,-3.1517,-3.2014,-3.2293,-3.2809,-3.3492,-3.3492,-3.3683,-3.4032,-3.4366,-3.4716,-3.5054,-3.5701,-3.5923,-3.5939,-3.6066,-3.6034,-3.5907,0.0,0.0,0.0,0.0,0.0,0.0,0.0,0.0,-0.3116,-0.3138,0.0,0.0,0.0,0.0,0.0,-0.3773,-0.3609,-0.335,-0.2955,-0.2783,-0.2765,-0.2891,0.0,0.0,-0.2891,-0.3557,-0.3653,-0.3144,-0.6307,-0.8069,-0.8559,-1.1118,-1.2964,-1.404,-1.271,-1.2862,-1.404,-1.3096,-1.233,-1.1781,-1.2281,-1.2222,-1.2115,-1.4795,-1.5352,-1.4679,-1.4428,-1.3908,0.0,-1.3175,0.0,0.0,0.0,0.0,0.0,0.0,0.0,0.0,0.0,0.0,0.0,-1.3794,-1.4469,-1.5512,-1.9168,-1.9907,-2.0711,-2.3716,-2.3865,-2.408,-2.6271,-2.6265,-2.5854,-2.5577,-2.6485,-2.7675,-2.8941,-3.0416,-3.1727,-3.2618,-3.285,-3.2912,-3.288,-3.2912,-3.2976,-3.3106,-3.3384,-3.3622,-3.3714,-3.4452,-3.5061,-3.5436,-3.2928,-3.1908,-3.252,-3.0716,-2.9712,-2.961,-3.0438,-3.0971,-3.1201,-3.2014,-3.2753,-3.3476,-3.3476,-3.3683,-3.4016,-3.4366,-3.47,-3.5006,-3.543,-3.5617,-3.5665,-3.5971,-3.5875,-3.5665,0.0,0.0,0.0,0.0,0.0,0.0,-0.3634,-0.3423,-0.3419,0.0,0.0,0.0,-0.3861,-0.429,-0.4559,-0.4494,-0.4202,-0.3847,-0.3505,-0.3036,-0.276,-0.2751,-0.2766,-0.2775,-0.2761,-0.35,-0.3971,-0.4119,-0.5879,-0.7353,-0.8536,-0.9789,-1.0928,-1.1899,-1.204,-1.2029,-1.1811,-1.0885,-1.1359,-1.2678,-1.219,-1.3112,-1.4906,-1.5869,-1.6848,-1.7707,0.0,-1.7196,-1.66,0.0,-1.5226,-1.3896,0.0,0.0,0.0,0.0,0.0,0.0,-0.9071,0.0,0.0,0.0,0.0,0.0,-1.534,-1.7101,-1.8823,-2.0404,-2.1201,-2.2028,-2.3446,-2.4283,-2.4642,-2.4172,-2.6154,-2.7635,-2.7299,-2.9352,-3.0996,-3.1262,-3.2469,-3.3165,-3.2931,-3.3102,-3.3191,-3.2957,-3.304,-3.3341,-3.3979,-3.4298,-3.4263,-3.3831,-3.2403,-3.1398,-3.1021,-3.0187,-2.9602,-2.9252,-2.9746,-3.0269,-3.084,-3.1324,-3.212,-3.3151,-3.3381,-3.354,-3.3667,-3.4271,-3.4557,-3.4716,-3.5335,-3.5617,-3.5589,-3.5685,-3.5669,-3.5589,0.0,0.0,0.0,0.0,0.0,0.0,-0.4191,-0.4113,-0.4144,0.0,0.0,0.0,-0.463,-0.5052,-0.5231,-0.5022,-0.4726,-0.4286,-0.3689,-0.3254,-0.2913,-0.2709,-0.3117,-0.3319,-0.3284,-0.4098,-0.4618,-0.479,-0.5948,-0.6933,-0.7761,-0.8828,-0.9698,-1.0421,-1.0539,-1.0846,-1.1134,-0.9532,-1.0261,-1.2572,-1.3055,-1.4282,-1.5963,-1.7129,-1.8033,-1.8788,-1.9235,0.0,-1.8551,-1.8355,-1.6979,0.0,0.0,0.0,0.0,0.0,0.0,0.0,0.0,0.0,0.0,-1.1299,0.0,0.0,-1.4465,-1.5727,-1.7025,-1.8872,-2.0006,-2.1075,-2.2386,-2.3446,-2.4078,-2.3869,-2.5471,-2.6629,-2.6328,-2.7983,-2.9523,-3.0351,-3.1537,-3.2342,-3.2579,-3.2766,-3.2735,-3.2361,-3.2534,-3.3026,-3.385,-3.3797,-3.373,-3.3661,-3.2609,-3.1668,-3.0906,-3.0029,-2.9174,-2.8402,-2.8732,-2.9088,-2.9469,-3.0644,-3.1657,-3.2482,-3.3211,-3.3492,-3.354,-3.4223,-3.4509,-3.4573,-3.5303,-3.5617,-3.5617,-3.5617,-3.5617,-3.5617,0.0,0.0,0.0,-0.3792,-0.4259,-0.4654,-0.4659,-0.4925,-0.5058,0.0,-0.5147,-0.5469,-0.5827,-0.6138,-0.6095,-0.554,-0.5241,-0.4741,-0.3927,-0.3547,-0.3198,-0.2866,-0.3679,-0.4121,-0.4094,-0.5076,-0.55,-0.5335,-0.6358,-0.6861,-0.6902,-0.8216,-0.902,-0.9374,-0.8809,-0.9517,-1.1007,-0.9042,-0.9612,-1.2014,-1.4186,-1.5385,-1.6135,-1.8404,-1.9113,-1.902,-1.9922,-2.0028,-1.9701,-1.9807,-1.8116,0.0,0.0,0.0,0.0,0.0,-1.1012,0.0,0.0,0.0,0.0,0.0,-1.2211,0.0,-1.5005,-1.5173,-1.5446,-1.8032,-1.9243,-2.0269,-2.1836,-2.288,-2.354,-2.372,-2.43,-2.4985,-2.5746,-2.6604,-2.7798,-2.9574,-3.0339,-3.1061,-3.1955,-3.2137,-3.2046,-3.1692,-3.2096,-3.2674,-3.3418,-3.3203,-3.3392,-3.4075,-3.3125,-3.2276,-3.1559,-3.0053,-2.8666,-2.74,-2.7646,-2.7707,-2.7737,-2.9898,-3.1138,-3.1716,-3.2805,-3.3363,-3.354,-3.4191,-3.4477,-3.4573,-3.5303,-3.5617,-3.5617,-3.5617,-3.5617,-3.5617,0.0,0.0,0.0,-0.4733,-0.4863,-0.5101,-0.5634,-0.536,-0.5365,-0.6133,-0.6179,-0.6341,-0.6855,-0.6681,-0.6569,-0.6672,-0.6045,-0.5605,-0.5528,-0.439,-0.3732,-0.3816,-0.4207,-0.432,-0.4109,-0.5844,-0.6566,-0.616,-0.6919,-0.7495,-0.7914,-0.8203,-0.8268,-0.8177,-0.8611,-0.8635,-0.8413,-1.0034,-1.1427,-1.2637,-1.334,-1.5224,-1.7759,-1.9218,-2.0399,-2.1325,-2.1316,-2.1375,-2.1368,-2.042,-1.8851,-1.7021,0.0,0.0,0.0,-1.2623,0.0,0.0,0.0,0.0,0.0,0.0,-1.2986,0.0,-1.2564,-1.3568,-1.4701,-1.4686,-1.5462,-1.6465,-1.7605,-1.9522,-2.0776,-2.0338,-2.1857,-2.349,-2.4695,-2.5993,-2.7048,-2.7693,-2.9493,-3.0766,-3.095,-3.1722,-3.2168,-3.2077,-3.2466,-3.2664,-3.2644,-3.3129,-3.3275,-3.2952,-3.2697,-3.212,-3.1154,-2.9894,-2.8666,-2.74,-2.7083,-2.7058,-2.7336,-2.8349,-2.9712,-3.1323,-3.1838,-3.2595,-3.3508,-3.3937,-3.4271,-3.4573,-3.5303,-3.5617,-3.5617,-3.5617,-3.5617,-3.5617,0.0,0.0,0.0,-0.5152,-0.5536,-0.5946,-0.6335,-0.6276,-0.638,-0.6883,-0.7002,-0.7138,-0.7317,-0.7176,-0.7067,-0.7095,-0.6975,-0.6717,-0.6333,-0.5986,-0.5651,-0.5313,-0.5929,-0.6192,-0.6001,-0.7549,-0.8075,-0.75,-0.8039,-0.8146,-0.786,-0.8,-0.8282,-0.8696,-0.8491,-0.9035,-1.0109,-1.0431,-1.1603,-1.3386,-1.5007,-1.6999,-1.9147,-2.06,-2.1679,-2.2439,-2.2291,-2.2238,-2.2004,-2.065,-1.961,0.0,-1.6994,-1.65,-1.6152,0.0,-1.4397,-1.4696,0.0,0.0,0.0,-1.3728,0.0,0.0,0.0,-1.3645,-1.4201,-1.4747,-1.4981,-1.5486,-1.6765,-1.7755,-1.8694,-1.9566,-2.052,-2.1752,-2.3512,-2.4304,-2.5057,-2.6012,-2.7307,-2.8223,-2.8546,-2.9772,-3.0843,-3.1556,-3.194,-3.2227,-3.2333,-3.2879,-3.2878,-3.2317,-3.2636,-3.2322,-3.1321,-2.9724,-2.8618,-2.7979,-2.6556,-2.6047,-2.64,-2.7474,-2.8642,-2.9987,-3.1163,-3.2109,-3.2876,-3.365,-3.4112,-3.4334,-3.5033,-3.5303,-3.5335,-3.551,-3.5748,-3.5835,-0.4112,0.0,0.0,-0.5309,-0.5987,-0.66,-0.6747,-0.7024,-0.7375,-0.7698,-0.8072,-0.8348,-0.8408,-0.8444,-0.8518,-0.8659,-0.8662,-0.8532,-0.8223,-0.8186,-0.7952,-0.7437,-0.806,-0.8388,-0.8265,-0.9236,-0.9396,-0.8715,-0.8866,-0.8514,-0.7715,-0.7848,-0.8442,-0.939,-0.8657,-0.9837,-1.2293,-1.0954,-1.1942,-1.4667,-1.7283,-1.8725,-1.9511,-2.1403,-2.2311,-2.2586,-2.2813,-2.2672,-2.2198,-2.0957,-2.0464,-2.005,-1.8264,-1.7956,0.0,0.0,0.0,0.0,0.0,0.0,0.0,0.0,0.0,-1.4567,0.0,0.0,0.0,-1.5128,-1.4985,-1.5043,-1.627,-1.6323,-1.6829,-1.8769,-1.9007,-1.9731,-2.1921,-2.1974,-2.2501,-2.4446,-2.507,-2.5571,-2.6236,-2.7598,-2.8999,-3.0299,-3.075,-3.1225,-3.18,-3.2301,-3.2452,-3.2195,-3.273,-3.2633,-3.1891,-2.9792,-2.8648,-2.848,-2.6168,-2.5237,-2.5531,-2.6806,-2.7808,-2.8693,-3.0536,-3.164,-3.2185,-3.3405,-3.3905,-3.3985,-3.4705,-3.499,-3.5038,-3.5446,-3.5878,-3.6112,-0.4101,-0.4672,0.0,0.0,-0.5877,-0.6407,-0.658,0.0,-0.7575,-0.9136,-1.0037,-1.082,-1.1567,-1.1821,-1.248,-1.3808,-1.2148,-1.1855,-1.3831,-1.1217,0.0,0.0,-0.9989,-0.9603,-0.9582,-0.9997,-0.9864,-0.9139,-0.8413,-0.8203,-0.8466,-0.8072,-0.8216,-0.8836,-0.954,-1.0383,-1.1339,-1.237,-1.4492,-1.7277,-1.8688,-1.842,-1.7446,-2.02,-2.1283,-2.1443,-2.2519,-2.2672,-2.2352,0.0,-2.1443,-2.0828,0.0,-1.9372,-1.9093,-1.8344,0.0,0.0,0.0,0.0,0.0,0.0,-1.6874,0.0,0.0,0.0,-1.4429,-1.301,0.0,-1.3105,-1.3301,0.0,0.0,-1.5403,-1.591,-1.7099,-1.9533,-1.9036,-1.9724,-2.3174,-2.4185,-2.4951,-2.5789,-2.6488,-2.7225,-2.8103,-2.8738,-2.9403,-3.0122,-3.1213,-3.2111,-3.2778,-3.2935,-3.2997,-3.2918,-3.041,-2.8793,-2.8135,-2.6071,-2.5237,-2.5531,-2.5968,-2.706,-2.8653,-2.9653,-3.0858,-3.217,-3.3138,-3.354,-3.3635,-3.4594,-3.499,-3.5038,-3.5446,-3.5878,-3.6112,-0.4683,-0.5172,0.0,0.0,-0.7233,-0.8324,-0.8931,-1.0329,-1.1403,-1.1716,-1.2553,-1.3236,-1.3554,-1.3361,-1.3737,-1.5133,-1.468,-1.4478,-1.4812,-1.3756,0.0,0.0,0.0,0.0,0.0,-1.147,0.0,-1.0138,-0.9102,-0.8638,-0.8708,-0.8436,-0.9106,-1.0577,-1.1131,-1.2481,-1.4379,-1.4612,-1.5527,-1.6966,-1.8344,-1.8233,-1.766,-2.1299,-2.2552,-2.2432,-2.2786,-2.2813,-2.2612,0.0,-2.1683,0.0,0.0,0.0,0.0,-1.9426,0.0,0.0,0.0,0.0,0.0,0.0,0.0,0.0,-1.5088,0.0,-1.4135,0.0,0.0,0.0,0.0,0.0,0.0,0.0,-1.5905,-1.6809,-1.8196,-1.8239,-1.9128,-2.181,-2.197,-2.2485,-2.3965,-2.4518,-2.5379,-2.6764,-2.7397,-2.8161,-2.9254,-3.0337,-3.1157,-3.1677,-3.2264,-3.2787,-3.3144,-3.072,-2.9439,-2.9345,-2.6742,-2.55,-2.5518,-2.5638,-2.6502,-2.7921,-2.9301,-3.0477,-3.1482,-3.2901,-3.3603,-3.3899,-3.4773,-3.4944,-3.4795,-3.5367,-3.6052,-3.6513,-0.5711,0.0,0.0,-0.6838,-0.8318,-0.9824,-1.0937,-1.2645,-1.3892,-1.4168,-1.4945,-1.5691,-1.6326,-1.6142,-1.6599,-1.8114,-1.8076,-1.7766,-1.7173,-1.6628,-1.6109,0.0,0.0,0.0,0.0,0.0,0.0,-1.096,-0.9823,-0.9269,-0.9285,-0.903,-1.0011,-1.2029,-1.2639,-1.4322,-1.67,-1.6662,-1.7128,-1.7956,-1.904,-1.9479,-1.9786,-2.2358,-2.33,-2.3265,-2.3073,-2.3027,-2.2907,-2.2091,-2.201,0.0,-2.1315,-2.0953,-2.0708,0.0,0.0,0.0,-1.881,0.0,0.0,0.0,0.0,0.0,0.0,0.0,0.0,0.0,0.0,0.0,0.0,0.0,0.0,0.0,0.0,-1.6318,-1.7276,-1.7306,-1.805,-2.0233,-2.0463,-2.0989,-2.2467,-2.2808,-2.3672,-2.5442,-2.5818,-2.6725,-2.8427,-2.9412,-3.0268,-3.0984,-3.1839,-3.267,-3.3449,-3.1059,-2.9975,-3.0132,-2.7215,-2.5672,-2.5398,-2.5478,-2.6183,-2.7473,-2.9295,-3.0418,-3.1155,-3.306,-3.3971,-3.4282,-3.5096,-3.5249,-3.5114,-3.574,-3.647,-3.6973,-0.718,-0.751,0.0,-0.7167,-0.8482,-1.0108,-1.1641,-1.2106,-1.3299,-1.6115,-1.7037,-1.8307,-2.065,-2.1438,-2.2642,-2.4711,-2.3117,-2.2299,-2.2971,-2.0127,-1.8503,0.0,0.0,-1.5861,0.0,0.0,0.0,-1.1372,-1.0247,-0.9968,-1.0519,-0.9941,-1.0595,-1.2358,-1.378,-1.5261,-1.6794,-1.8196,-1.9973,-2.1804,-2.1857,-2.2899,-2.4199,-2.2645,-2.2579,-2.3292,-2.3278,-2.3278,0.0,-2.2571,-2.2592,0.0,0.0,0.0,0.0,0.0,0.0,0.0,0.0,0.0,0.0,-1.7836,0.0,0.0,0.0,0.0,-1.5271,0.0,0.0,0.0,0.0,0.0,0.0,0.0,0.0,0.0,0.0,-1.5539,-1.5591,-1.8437,-2.035,-2.1579,-2.1894,-2.1711,-2.2231,-2.3844,-2.3757,-2.4751,-2.7403,-2.8302,-2.9585,-3.1434,-3.1946,-3.2829,-3.4162,-3.1576,-3.012,-2.9774,-2.707,-2.5561,-2.5104,-2.5384,-2.6264,-2.7689,-2.9708,-3.0947,-3.1742,-3.3863,-3.4752,-3.4765,-3.5557,-3.6088,-3.6392,-3.6814,-3.7205,-3.7361,0.0,0.0,-1.0389,-0.9175,-1.0406,-1.2368,-1.4722,-1.6145,-1.7516,-1.9109,-1.9853,-2.1107,-2.3423,-2.2636,-2.334,-2.6818,-2.5024,-2.3948,-2.4472,-2.2572,-2.1256,-2.0962,0.0,-1.8251,0.0,0.0,0.0,0.0,-1.1925,-1.1385,-1.2033,-1.1358,-1.1899,-1.3561,-1.5231,-1.6794,-1.8236,-1.9746,-2.0655,-2.1208,-2.1783,-2.3442,-2.5358,-2.3981,-2.3647,-2.3861,-2.3425,-2.3292,-2.3225,-2.2846,-2.2645,-2.2539,-2.2338,-2.2004,-2.1657,-2.1489,-2.1368,-2.1181,0.0,0.0,-2.0655,-1.8798,0.0,0.0,0.0,0.0,0.0,0.0,0.0,0.0,0.0,0.0,0.0,0.0,0.0,0.0,0.0,-1.4109,-1.4728,-1.7206,-1.8921,-1.9825,-1.9674,-1.9968,-2.0858,-2.247,-2.2482,-2.3783,-2.6877,-2.8011,-2.9373,-3.1118,-3.1858,-3.2832,-3.4115,-3.2049,-3.0823,-3.0435,-2.8351,-2.7093,-2.6634,-2.7233,-2.7965,-2.8915,-3.0681,-3.1839,-3.2548,-3.3888,-3.4834,-3.545,-3.4876,-3.5016,-3.5665,-3.6642,-3.7248,-3.7447,-1.0925,-1.1655,-1.1915,-1.07,-1.2181,-1.4284,-1.653,-1.8759,-2.0409,-2.0981,-2.2042,-2.3356,-2.4977,-2.424,-2.4894,-2.8047,-2.6812,-2.5739,-2.5416,-2.4432,-2.3442,-2.2498,-2.1176,-2.0431,0.0,0.0,0.0,0.0,-1.3957,-1.3346,-1.3688,-1.2802,-1.3214,-1.4776,-1.6219,-1.7635,-1.901,-2.0784,-2.1657,-2.189,-2.276,-2.4151,-2.5596,-2.481,-2.4516,-2.4422,-2.3728,-2.3487,-2.342,-2.3041,-2.2806,-2.2692,-2.2605,-2.2378,-2.2084,-2.1823,-2.1743,-2.1636,-2.1154,-2.1234,0.0,-1.9599,-1.8798,0.0,-1.6462,0.0,-1.6219,0.0,0.0,0.0,0.0,0.0,0.0,0.0,0.0,0.0,0.0,-1.3688,-1.4772,-1.6291,-1.7694,-1.8636,-1.8894,-1.8852,-1.9466,-2.1136,-2.1179,-2.2571,-2.597,-2.7496,-2.9101,-3.0916,-3.1384,-3.2432,-3.4095,-3.1935,-3.0822,-3.077,-2.9111,-2.8079,-2.7659,-2.8395,-2.9147,-3.0015,-3.1471,-3.2537,-3.3242,-3.4252,-3.5233,-3.6008,-3.4841,-3.4842,-3.551,-3.5751,-3.6383,-3.6929,-1.2344,-1.2404,-1.2342,-1.1929,-1.3711,-1.5677,-1.7089,-1.9663,-2.1525,-2.1728,-2.3465,-2.4921,-2.5383,-2.6093,-2.7162,-2.8624,-2.8418,-2.7669,-2.6307,-2.5852,-2.5037,0.0,-2.2905,-2.2445,-2.2151,0.0,0.0,0.0,0.0,-1.5741,-1.5458,-1.4261,-1.4439,-1.5848,-1.6792,-1.7862,-1.9076,-2.1398,-2.2979,-2.3964,-2.478,-2.5141,-2.5181,-2.5115,-2.5077,-2.5021,-2.4151,-2.383,-2.3736,-2.3134,-2.31,-2.33,-2.3014,-2.2686,-2.2405,-2.2098,-2.2004,-2.197,-2.1689,-2.181,-2.1657,-2.0254,-1.9853,0.0,0.0,0.0,-1.7903,0.0,0.0,0.0,0.0,0.0,0.0,0.0,0.0,0.0,0.0,0.0,-1.5474,-1.5785,-1.6767,-1.7939,-1.9389,-1.8303,-1.817,-1.9856,-1.9795,-2.1194,-2.4676,-2.6762,-2.8776,-3.0801,-3.0687,-3.1696,-3.3998,-3.12,-3.0138,-3.077,-2.9395,-2.8588,-2.825,-2.8917,-2.9906,-3.106,-3.2133,-3.3018,-3.3862,-3.501,-3.5865,-3.6384,-3.5346,-3.5328,-3.5707,-3.4325,-3.4808,-3.6004,-1.3108,-1.4018,-1.5012,-1.5335,-1.5203,-1.5909,-1.8451,-1.9173,-2.0163,-2.2236,-2.309,-2.4202,-2.6064,-2.5085,-2.5787,-2.943,-2.8068,-2.768,-2.9167,-2.8337,0.0,-2.6974,-2.5743,-2.4847,-2.4338,-2.2686,-2.1136,-1.9653,0.0,-1.7006,-1.6698,-1.5498,-1.5234,-1.5848,-1.6981,-1.8157,-1.9415,-2.1523,-2.3447,-2.5064,-2.5077,-2.5503,-2.5959,-2.5077,-2.5024,-2.5291,-2.4409,-2.4088,-2.4035,-2.3696,-2.3629,-2.3607,-2.33,-2.3153,-2.2958,-2.2458,-2.2311,-2.2245,-2.1984,-2.1957,-2.1897,-2.1523,-2.0601,-1.9666,0.0,0.0,0.0,0.0,0.0,0.0,0.0,0.0,0.0,0.0,0.0,0.0,0.0,0.0,0.0,-1.7101,-1.6505,-1.6217,-1.7098,-1.7327,-1.7635,-1.8206,-1.9097,-2.0939,-2.4003,-2.5983,-2.804,-3.0312,-3.0517,-3.132,-3.2814,-3.083,-3.0017,-3.0423,-2.9838,-2.9689,-2.9843,-3.0856,-3.1676,-3.228,-3.3125,-3.3927,-3.471,-3.4991,-3.517,-3.5012,-3.3478,-3.204,-3.1237,-3.4402,-3.5837,-3.6307,-1.4407,-1.5861,-1.7342,-1.7956,-1.8077,-1.8389,-1.9389,-2.0199,-2.1107,-2.2128,-2.3215,-2.4204,-2.5003,-2.4419,-2.544,-2.8966,-2.7921,-2.7899,-2.9899,-2.9472,0.0,-2.8219,-2.7269,-2.644,-2.5852,-2.4356,0.0,-2.1274,0.0,-1.8196,-1.7515,-1.6192,-1.5648,-1.5861,-1.7061,-1.813,-1.9174,-2.1724,-2.3679,-2.5144,-2.5224,-2.5571,0.0,-2.5239,-2.5026,-2.5026,-2.4532,-2.4315,-2.4155,-2.391,-2.3688,-2.3554,-2.3345,-2.3233,-2.306,-2.2712,-2.2605,-2.2579,-2.2452,-2.2398,-2.2372,-2.2205,-2.1456,-2.0655,-2.0267,-1.9826,-1.9383,0.0,-1.9254,-1.9338,0.0,0.0,0.0,0.0,0.0,0.0,0.0,0.0,0.0,0.0,-1.7014,-1.6924,-1.6586,-1.6346,-1.6182,-1.608,-1.7766,-1.9697,-2.1743,-2.4927,-2.7511,-2.9269,-3.0159,-3.1195,-3.239,-3.087,-3.0235,-3.0552,-3.0439,-3.0663,-3.117,-3.2181,-3.2818,-3.3191,-3.3638,-3.4179,-3.4688,-3.4295,-3.4321,-3.4442,-3.2613,-3.0851,-2.9798,-3.2995,-3.466,-3.5482,-1.5995,-1.7769,-1.9386,-1.9786,-2.1203,-2.1861,-2.0595,-2.2044,-2.2943,-2.1907,-2.3598,-2.4415,-2.3271,-2.41,-2.5642,-2.7896,-2.798,-2.8431,-2.9712,-2.9927,-2.9566,-2.858,-2.8096,-2.7602,-2.7014,-2.5732,-2.4088,0.0,-2.0494,-1.9065,-1.7676,-1.6408,-1.5741,-1.5688,-1.6887,-1.797,-1.9038,-2.2098,-2.3879,-2.4759,-2.5304,-2.5531,-2.5558,-2.5491,-2.5144,-2.4653,-2.4613,-2.4439,-2.4222,-2.3968,-2.3714,-2.3452,-2.3425,-2.326,-2.3054,-2.2974,-2.296,-2.2947,-2.2907,-2.2893,-2.284,-2.2539,-2.2258,-2.183,-2.106,-2.0615,-2.0321,-2.0147,-1.9835,-1.9791,-2.0572,0.0,0.0,0.0,0.0,0.0,0.0,0.0,0.0,0.0,0.0,0.0,-1.7057,-1.5848,-1.4946,-1.4387,-1.6439,-1.8178,-1.9212,-2.3734,-2.685,-2.8095,-2.9566,-3.1001,-3.2464,-3.0907,-3.0467,-3.1128,-3.1054,-3.1403,-3.2189,-3.2974,-3.3477,-3.3799,-3.3799,-3.4042,-3.4342,-3.3411,-3.3379,-3.3792,-3.1943,-3.0657,-2.9998,-3.1129,-3.25,-3.404,-1.7315,-1.9361,-2.0927,-2.0237,-2.2191,-2.387,-2.4051,-2.3651,-2.3152,-2.2806,-2.3261,-2.3549,-2.3298,-2.4257,-2.5648,-2.7323,-2.8488,-2.9728,-3.1209,0.0,0.0,-3.0341,-2.9352,-2.8524,-2.7965,-2.6091,-2.4182,-2.2338,-2.0401,-1.8343,-1.6182,-1.5928,-1.5421,-1.4781,-1.6003,-1.805,-2.0788,-2.2832,-2.4342,-2.5371,-2.5478,-2.5665,-2.5864,-2.5344,-2.509,-2.497,-2.4693,-2.4572,-2.4519,-2.4466,-2.4412,-2.4332,-2.4128,-2.4008,-2.3875,-2.3394,-2.3247,-2.3193,-2.2974,-2.2893,-2.288,-2.284,-2.2565,-2.2245,-2.1844,-2.1569,-2.1433,-2.1655,-2.1043,-2.0551,-2.0727,0.0,0.0,0.0,0.0,0.0,0.0,0.0,0.0,0.0,0.0,-1.7945,-1.6989,-1.7361,-1.711,-1.5761,-1.6746,-1.8057,-1.9608,-2.2483,-2.5208,-2.7707,-2.8432,-3.0131,-3.2873,-3.002,-2.987,-3.2377,-3.1432,-3.1549,-3.26,-3.3085,-3.3477,-3.3799,-3.3799,-3.4042,-3.4342,-3.3411,-3.2327,-3.1116,-2.9684,-2.9303,-2.9703,-3.0775,-3.1699,-3.2719,-2.0284,-2.1381,-2.2465,-2.3086,-2.4756,-2.6134,-2.6432,-2.6831,-2.6526,-2.5082,-2.5142,-2.518,-2.4895,-2.5569,-2.6681,-2.8233,-2.8859,-2.9804,-3.1342,-3.0889,-3.0568,-3.0568,-2.974,-2.8991,-2.8433,-2.6693,-2.497,-2.334,-2.0828,-1.8611,-1.6727,-1.5965,-1.5194,-1.4581,-1.638,-1.8557,-2.1002,-2.2779,-2.4128,-2.5104,-2.5558,-2.5864,-2.5944,-2.5478,-2.5211,-2.5074,-2.4706,-2.4599,-2.4599,-2.4599,-2.4599,-2.4546,-2.4289,-2.4209,-2.4115,-2.3688,-2.3554,-2.3487,-2.318,-2.31,-2.306,-2.2934,-2.2645,-2.2479,-2.2711,-2.2583,-2.242,-2.259,-2.2133,-2.151,-2.0914,-1.9834,0.0,0.0,0.0,0.0,0.0,0.0,0.0,0.0,0.0,0.0,0.0,-1.8605,-1.7865,-1.4782,-1.5694,-1.6913,-1.8087,-2.0797,-2.3698,-2.6773,-2.8088,-2.98,-3.2107,-3.0634,-3.0532,-3.182,-3.1635,-3.199,-3.2729,-3.329,-3.3665,-3.3799,-3.3799,-3.3901,-3.4009,-3.2697,-3.1541,-3.0481,-2.9104,-2.8965,-2.9534,-2.9879,-3.0841,-3.241,-2.3134,-2.3522,-2.4258,-2.5891,-2.7268,-2.8241,-2.8501,-2.9947,-3.0078,-2.7345,-2.719,-2.7105,-2.6589,-2.7121,-2.8044,-2.9303,-2.9437,-3.0033,-3.1222,-3.0835,-3.056,-3.0493,-2.9887,-2.9299,-2.8711,-2.7241,-2.5705,-2.4115,-2.147,-1.9185,-1.7301,-1.627,-1.5524,-1.5177,-1.7436,-1.9412,-2.11,-2.2792,-2.4062,-2.4983,-2.5717,-2.6038,-2.6051,-2.5718,-2.5424,-2.513,-2.4836,-2.4693,-2.4679,-2.4626,-2.4599,-2.4559,-2.4369,-2.4302,-2.4235,-2.3941,-2.3897,-2.3794,-2.35,-2.3345,-2.3238,-2.302,-2.2875,-2.2869,-2.337,-2.3341,-2.3243,-2.3514,-2.3275,-2.2626,-2.1353,-2.0984,0.0,0.0,0.0,0.0,0.0,0.0,0.0,0.0,0.0,0.0,-1.8766,-1.8961,-1.765,-1.3877,-1.5002,-1.6202,-1.6996,-1.9571,-2.2408,-2.5429,-2.7362,-2.9216,-3.1031,-3.1055,-3.1231,-3.163,-3.1952,-3.2379,-3.2841,-3.3515,-3.3799,-3.3799,-3.3799,-3.3733,-3.3516,-3.2035,-3.1073,-3.0481,-2.9104,-2.8965,-2.9446,-2.9108,-3.0052,-3.1893,-2.4412,-2.5506,-2.652,-2.6707,-2.839,-2.9895,-3.0451,-3.1819,-3.1582,-2.8413,-2.7858,-2.7591,-2.7255,-2.838,-2.9255,-2.9398,-3.0626,-3.1481,-3.1623,-3.1316,-3.1022,-3.0768,-3.0194,-2.9593,-2.8961,-2.7507,-2.5798,0.0,-2.2224,-1.9709,-1.6431,-1.6844,-1.7005,-1.7045,-1.9092,-2.0708,-2.1964,-2.3474,-2.4783,-2.5877,-2.5957,-2.6158,-2.6319,-2.6065,-2.5732,-2.5438,-2.5144,-2.5037,-2.4997,-2.4693,-2.4599,-2.4599,-2.4572,-2.4559,-2.4506,-2.4249,-2.4168,-2.4102,-2.3843,-2.3527,-2.3278,-2.3252,-2.3563,-2.3772,-2.356,-2.3476,-2.3762,-2.478,-2.4688,-2.3955,-2.2451,-2.2347,-2.1994,0.0,0.0,0.0,0.0,0.0,-2.0621,-1.9566,0.0,0.0,-1.8557,-1.7561,-1.6396,-1.4936,-1.5983,-1.7221,-1.8432,-1.9702,-2.1383,-2.3583,-2.5376,-2.7546,-3.019,-2.9738,-3.0885,-3.362,-3.2599,-3.249,-3.3252,-3.3628,-3.3799,-3.3799,-3.3799,-3.3523,-3.3004,-3.1861,-3.1073,-3.0481,-2.9104,-2.8965,-2.9446,-2.9108,-2.945,-3.0316,-2.7014,-2.7201,-2.7789,-2.9219,-2.9713,-3.0408,-3.1877,-3.2746,-3.2594,-3.0733,-3.0622,-3.0496,-2.9995,-3.043,-3.0795,-3.0795,-3.1173,-3.1396,-3.1396,-3.1129,-3.0835,-3.0587,-3.0346,-2.9913,-2.9325,-2.819,-2.6827,0.0,0.0,0.0,-1.8411,-1.8263,-1.849,-1.9052,-2.0414,-2.1884,-2.338,-2.4329,-2.5304,-2.6252,-2.6252,-2.6279,-2.636,-2.6105,-2.5917,-2.5757,-2.5288,-2.5115,-2.5037,-2.4693,-2.4826,-2.5093,-2.4957,-2.5024,-2.5104,-2.481,-2.473,-2.4623,-2.4155,-2.3821,-2.366,-2.3913,-2.3639,-2.3652,-2.4794,-2.4892,-2.4936,-2.5613,-2.5116,-2.4391,-2.3788,-2.3505,-2.3257,-2.2943,0.0,0.0,0.0,0.0,0.0,-2.1128,0.0,0.0,-1.8869,-1.7958,-1.7342,-1.6999,-1.6123,-1.6083,-1.7141,-1.8908,-2.1126,-2.3839,-2.5541,-2.758,-2.9972,-2.9292,-2.9876,-3.1714,-3.0757,-3.0937,-3.2172,-3.2536,-3.3099,-3.3799,-3.3799,-3.3958,-3.4065,-3.1995,-3.1267,-3.13,-2.9377,-2.8858,-2.9219,-2.9285,-2.9566,-3.0093,-2.9165,-2.8898,-2.9272,-3.137,-3.1223,-3.133,-3.2866,-3.32,-3.3026,-3.2332,-3.2393,-3.2273,-3.1778,-3.1711,-3.1711,-3.1711,-3.1476,-3.1356,-3.1356,-3.1169,-3.0875,-3.0547,-3.0533,0.0,-2.9619,-2.8861,-2.7857,-2.664,-2.474,0.0,-2.0815,-2.0054,-2.0214,-2.1144,-2.2071,-2.3247,-2.4623,-2.5224,-2.5825,-2.6386,-2.6386,-2.6386,-2.6373,-2.6198,-2.6011,-2.581,-2.5358,-2.5211,-2.5144,-2.4733,-2.509,-2.5571,-2.5235,-2.5224,-2.5358,-2.5237,-2.5144,-2.501,-2.4676,-2.4249,-2.4004,-2.4366,-2.4142,-2.4218,-2.5725,-2.6075,-2.6115,-2.6227,-2.5683,-2.5212,-2.5225,-2.4828,-2.4522,-2.4595,0.0,0.0,0.0,-2.3399,0.0,0.0,-2.166,-2.0856,-1.9492,-1.8726,-1.826,-1.8121,-1.6956,-1.6679,-1.7684,-1.901,-2.1238,-2.4479,-2.5892,-2.757,-2.9614,-2.9228,-2.9425,-3.028,-2.9582,-2.9796,-3.0877,-3.1646,-3.2664,-3.3799,-3.3919,-3.4368,-3.4827,-3.2642,-3.1955,-3.2047,-2.9987,-2.9177,-2.9192,-2.9406,-2.9673,-3.0048,-3.0488,-3.0755,-3.1223,-3.2692,-3.2946,-3.3053,-3.336,-3.316,-3.2929,-3.2621,-3.2291,-3.1998,-3.1751,-3.1711,-3.1711,-3.1711,-3.1711,-3.1711,-3.1711,-3.1711,-3.1396,0.0,0.0,-3.0515,-2.9927,-2.9282,-2.8724,-2.8165,0.0,0.0,-2.3225,-2.2104,-2.2151,-2.3292,-2.4172,-2.4893,-2.5531,-2.6119,-2.6373,-2.6386,-2.6386,-2.6386,-2.6386,-2.6386,-2.6026,-2.5518,-2.5504,-2.5504,-2.5411,-2.4799,-2.5224,-2.5891,-2.5302,-2.5077,-2.5144,-2.5424,-2.5304,-2.5144,-2.5424,-2.4863,-2.4262,-2.4519,-2.5288,-2.5968,-2.6003,-2.6599,-2.7065,-2.668,-2.6653,-2.6676,-2.666,-2.6391,-2.5818,-2.4784,0.0,0.0,0.0,-2.2575,0.0,-2.2123,-2.1288,-2.063,-2.0386,-1.9596,-1.8714,-1.7798,-1.8908,-2.0149,-2.1286,-2.0552,-2.1677,-2.5189,-2.5949,-2.7182,-2.8984,-2.9461,-2.9893,-3.028,-2.974,-2.9496,-2.9587,-3.1265,-3.2664,-3.3816,-3.4231,-3.4607,-3.4923,-3.3914,-3.3129,-3.2464,-3.1116,-3.0149,-2.9486,-2.9486,-2.9673,-2.9913,-3.1263,-3.1764,-3.2246,-3.2915,-3.3146,-3.324,-3.3133,-3.32,-3.3093,-3.2661,-3.2688,-3.2585,-3.234,-3.2091,-3.1971,-3.1971,-3.1971,-3.1877,-3.1724,-3.1711,-3.149,-3.1102,-3.0902,-3.0608,-3.0266,-2.9646,-2.9058,-2.8457,0.0,-2.6159,-2.481,-2.4222,-2.4512,-2.5424,-2.5705,-2.6266,-2.7001,-2.6987,-2.7094,-2.7268,-2.7108,-2.6867,-2.668,-2.668,-2.644,-2.6079,-2.5917,-2.585,-2.5797,-2.5371,-2.5424,-2.5651,-2.5703,-2.5717,-2.573,-2.5824,-2.5784,-2.565,-2.5304,-2.4863,-2.4572,-2.4975,-2.479,-2.489,-2.6389,-2.7162,-2.7589,-2.7664,-2.735,-2.6962,-2.6757,-2.6613,-2.6279,-2.5437,-2.5266,0.0,-2.4103,0.0,-2.3297,-2.2461,-2.1899,-2.1376,-2.0814,-2.0078,-1.9903,-2.059,-1.9788,-1.9073,-1.8561,-2.1392,-2.3298,-2.3844,-2.6811,-2.8465,-2.8588,-2.855,-2.8441,-2.8185,-2.7473,-2.8235,-3.0375,-3.1472,-3.2967,-3.4607,-3.4453,-3.4744,-3.5265,-3.4013,-3.2987,-3.2161,-3.1219,-3.0161,-2.9232,-2.9633,-2.9833,-2.9913,-3.1938,-3.234,-3.2728,-3.3066,-3.3293,-3.3347,-3.3173,-3.32,-3.308,-3.2661,-3.2755,-3.2795,-3.2607,-3.2478,-3.2385,-3.2278,-3.2171,-3.2024,-3.1837,-3.1778,-3.153,-3.1189,-3.1049,-3.0822,-3.0574,-3.0105,-2.9633,-2.9259,-2.8257,-2.7281,-2.6333,-2.6039,-2.6253,-2.6881,-2.6881,-2.7188,-2.7682,-2.7509,-2.7468,-2.7522,-2.7376,-2.7148,-2.6974,-2.6867,-2.664,-2.6346,-2.6105,-2.5998,-2.5957,-2.5611,-2.5665,-2.5852,-2.5971,-2.6078,-2.6158,-2.6158,-2.5998,-2.577,-2.5516,-2.5024,-2.4683,-2.5116,-2.5101,-2.5512,-2.7468,-2.8012,-2.817,-2.8392,-2.7884,-2.7328,-2.7105,-2.6962,-2.6775,-2.6405,-2.621,-2.5886,-2.5217,0.0,-2.3723,0.0,0.0,-2.183,-2.1366,-2.1424,-2.1615,-2.1976,-2.1347,-2.0279,-1.8785,-2.2041,-2.4023,-2.4185,-2.724,-2.8785,-2.8632,-2.8125,-2.77,-2.7388,-2.6555,-2.7762,-3.0735,-3.1245,-3.2806,-3.5006,-3.4864,-3.507,-3.5435,-3.4772,-3.3985,-3.3125,-3.2146,-3.1094,-3.0096,-2.9958,-2.9913,-2.9913,-3.246,-3.2621,-3.2795,-3.332,-3.3414,-3.3414,-3.3414,-3.316,-3.2929,-3.2661,-3.2607,-3.2607,-3.2621,-3.2862,-3.2929,-3.2674,-3.2318,-3.2118,-3.2104,-3.1837,-3.1543,-3.1276,-3.1189,-3.1102,-3.0822,-3.0541,-3.0413,-3.0373,-2.9219,-2.8364,-2.7789,-2.7509,-2.7535,-2.7789,-2.7789,-2.7789,-2.7789,-2.7776,-2.7602,-2.7403,-2.7376,-2.7349,-2.7309,-2.6987,-2.6707,-2.6413,-2.6185,-2.6091,-2.6051,-2.5732,-2.5999,-2.64,-2.6172,-2.6265,-2.6413,-2.64,-2.5999,-2.5625,-2.5904,-2.5355,-2.4793,-2.5021,-2.6047,-2.739,-2.8815,-2.8956,-2.8809,-2.8809,-2.8233,-2.7723,-2.7707,-2.7471,-2.7291,-2.7495,-2.7219,-2.6717,-2.5947,-2.4653,-2.3737,-2.3519,-2.2666,-2.2077,-2.2128,-2.3324,-2.3562,-2.2229,-2.3218,-2.3127,-2.1319,-2.2532,-2.4027,-2.5589,-2.7219,-2.8302,-2.8855,-2.8071,-2.7648,-2.76,-2.683,-2.7948,-3.0727,-3.0727,-3.2322,-3.5109,-3.5378,-3.5515,-3.5566,-3.5943,-3.5673,-3.4935,-3.3657,-3.2697,-3.191,-3.0647,-3.0137,-3.0048,-3.2746,-3.2929,-3.2986,-3.3347,-3.3414,-3.3414,-3.3414,-3.316,-3.3009,-3.2929,-3.2728,-3.2674,-3.2902,-3.2933,-3.304,-3.3187,-3.2781,-3.2393,-3.2118,-3.1837,-3.1684,-3.157,-3.1343,-3.1196,-3.1129,-3.0835,-3.0474,-3.002,-2.9526,-2.9085,-2.8681,-2.8615,-2.8615,-2.8681,-2.8681,-2.8681,-2.8668,-2.8484,-2.835,-2.827,-2.8072,-2.7844,-2.7589,-2.7522,-2.7308,-2.7095,-2.7028,-2.7001,-2.6988,-2.6921,-2.6988,-2.7081,-2.7015,-2.6854,-2.668,-2.6453,-2.6293,-2.6106,-2.5718,-2.5908,-2.5951,-2.4985,-2.5856,-2.71,-2.7463,-2.8192,-2.8809,-2.8809,-2.8408,-2.7992,-2.7738,-2.7627,-2.7413,-2.6905,-2.6922,-2.6357,-2.4458,-2.4017,-2.3533,0.0,-2.2679,-2.3035,-2.3548,-2.3899,-2.3953,0.0,-2.3089,-2.2396,-2.1554,-2.3125,-2.4086,-2.421,-2.6883,-2.8008,-2.7342,-2.7582,-2.7375,-2.6712,-2.6693,-2.8257,-3.1103,-3.1023,-3.2778,-3.5823,-3.56,-3.5669,-3.596,-3.6063,-3.5395,-3.4349,-3.4538,-3.3894,-3.2852,-3.3055,-3.241,-3.1671,-3.2893,-3.2973,-3.3066,-3.336,-3.3414,-3.3414,-3.3414,-3.328,-3.3133,-3.3,-3.2959,-3.2946,-3.2973,-3.3093,-3.324,-3.34,-3.3,-3.2674,-3.2367,-3.2038,-3.181,-3.1724,-3.1517,-3.1423,-3.1423,-3.1009,-3.0501,-2.9913,-2.9753,-2.9526,-2.9245,-2.9245,-2.9165,-2.9001,-2.9001,-2.9001,-2.8975,-2.8724,-2.8604,-2.8577,-2.8312,-2.8085,-2.7924,-2.7749,-2.7602,-2.7483,-2.7349,-2.7309,-2.7309,-2.7309,-2.7215,-2.7094,-2.7269,-2.6974,-2.6613,-2.66,-2.64,-2.6158,-2.5798,-2.5862,-2.5941,-2.5945,-2.6485,-2.7188,-2.7814,-2.8242,-2.8402,-2.8197,-2.8042,-2.7803,-2.7511,-2.799,-2.8212,-2.7518,-2.7958,-2.7686,-2.5707,-2.5178,-2.4644,-2.3713,-2.34,-2.3504,-2.4206,-2.4393,-2.4283,-2.381,-2.3503,-2.3011,-2.2231,-2.3495,-2.3969,-2.3348,-2.6122,-2.7253,-2.6454,-2.6887,-2.6922,-2.6587,-2.7334,-2.9002,-3.1455,-3.2033,-3.3661,-3.608,-3.5874,-3.5994,-3.6337,-3.6337,-3.6116,-3.5751,-3.546,-3.5024,-3.4471,-3.4209,-3.3601,-3.3073,-3.2969,-3.3013,-3.312,-3.3374,-3.3414,-3.3414,-3.3414,-3.3374,-3.3253,-3.3013,-3.316,-3.32,-3.3,-3.32,-3.336,-3.3414,-3.3187,-3.2955,-3.2621,-3.2265,-3.1971,-3.1724,-3.1711,-3.1711,-3.1711,-3.1089,-3.0555,-3.0047,-2.9953,-2.9793,-2.9553,-2.9553,-2.9419,-2.9121,-2.9121,-2.9121,-2.9108,-2.8858,-2.8738,-2.8711,-2.8393,-2.8259,-2.8219,-2.7883,-2.7762,-2.7736,-2.7523,-2.7443,-2.7443,-2.7496,-2.7268,-2.7081,-2.7375,-2.7068,-2.664,-2.6881,-2.6573,-2.6158,-2.6038,-2.5596,-2.552,-2.6989,-2.7268,-2.7431,-2.8642,-2.8657,-2.8286,-2.7748,-2.7698,-2.7621,-2.7099,-2.7976,-2.8676,-2.8272,-2.8844,-2.882,-2.7294,0.0,-2.5669,-2.4975,-2.4021,-2.3756,-2.4621,-2.4974,-2.4736,-2.376,-2.4221,-2.4126,-2.3098,-2.3823,-2.3941,-2.3255,-2.5409,-2.6397,-2.6051,-2.6305,-2.6533,-2.6827,-2.8017,-2.9669,-3.1762,-3.2943,-3.4429,-3.6097,-3.6148,-3.6337,-3.6587,-3.6679,-3.709,-3.7605,-3.6437,-3.6181,-3.6286,-3.5146,-3.461,-3.4435,-3.2969,-3.3173,-3.336,-3.34,-3.3414,-3.3414,-3.3414,-3.32,-3.3026,-3.2986,-3.2848,-3.2808,-3.2959,-3.3013,-3.3146,-3.3387,-3.3374,-3.312,-3.2634,-3.2265,-3.1971,-3.1724,-3.1711,-3.1711,-3.1711,-3.1089,-3.0755,-3.0662,-3.0167,-2.99,-2.9847,-2.9847,-2.982,-2.978,-2.978,-2.978,-2.9753,-2.9472,-2.9352,-2.9299,-2.8751,-2.8537,-2.8497,-2.8232,-2.8112,-2.8112,-2.8058,-2.8045,-2.8085,-2.831,-2.819,-2.8031,-2.8297,-2.7976,-2.7509,-2.7549,-2.7321,-2.6948,-2.6198,-2.5705,-2.5666,-2.6602,-2.7277,-2.7826,-2.8041,-2.9045,-2.9764,-2.8971,-2.8681,-2.8137,-2.678,-2.6502,-2.6656,-2.7144,-2.6777,-2.6047,-2.4873,0.0,-2.381,-2.2748,-2.311,-2.4047,-2.5466,-2.6055,-2.5988,-2.5088,-2.5203,-2.4817,-2.3733,-2.4218,-2.4623,-2.4767,-2.563,-2.6181,-2.6319,-2.6373,-2.6533,-2.6827,-2.7311,-2.8995,-3.1721,-3.2176,-3.3724,-3.6114,-3.6405,-3.6577,-3.6645,-3.6987,-3.7193,-3.733,-3.7428,-3.7496,-3.7539,-3.7647,-3.6886,-3.6047,-3.3187,-3.332,-3.3414,-3.3414,-3.3414,-3.3414,-3.3414,-3.3293,-3.3213,-3.3213,-3.3093,-3.3066,-3.32,-3.3213,-3.3267,-3.34,-3.3414,-3.316,-3.2634,-3.246,-3.2193,-3.1738,-3.1711,-3.1644,-3.1436,-3.1009,-3.0715,-3.0555,-3.0287,-3.0074,-2.9913,-2.9913,-3.0007,-3.0154,-2.998,-3.0007,-3.0127,-2.9673,-2.9486,-2.9446,-2.9018,-2.8801,-2.8804,-2.8511,-2.8484,-2.8604,-2.8457,-2.8433,-2.8444,-2.8738,-2.8417,-2.8031,-2.8457,-2.8083,-2.7495,-2.7655,-2.7375,-2.6907,-2.6346,-2.6011,-2.5938,-2.677,-2.7102,-2.7326,-2.7668,-2.8054,-2.819,-2.7545,-2.7713,-2.7732,-2.6837,-2.7105,-2.7526,-2.7752,-2.7817,-2.7459,-2.6519,-2.618,-2.587,-2.5592,-2.4892,-2.5003,-2.651,-2.625,-2.5775,-2.5239,-2.5248,-2.5043,-2.4536,-2.4877,-2.5251,-2.5583,-2.5998,-2.6253,-2.6386,-2.6386,-2.6613,-2.7068,-2.796,-2.9245,-3.0872,-3.1919,-3.3441,-3.5368,-3.5651,-3.6333,-3.7244,-3.7433,-3.7621,-3.7827,-3.7998,-3.8066,-3.8083,-3.8212,-3.7894,-3.7404,-3.3213,-3.332,-3.3414,-3.3414,-3.3414,-3.3414,-3.3414,-3.3414,-3.3414,-3.3414,-3.3414,-3.3414,-3.3414,-3.3414,-3.3414,-3.3414,-3.3347,-3.312,-3.2728,-3.2567,-3.226,-3.1738,-3.1711,-3.1557,-3.133,-3.1049,-3.0755,-3.0507,-3.044,-3.0207,-2.9913,-2.9913,-3.0034,-3.0293,-3.002,-3.0047,-3.0266,-2.978,-2.9579,-2.9566,-2.9259,-2.9095,-2.9112,-2.8818,-2.8801,-2.8961,-2.8791,-2.8711,-2.8751,-2.9001,-2.8644,-2.811,-2.8644,-2.8283,-2.7722,-2.7949,-2.7589,-2.7054,-2.6694,-2.6466,-2.6463,-2.7077,-2.717,-2.7203,-2.7608,-2.7484,-2.7126,-2.6479,-2.6888,-2.7196,-2.6671,-2.7221,-2.7771,-2.786,0.0,-2.806,-2.7478,-2.7267,-2.7231,-2.7394,-2.6105,-2.569,-2.6963,-2.6409,-2.579,-2.5342,-2.5534,-2.5572,-2.5329,-2.5491,-2.5785,-2.6185,-2.6306,-2.6386,-2.6386,-2.6453,-2.6747,-2.7309,-2.8424,-2.9389,-3.0251,-3.1547,-3.293,-3.4321,-3.4967,-3.6036,-3.7335,-3.7776,-3.8066,-3.828,-3.828,-3.828,-3.828,-3.828,-3.828,-3.828,-3.2661,-3.304,-3.3414,-3.3414,-3.3414,-3.3414,-3.3414,-3.3414,-3.3414,-3.3414,-3.3414,-3.3414,-3.3414,-3.3414,-3.3414,-3.3414,-3.316,-3.2986,-3.2946,-3.2438,-3.1998,-3.1724,-3.1711,-3.1711,-3.1684,-3.1343,-3.1049,-3.0755,-3.0533,-3.0207,-2.9913,-2.9913,-2.9927,-2.9953,-2.9927,-2.9927,-2.994,-2.99,-2.9887,-2.986,-2.9566,-2.9446,-2.9419,-2.9081,-2.8975,-2.8988,-2.8975,-2.8961,-2.9001,-2.9352,-2.9219,-2.8948,-2.9312,-2.9192,-2.8868,-2.8895,-2.8511,-2.7965,-2.7389,-2.7229,-2.7215,-2.7283,-2.7838,-2.8307,-2.8123,-2.8622,-2.8784,-2.7687,-2.7339,-2.6864,-2.581,-2.5218,-2.5132,-2.5869,0.0,0.0,-2.4687,-2.4836,-2.4754,-2.4227,-2.4732,-2.5351,-2.6032,-2.6928,-2.7022,-2.5996,-2.6836,-2.6981,-2.5983,-2.5957,-2.6225,-2.6734,-2.652,-2.6386,-2.6386,-2.6653,-2.6947,-2.7309,-2.7659,-2.8757,-3.0566,-3.0679,-3.1616,-3.3233,-3.4939,-3.5739,-3.5975,-3.7622,-3.8263,-3.828,-3.828,-3.828,-3.828,-3.828,-3.828,-3.828,-3.3053,-3.3253,-3.3414,-3.3414,-3.3414,-3.3414,-3.3414,-3.3414,-3.3414,-3.3414,-3.3414,-3.3414,-3.3414,-3.3414,-3.3414,-3.3414,-3.3307,-3.3093,-3.2781,-3.2554,-3.2219,-3.1738,-3.149,-3.1476,-3.1711,-3.1383,-3.1169,-3.1062,-3.0955,-3.0755,-3.0461,-3.0461,-3.0461,-3.0448,-3.0274,-3.0287,-3.0448,-3.0274,-3.0301,-3.0434,-3.0186,-3.0079,-3.0025,-2.9499,-2.9419,-2.9553,-2.9379,-2.9312,-2.9366,-2.9646,-2.9388,-2.9041,-2.9392,-2.9285,-2.9001,-2.9001,-2.8751,-2.8377,-2.8163,-2.7696,-2.7431,-2.7961,-2.8557,-2.8894,-2.8498,-2.8716,-2.8611,-2.7345,-2.713,-2.7028,-2.6556,-2.6009,-2.5857,-2.6677,0.0,-2.5548,-2.5897,-2.5918,-2.5962,-2.6234,-2.591,-2.6084,-2.7177,-2.7019,-2.6769,-2.6519,-2.6703,-2.6688,-2.6265,-2.6265,-2.6413,-2.6814,-2.6707,-2.6747,-2.6974,-2.6854,-2.7054,-2.7535,-2.7871,-2.8377,-2.9128,-2.9662,-3.0605,-3.1883,-3.2919,-3.4408,-3.607,-3.6734,-3.749,-3.828,-3.828,-3.828,-3.828,-3.828,-3.828,-3.828,-3.3106,-3.328,-3.3414,-3.3414,-3.3414,-3.3414,-3.3414,-3.3414,-3.3414,-3.3414,-3.3414,-3.3414,-3.3414,-3.3414,-3.3414,-3.3414,-3.3334,-3.3146,-3.2888,-3.2781,-3.2433,-3.1751,-3.1476,-3.1463,-3.1711,-3.1463,-3.1316,-3.1176,-3.1176,-3.1076,-3.0795,-3.0795,-3.0742,-3.0648,-3.0493,-3.052,-3.0648,-3.0493,-3.0574,-3.0768,-3.0627,-3.0493,-3.036,-2.9958,-2.982,-2.9887,-2.9686,-2.9619,-2.9646,-2.9847,-2.9602,-2.9308,-2.9553,-2.9486,-2.9255,-2.9161,-2.9045,-2.8858,-2.8764,-2.823,-2.7821,-2.8345,-2.8728,-2.8823,-2.8399,-2.8381,-2.816,-2.7176,-2.6997,-2.6997,-2.6997,-2.654,-2.6287,-2.6739,-2.6355,-2.6084,-2.643,-2.6495,-2.6775,-2.7405,-2.6852,-2.6757,-2.7588,-2.708,-2.6667,-2.668,-2.6587,-2.6533,-2.6533,-2.6613,-2.68,-2.7094,-2.7014,-2.7148,-2.7576,-2.7241,-2.7348,-2.7843,-2.8192,-2.8419,-2.8634,-2.9249,-2.9934,-3.08,-3.209,-3.3777,-3.5613,-3.6481,-3.7447,-3.828,-3.828,-3.828,-3.8237,-3.7808,-3.8005,-3.8408,-3.2607,-3.3013,-3.3414,-3.3414,-3.3414,-3.3414,-3.3414,-3.3414,-3.3414,-3.3414,-3.3414,-3.3414,-3.3414,-3.3414,-3.3414,-3.3414,-3.3146,-3.3106,-3.3387,-3.3133,-3.2634,-3.1751,-3.1724,-3.1724,-3.1711,-3.1711,-3.153,-3.1176,-3.1176,-3.1076,-3.0795,-3.0795,-3.0648,-3.0413,-3.0413,-3.0413,-3.0413,-3.0413,-3.0574,-3.0795,-3.0795,-3.0621,-3.0413,-3.04,-3.0181,-2.9913,-2.9913,-2.9913,-2.9913,-2.9913,-2.9913,-2.9913,-2.9913,-2.9913,-2.986,-2.9566,-2.9486,-2.9419,-2.9081,-2.8831,-2.8537,-2.8259,-2.8234,-2.8154,-2.7776,-2.7696,-2.7657,-2.7362,-2.7028,-2.6787,-2.6787,-2.636,-2.5904,-2.5571,-2.5518,-2.5518,-2.5518,-2.6026,-2.6507,-2.6787,-2.7081,-2.7148,-2.6854,-2.7094,-2.7068,-2.644,-2.6667,-2.6787,-2.6787,-2.7108,-2.7443,-2.7682,-2.7415,-2.759,-2.8179,-2.7884,-2.7856,-2.8192,-2.8457,-2.8911,-2.9486,-2.9486,-2.9646,-3.0048,-3.2852,-3.4084,-3.4303,-3.7145,-3.828,-3.8297,-3.828,-3.8297,-3.8109,-3.6713,-3.7334,-3.8593,-3.3106,-3.3293,-3.3414,-3.3414,-3.3414,-3.3414,-3.3414,-3.3414,-3.3414,-3.3414,-3.3414,-3.3414,-3.3414,-3.3414,-3.3414,-3.3414,-3.3334,-3.3146,-3.2875,-3.2532,-3.2158,-3.1738,-3.1864,-3.1877,-3.1724,-3.1711,-3.1671,-3.153,-3.153,-3.149,-3.1457,-3.1457,-3.1142,-3.0675,-3.0875,-3.0849,-3.0675,-3.0875,-3.1142,-3.1383,-3.1183,-3.0929,-3.0635,-3.048,-3.0181,-2.9913,-2.9913,-2.9913,-2.9913,-2.9913,-2.9913,-2.9913,-2.9913,-2.9913,-2.99,-2.9806,-2.9646,-2.9459,-2.9379,-2.9138,-2.8961,-2.9292,-2.9467,-2.9439,-2.9063,-2.9049,-2.8827,-2.7795,-2.7335,-2.7134,-2.7134,-2.6827,-2.6533,-2.6453,-2.6253,-2.6199,-2.64,-2.6587,-2.68,-2.7094,-2.7255,-2.7308,-2.7428,-2.7335,-2.7322,-2.7308,-2.7201,-2.7134,-2.7134,-2.7255,-2.7443,-2.7682,-2.7615,-2.7791,-2.8179,-2.7884,-2.7963,-2.847,-2.8764,-2.8961,-2.9148,-2.9606,-2.9726,-2.9708,-3.1749,-3.3205,-3.4259,-3.6091,-3.7571,-3.8674,-3.84,-3.7874,-3.7162,-3.6448,-3.591,-3.545,-3.32,-3.3334,-3.3414,-3.3414,-3.3414,-3.3414,-3.3414,-3.3414,-3.3414,-3.3414,-3.3414,-3.3414,-3.3414,-3.3414,-3.3414,-3.3414,-3.3307,-3.3093,-3.2795,-3.2487,-3.2144,-3.1851,-3.2011,-3.1971,-3.1724,-3.1711,-3.1711,-3.1711,-3.1711,-3.1711,-3.1711,-3.1711,-3.141,-3.0969,-3.1142,-3.1129,-3.0982,-3.1156,-3.1396,-3.1698,-3.1476,-3.1156,-3.0768,-3.0595,-3.0354,-3.0087,-3.0087,-3.0087,-3.0087,-3.0087,-3.0007,-2.9913,-2.9913,-2.9913,-2.9913,-2.9913,-2.9793,-2.9659,-2.9659,-2.9446,-2.9296,-2.9629,-2.9684,-2.9549,-2.924,-2.9187,-2.9007,-2.8224,-2.7722,-2.7483,-2.7483,-2.7201,-2.7001,-2.7001,-2.6854,-2.6841,-2.7134,-2.7175,-2.7281,-2.7617,-2.7657,-2.7684,-2.7696,-2.7684,-2.7684,-2.7696,-2.7535,-2.7483,-2.7483,-2.759,-2.7791,-2.8043,-2.8056,-2.8203,-2.8497,-2.8323,-2.8417,-2.8778,-2.9072,-2.9228,-2.9348,-2.9708,-2.982,-2.9793,-3.1896,-3.3293,-3.4216,-3.5613,-3.6845,-3.7738,-3.6925,-3.628,-3.5652,-3.4818,-3.4468,-3.4208,-3.3013,-3.3227,-3.3414,-3.3414,-3.3414,-3.3414,-3.3414,-3.3414,-3.3414,-3.3414,-3.3414,-3.3414,-3.3414,-3.3414,-3.3414,-3.3414,-3.3173,-3.3013,-3.2973,-3.2781,-3.25,-3.2158,-3.2118,-3.1984,-3.1764,-3.1751,-3.1751,-3.1751,-3.1751,-3.1751,-3.1751,-3.1724,-3.1517,-3.1176,-3.1203,-3.1249,-3.1176,-3.1203,-3.1423,-3.1711,-3.1684,-3.1289,-3.0795,-3.0768,-3.0568,-3.036,-3.036,-3.036,-3.036,-3.036,-3.014,-2.9913,-2.9913,-2.9913,-2.9913,-2.9913,-2.9913,-2.9913,-2.9913,-2.9726,-2.9513,-2.9486,-2.9299,-2.8988,-2.8724,-2.8644,-2.8644,-2.8604,-2.8163,-2.7776,-2.7749,-2.7495,-2.7349,-2.7376,-2.7362,-2.7443,-2.7696,-2.7736,-2.7856,-2.8192,-2.8205,-2.8098,-2.7843,-2.8085,-2.8112,-2.7802,-2.7749,-2.7736,-2.7736,-2.8072,-2.8353,-2.8591,-2.8631,-2.8735,-2.8988,-2.9028,-2.9041,-2.9041,-2.9352,-2.9633,-2.9913,-2.9913,-2.9913,-3.0048,-3.2896,-3.4084,-3.4216,-3.5613,-3.6226,-3.6144,-3.4715,-3.4101,-3.3852,-3.2512,-3.2969,-3.4036,-3.332,-3.3374,-3.3414,-3.3414,-3.3414,-3.3414,-3.3414,-3.3414,-3.3414,-3.3414,-3.3414,-3.3414,-3.3414,-3.3414,-3.3414,-3.3414,-3.336,-3.3213,-3.2986,-3.2969,-3.2808,-3.2514,-3.2225,-3.2078,-3.2011,-3.2011,-3.2011,-3.2011,-3.2011,-3.2011,-3.2011,-3.1818,-3.1517,-3.1189,-3.1463,-3.145,-3.1236,-3.1476,-3.161,-3.1698,-3.141,-3.1102,-3.0768,-3.0587,-3.0274,-3.0007,-3.0007,-3.0007,-3.0007,-3.0007,-2.9967,-2.9913,-2.9913,-2.9913,-2.9913,-2.9913,-2.9913,-2.9913,-2.9913,-2.9873,-2.9766,-2.9539,-2.9606,-2.9593,-2.9028,-2.8908,-2.8841,-2.8657,-2.8497,-2.8337,-2.8138,-2.7844,-2.7682,-2.7951,-2.7804,-2.775,-2.8045,-2.8085,-2.8205,-2.847,-2.8339,-2.8353,-2.8668,-2.8604,-2.8484,-2.8417,-2.8232,-2.8085,-2.8085,-2.8379,-2.8537,-2.8604,-2.8788,-2.8935,-2.9001,-2.9272,-2.9392,-2.9392,-2.9459,-2.9633,-2.9913,-2.9913,-2.9913,-3.0048,-3.2896,-3.4084,-3.4216,-3.5613,-3.6517,-3.6825,-3.5165,-3.3978,-3.318,-3.2619,-3.1791,-3.0918,-3.3414,-3.3414,-3.3414,-3.3414,-3.3414,-3.3414,-3.3414,-3.3414,-3.3414,-3.3414,-3.3414,-3.3414,-3.3414,-3.3414,-3.3414,-3.3414,-3.328,-3.3146,-3.2986,-3.2902,-3.2755,-3.2607,-3.2447,-3.2251,-3.2104,-3.2372,-3.2385,-3.2104,-3.2104,-3.2104,-3.2091,-3.181,-3.1517,-3.1236,-3.1383,-3.1289,-3.1036,-3.133,-3.1383,-3.1249,-3.1236,-3.0969,-3.0568,-3.0467,-3.0306,-3.0127,-3.0127,-3.0127,-3.01,-2.9967,-2.9913,-2.9913,-2.9913,-2.9913,-2.9913,-2.9913,-2.9913,-2.9913,-2.9913,-2.9913,-2.9887,-2.9726,-2.9806,-2.9793,-2.9352,-2.9245,-2.9205,-2.9058,-2.8911,-2.8724,-2.846,-2.8243,-2.8136,-2.8179,-2.8058,-2.8005,-2.8165,-2.8312,-2.8419,-2.8433,-2.8497,-2.8751,-2.9205,-2.8978,-2.8775,-2.8775,-2.8537,-2.8406,-2.8406,-2.8524,-2.8738,-2.9018,-2.9179,-2.9325,-2.9415,-2.9606,-2.9686,-2.9686,-2.9686,-2.9766,-2.9913,-2.9913,-2.9913,-3.0003,-3.2159,-3.3205,-3.3398,-3.4151,-3.4707,-3.4969,-3.3244,-3.2237,-3.1728,-3.1364,-3.0803,-3.0154,-3.3414,-3.3414,-3.3414,-3.3414,-3.3414,-3.3414,-3.3414,-3.3414,-3.3414,-3.3414,-3.3414,-3.3414,-3.3414,-3.3414,-3.3414,-3.3414,-3.3187,-3.3053,-3.3053,-3.2875,-3.2741,-3.2741,-3.2701,-3.2554,-3.2251,-3.2732,-3.2719,-3.2185,-3.2185,-3.2185,-3.2171,-3.1824,-3.153,-3.1303,-3.1303,-3.1169,-3.0955,-3.1196,-3.1129,-3.0889,-3.1076,-3.0835,-3.04,-3.0346,-3.0333,-3.0333,-3.0333,-3.0333,-3.0293,-2.9993,-2.9913,-2.9927,-2.998,-2.9993,-2.9993,-2.9993,-2.9993,-2.998,-2.9927,-2.9913,-2.9913,-2.9913,-2.9913,-2.986,-2.9619,-2.9566,-2.9539,-2.9499,-2.9285,-2.8988,-2.8738,-2.8644,-2.8524,-2.8312,-2.8259,-2.8259,-2.8259,-2.8484,-2.8591,-2.8366,-2.8778,-2.9175,-2.9459,-2.9259,-2.9068,-2.9068,-2.8845,-2.8684,-2.8684,-2.8724,-2.8978,-2.9472,-2.9526,-2.9673,-2.9913,-2.9913,-2.9913,-2.9913,-2.9913,-2.9913,-2.9913,-2.9913,-2.9913,-2.9958,-3.1404,-3.2198,-3.2498,-3.2441,-3.2627,-3.2745,-3.1054,-3.044,-3.0453,-3.0154,-3.0194,-3.0426,-3.3414,-3.3414,-3.3414,-3.3414,-3.3414,-3.3414,-3.3414,-3.3414,-3.3414,-3.3414,-3.3414,-3.3414,-3.3414,-3.3414,-3.3414,-3.3414,-3.3374,-3.336,-3.336,-3.332,-3.3293,-3.3293,-3.3053,-3.2906,-3.2866,-3.2933,-3.2862,-3.2541,-3.2541,-3.2541,-3.2527,-3.1979,-3.1698,-3.161,-3.161,-3.1583,-3.1604,-3.1644,-3.1436,-3.1156,-3.0942,-3.0662,-3.0373,-3.0074,-2.998,-2.998,-2.998,-2.998,-2.9967,-2.9927,-2.9913,-2.9967,-3.0221,-3.0346,-3.0346,-3.0346,-3.0346,-3.0293,-2.998,-2.9913,-2.9913,-2.9913,-2.9913,-2.99,-2.986,-2.986,-2.978,-2.9539,-2.9446,-2.9325,-2.8988,-2.8778,-2.8591,-2.8551,-2.8537,-2.8537,-2.8537,-2.8791,-2.8921,-2.8881,-2.9219,-2.9446,-2.9486,-2.9446,-2.9419,-2.9419,-2.9152,-2.8935,-2.8935,-2.9232,-2.9406,-2.9486,-2.9726,-2.9873,-2.9913,-2.9913,-2.9913,-2.9913,-2.9913,-2.9913,-2.9913,-2.9913,-2.9913,-2.9958,-3.1404,-3.2198,-3.2484,-3.2198,-3.2382,-3.2745,-3.1054,-3.056,-3.0728,-3.0688,-3.0541,-3.048,-3.3414,-3.3414,-3.3414,-3.3414,-3.3561,-3.3681,-3.3681,-3.3681,-3.3681,-3.3681,-3.3521,-3.3414,-3.3414,-3.3414,-3.3414,-3.3414,-3.3414,-3.3414,-3.3414,-3.3414,-3.3414,-3.3414,-3.3293,-3.3146,-3.2986,-3.3133,-3.3,-3.2594,-3.2594,-3.2514,-3.2291,-3.1912,-3.1583,-3.1423,-3.1423,-3.133,-3.1183,-3.1183,-3.1009,-3.0728,-3.0595,-3.052,-3.0386,-3.0266,-3.0167,-3.014,-2.998,-2.9913,-2.9913,-2.9913,-3.002,-3.0226,-3.036,-3.052,-3.0568,-3.0453,-3.04,-3.0346,-2.9993,-2.9913,-2.9913,-2.9913,-2.9913,-2.9913,-2.9913,-2.9913,-2.9887,-2.9753,-2.9726,-2.9633,-2.9339,-2.9179,-2.9045,-2.8828,-2.8801,-2.8801,-2.8801,-2.9098,-2.9352,-2.9468,-2.9499,-2.9553,-2.9713,-2.9726,-2.9659,-2.9499,-2.9366,-2.9285,-2.9285,-2.9419,-2.9566,-2.9726,-2.9847,-2.9913,-2.9913,-2.9913,-2.9913,-2.9913,-2.9913,-2.9913,-2.9913,-2.9913,-2.9913,-2.9913,-3.0571,-3.1018,-3.1339,-3.1156,-3.1349,-3.1643,-3.0924,-3.0675,-3.0795,-3.0795,-3.0808,-3.0875]},{"header":{"parameterUnit":"m.s-1","parameterCategory":1,"la1":30.6,"la2":28.766,"lo1":-90.7593,"lo2":-88.6598,"dy":0.0162,"dx":0.0183,"nx":116,"ny":114,"refTime":"2023-10-24T06:00:00:Z","depth":0,"parameterNumber":3,"parameterNumberName":"V-component_of_WINDS"},"data":[0.0,0.0,0.0,0.0,0.0,0.0,0.0,0.0,0.0,0.0,0.0,0.0,0.0,0.0,0.0,0.0,0.0,0.0,0.0,0.0,0.0,0.0,0.0,0.0,0.0,0.0,0.0,0.0,0.0,0.0,0.0,0.0,0.0,0.0,0.0,0.0,0.0,0.0,0.0,0.0,0.0,0.0,0.0,0.0,0.0,0.0,0.0,0.0,0.0,0.0,0.0,0.0,0.0,0.0,0.0,0.0,0.0,0.0,0.0,0.0,0.0,0.0,0.0,0.0,0.0,0.0,0.0,0.0,0.0,0.0,0.0,0.0,0.0,0.0,0.0,0.0,0.0,0.0,0.0,0.0,0.0,0.0,0.0,0.0,0.0,0.0,0.0,0.0,0.0,0.0,0.0,0.0,0.0,0.0,0.0,0.0,0.0,0.0,0.0,0.0,0.0,0.0,0.0,0.0,0.0,0.0,0.0,0.0,0.0,0.0,0.0,0.0,0.0,0.0,0.0,0.0,0.0,0.0,0.0,0.0,0.0,0.0,0.0,0.0,0.0,0.0,0.0,0.0,0.0,0.0,0.0,0.0,0.0,0.0,0.0,0.0,0.0,0.0,0.0,0.0,0.0,0.0,0.0,0.0,0.0,0.0,0.0,0.0,0.0,0.0,0.0,0.0,0.0,0.0,0.0,0.0,0.0,0.0,0.0,0.0,0.0,0.0,0.0,0.0,0.0,0.0,0.0,0.0,0.0,0.0,0.0,0.0,0.0,0.0,0.0,0.0,0.0,0.0,0.0,0.0,0.0,0.0,0.0,0.0,0.0,0.0,0.0,0.0,0.0,0.0,0.0,0.0,0.0,0.0,0.0,0.0,0.0,0.0,0.0,0.0,0.0,0.0,0.0,0.0,0.0,0.0,0.0,0.0,0.0,0.0,0.0,0.0,0.0,0.0,0.0,0.0,0.0,0.0,0.0,0.0,0.0,0.0,0.0,0.0,0.0,0.0,0.0,0.0,0.0,0.0,0.0,0.0,0.0,0.0,0.0,0.0,0.0,0.0,0.0,0.0,0.0,0.0,0.0,0.0,0.0,0.0,0.0,0.0,0.0,0.0,0.0,0.0,0.0,0.0,0.0,0.0,0.0,0.0,0.0,0.0,0.0,0.0,0.0,0.0,0.0,0.0,0.0,0.0,0.0,0.0,0.0,0.0,0.0,0.0,0.0,0.0,0.0,0.0,0.0,0.0,0.0,0.0,0.0,0.0,0.0,0.0,0.0,0.0,0.0,0.0,0.0,0.0,0.0,0.0,0.0,0.0,0.0,0.0,0.0,0.0,0.0,0.0,0.0,0.0,0.0,0.0,0.0,0.0,0.0,0.0,0.0,0.0,0.0,0.0,0.0,0.0,0.0,0.0,0.0,0.0,0.0,0.0,0.0,0.0,0.0,0.0,0.0,0.0,0.0,0.0,0.0,0.0,0.0,0.0,0.0,0.0,0.0,0.0,0.0,0.0,0.0,0.0,0.0,0.0,0.0,0.0,0.0,0.0,0.0,0.0,0.0,0.0,0.0,0.0,0.0,0.0,0.0,0.0,0.0,0.0,0.0,0.0,0.0,0.0,0.0,0.0,0.0,0.0,0.0,0.0,0.0,0.0,0.0,0.0,0.0,0.0,0.0,0.0,0.0,0.0,0.0,0.0,0.0,0.0,0.0,0.0,0.0,0.0,0.0,0.0,0.0,0.0,0.0,0.0,0.0,0.0,0.0,0.0,0.0,0.0,0.0,0.0,0.0,0.0,0.0,0.0,0.0,0.0,0.0,0.0,0.0,0.0,0.0,0.0,0.0,0.0,0.0,0.0,0.0,0.0,0.0,0.0,0.0,0.0,0.0,0.0,0.0,0.0,0.0,0.0,0.0,0.0,0.0,0.0,0.0,0.0,0.0,0.0,0.0,0.0,0.0,0.0,0.0,0.0,0.0,0.0,0.0,0.0,0.0,0.0,0.0,0.0,0.0,0.0,0.0,0.0,0.0,0.0,0.0,0.0,0.0,0.0,0.0,0.0,0.0,0.0,0.0,0.0,0.0,0.0,0.0,0.0,0.0,0.0,0.0,0.0,0.0,0.0,0.0,0.0,0.0,0.0,0.0,0.0,0.0,0.0,0.0,0.0,0.0,0.0,0.0,0.0,0.0,0.0,0.0,0.0,0.0,0.0,0.0,0.0,0.0,0.0,0.0,0.0,0.0,0.0,0.0,0.0,0.0,0.0,0.0,0.0,0.0,0.0,0.0,0.0,0.0,0.0,0.0,0.0,0.0,0.0,0.0,0.0,0.0,0.0,0.0,0.0,0.0,0.0,0.0,0.0,0.0,0.0,0.0,0.0,0.0,0.0,0.0,0.0,0.0,0.0,0.0,0.0,0.0,0.0,0.0,0.0,0.0,0.0,0.0,0.0,0.0,0.0,0.0,0.0,0.0,0.0,0.0,0.0,0.0,0.0,0.0,0.0,0.0,0.0,0.0,0.0,0.0,0.0,0.0,0.0,0.0,0.0,0.0,0.0,0.0,0.0,0.0,0.0,0.0,0.0,0.0,0.0,0.0,0.0,0.0,0.0,0.0,0.0,0.0,0.0,0.0,0.0,0.0,0.0,0.0,0.0,0.0,0.0,0.0,0.0,0.0,0.0,0.0,0.0,0.0,0.0,0.0,0.0,0.0,0.0,0.0,0.0,0.0,0.0,0.0,0.0,0.0,0.0,0.0,0.0,0.0,0.0,0.0,0.0,0.0,0.0,0.0,0.0,0.0,0.0,0.0,0.0,0.0,0.0,0.0,0.0,0.0,0.0,0.0,0.0,0.0,0.0,0.0,0.0,0.0,0.0,0.0,0.0,0.0,0.0,0.0,0.0,0.0,0.0,0.0,0.0,0.0,0.0,0.0,0.0,0.0,0.0,0.0,0.0,0.0,0.0,0.0,0.0,0.0,0.0,0.0,0.0,0.0,0.0,0.0,0.0,0.0,0.0,0.0,0.0,0.0,0.0,0.0,0.0,0.0,0.0,0.0,0.0,0.0,0.0,0.0,0.0,0.0,0.0,0.0,0.0,0.0,0.0,0.0,0.0,0.0,0.0,0.0,0.0,0.0,0.0,0.0,0.0,0.0,0.0,0.0,0.0,0.0,0.0,0.0,0.0,0.0,0.0,0.0,0.0,0.0,0.0,0.0,0.0,0.0,0.0,0.0,0.0,0.0,0.0,0.0,0.0,0.0,0.0,0.0,0.0,0.0,0.0,0.0,0.0,0.0,0.0,0.0,0.0,0.0,0.0,0.0,0.0,0.0,0.0,0.0,0.0,0.0,0.0,0.0,0.0,0.0,0.0,0.0,0.0,0.0,0.0,0.0,0.0,0.0,0.0,0.0,0.0,0.0,0.0,0.0,0.0,0.0,0.0,0.0,0.0,0.0,0.0,0.0,0.0,0.0,0.0,0.0,0.0,0.0,0.0,0.0,0.0,0.0,0.0,0.0,0.0,0.0,0.0,0.0,0.0,0.0,0.0,0.0,0.0,0.0,0.0,0.0,0.0,0.0,0.0,0.0,0.0,0.0,0.0,0.0,0.0,0.0,0.0,0.0,0.0,0.0,0.0,0.0,0.0,0.0,0.0,0.0,0.0,0.0,0.0,0.0,0.0,0.0,0.0,0.0,0.0,0.0,0.0,0.0,0.0,0.0,0.0,0.0,0.0,0.0,0.0,0.0,0.0,0.0,0.0,0.0,0.0,0.0,0.0,0.0,0.0,0.0,0.0,0.0,0.0,0.0,0.0,0.0,0.0,0.0,0.0,0.0,0.0,0.0,0.0,0.0,0.0,0.0,0.0,0.0,0.0,0.0,0.0,0.0,0.0,0.0,0.0,0.0,0.0,0.0,0.0,0.0,0.0,0.0,0.0,0.0,0.0,0.0,0.0,0.0,0.0,0.0,0.0,0.0,0.0,0.0,0.0,0.0,0.0,0.0,0.0,0.0,0.0,0.0,0.0,0.0,0.0,0.0,0.0,0.0,0.0,0.0,0.0,0.0,0.0,0.0,0.0,0.0,0.0,0.0,0.0,0.0,0.0,0.0,0.0,0.0,0.0,0.0,0.0,0.0,0.0,0.0,0.0,0.0,0.0,0.0,0.0,0.0,0.0,0.0,0.0,0.0,0.0,0.0,0.0,0.0,0.0,0.0,0.0,0.0,0.0,0.0,0.0,0.0,0.0,0.0,0.0,0.0,0.0,0.0,0.0,0.0,0.0,0.0,0.0,0.0,0.0,0.0,0.0,0.0,0.0,0.0,0.0,0.0,0.0,0.0,0.0,0.0,0.0,0.0,0.0,0.0,0.0,0.0,0.0,0.0,0.0,0.0,0.0,0.0,0.0,0.0,0.0,0.0,0.0,0.0,0.0,0.0,0.0,0.0,0.0,0.0,0.0,0.0,0.0,0.0,0.0,0.0,0.0,0.0,0.0,0.0,0.0,0.0,0.0,0.0,0.0,0.0,0.0,0.0,0.0,0.0,0.0,0.0,0.0,0.0,0.0,0.0,0.0,0.0,0.0,0.0,0.0,0.0,0.0,0.0,0.0,0.0,0.0,0.0,0.0,0.0,0.0,0.0,0.0,0.0,0.0,0.0,0.0,0.0,0.0,0.0,0.0,0.0,0.0,0.0,0.0,0.0,0.0,0.0,0.0,0.0,0.0,0.0,0.0,0.0,0.0,0.0,0.0,0.0,0.0,0.0,0.0,0.0,0.0,0.0,0.0,0.0,0.0,0.0,0.0,0.0,0.0,0.0,0.0,0.0,0.0,0.0,0.0,0.0,0.0,0.0,0.0,0.0,0.0,0.0,0.0,0.0,0.0,0.0,0.0,0.0,0.0,0.0,0.0,0.0,0.0,0.0,0.0,0.0,0.0,0.0,0.0,0.0,0.0,0.0,0.0,0.0,0.0,0.0,0.0,0.0,0.0,0.0,0.0,0.0,0.0,0.0,0.0,0.0,0.0,0.0,0.0,0.0,0.0,0.0,0.0,0.0,0.0,0.0,0.0,0.0,0.0,0.0,0.0,0.0,0.0,0.0,0.0,0.0,0.0,0.0,0.0,0.0,0.0,0.0,0.0,0.0,0.0,0.0,0.0,0.0,0.0,0.0,0.0,0.0,0.0,0.0,0.0,0.0,0.0,0.0,0.0,0.0,0.0,0.0,0.0,0.0,0.0,0.0,0.0,0.0,0.0,0.0,0.0,0.0,0.0,0.0,0.0,0.0,0.0,0.0,0.0,0.0,0.0,0.0,0.0,0.0,0.0,0.0,0.0,0.0,0.0,0.0,0.0,0.0,0.0,0.0,0.0,0.0,0.0,0.0,0.0,0.0,0.0,0.0,0.0,0.0,0.0,0.0,0.0,0.0,0.0,0.0,0.0,0.0,0.0,0.0,0.0,0.0,0.0,0.0,0.0,0.0,0.0,0.0,0.0,0.0,0.0,0.0,0.0,0.0,0.0,0.0,0.0,0.0,0.0,0.0,0.0,0.0,0.0,0.0,0.0,0.0,0.0,0.0,0.0,0.0,0.0,0.0,0.0,0.0,0.0,0.0,0.0,0.0,0.0,0.0,0.0,0.0,0.0,0.0,0.0,0.0,0.0,0.0,0.0,0.0,0.0,0.0,0.0,0.0,0.0,0.0,0.0,0.0,0.0,0.0,0.0,0.0,0.0,0.0,0.0,0.0,0.0,0.0,0.0,0.0,0.0,0.0,0.0,0.0,0.0,0.0,0.0,0.0,0.0,0.0,0.0,0.0,0.0,0.0,0.0,0.0,0.0,0.0,0.0,0.0,0.0,0.0,0.0,0.0,0.0,0.0,0.0,0.0,0.0,0.0,0.0,0.0,0.0,0.0,0.0,0.0,0.0,0.0,0.0,0.0,0.0,0.0,0.0,0.0,0.0,0.0,0.0,0.0,0.0,0.0,0.0,0.0,0.0,0.0,0.0,0.0,0.0,0.0,0.0,0.0,0.0,0.0,0.0,0.0,0.0,0.0,0.0,0.0,0.0,0.0,0.0,0.0,0.0,0.0,0.0,0.0,0.0,0.0,0.0,3.7085,3.4569,0.0,0.0,0.0,0.0,0.0,0.0,0.0,0.0,0.0,0.0,0.0,0.0,0.0,0.0,0.0,0.0,0.0,0.0,0.0,0.0,0.0,0.0,0.0,0.0,0.0,0.0,0.0,0.0,0.0,0.0,0.0,0.0,0.0,0.0,0.0,0.0,0.0,1.7516,1.9611,2.2451,2.5828,2.4928,2.3028,2.033,0.0,0.0,0.0,0.0,0.0,0.0,0.0,0.0,0.0,0.0,0.0,0.0,0.0,0.0,0.0,0.0,0.0,0.0,0.0,0.0,0.0,0.0,0.0,0.0,0.0,0.0,0.0,0.0,0.0,0.0,0.0,0.0,0.0,0.0,0.0,0.0,0.0,0.0,0.0,0.0,0.0,0.0,0.0,0.0,0.0,0.0,0.0,0.0,0.0,0.0,0.0,0.0,0.0,0.0,0.0,0.0,0.0,0.0,0.0,0.0,0.0,0.0,0.0,0.0,0.0,0.0,0.0,0.0,0.0,0.0,4.4063,4.1091,0.0,0.0,0.0,0.0,0.0,0.0,0.0,0.0,0.0,0.0,0.0,0.0,0.0,0.0,0.0,0.0,0.0,0.0,0.0,0.0,0.0,0.0,0.0,1.8031,1.8878,1.8743,1.8565,1.8454,0.0,0.0,0.0,0.0,0.0,0.0,1.6335,1.7196,1.8724,2.0953,2.4319,2.8466,3.321,3.4827,3.2736,2.7568,2.5638,0.0,0.0,0.0,0.0,0.0,0.0,0.0,0.0,0.0,0.0,0.0,0.0,0.0,0.0,0.0,0.0,0.0,0.0,0.0,0.0,0.0,0.0,0.0,0.0,0.0,0.0,0.0,0.0,0.0,0.0,0.0,0.0,0.0,0.0,0.0,0.0,0.0,0.0,0.0,0.0,0.0,0.0,0.0,0.0,0.0,0.0,0.0,0.0,0.0,0.0,0.0,0.0,0.0,0.0,0.0,0.0,0.0,0.0,0.0,0.0,0.0,0.0,0.0,5.1802,5.3874,5.5973,5.6995,5.7833,5.8205,5.2828,4.9956,4.8892,4.693,0.0,0.0,0.0,0.0,0.0,0.0,0.0,0.0,0.0,0.0,0.0,0.0,0.0,0.0,0.0,0.0,0.0,0.0,0.0,0.0,0.0,1.8017,1.9713,2.2587,2.2176,2.213,2.2919,0.0,0.0,0.0,0.0,0.0,1.717,1.7871,2.0165,2.4016,3.0862,3.5758,3.8666,3.9852,4.0711,4.1019,3.4665,3.2203,3.2471,0.0,0.0,0.0,0.0,0.0,0.0,0.0,0.0,0.0,0.0,0.0,0.0,0.0,0.0,0.0,0.0,0.0,0.0,0.0,0.0,0.0,0.0,0.0,0.0,0.0,0.0,0.0,0.0,0.0,0.0,0.0,0.0,0.0,0.0,0.0,0.0,0.0,0.0,0.0,0.0,0.0,3.2608,3.5399,0.0,0.0,0.0,0.0,0.0,0.0,0.0,0.0,0.0,0.0,0.0,0.0,0.0,4.7797,5.1647,5.5144,5.744,5.8556,6.1873,6.3656,6.4042,6.5652,6.6471,6.6614,6.7198,0.0,5.511,5.2653,0.0,0.0,0.0,0.0,0.0,0.0,0.0,0.0,0.0,0.0,0.0,0.0,0.0,0.0,0.0,0.0,0.0,0.0,0.0,0.0,0.0,2.3477,2.5594,2.8985,3.0179,2.9725,2.7263,2.6779,0.0,0.0,0.0,1.8517,1.8593,2.1179,2.6169,3.365,3.9902,4.3523,4.4657,4.5644,4.6493,4.7085,4.3625,4.0318,3.7027,3.2897,0.0,0.0,0.0,0.0,0.0,0.0,0.0,0.0,0.0,0.0,0.0,0.0,0.0,0.0,0.0,0.0,0.0,0.0,0.0,0.0,0.0,0.0,0.0,0.0,0.0,0.0,0.0,0.0,0.0,0.0,0.0,0.0,0.0,0.0,0.0,0.0,0.0,0.0,0.0,3.2638,3.6907,3.8468,3.8068,3.6632,0.0,0.0,0.0,0.0,0.0,0.0,0.0,0.0,0.0,4.9491,5.3617,5.6746,5.8755,6.2235,6.488,6.673,6.8805,7.0493,7.1877,7.2739,7.3092,7.3105,7.3881,7.1287,6.6076,6.1082,5.647,5.2207,0.0,0.0,0.0,0.0,4.9437,5.05,0.0,0.0,0.0,0.0,0.0,0.0,0.0,0.0,0.0,0.0,0.0,0.0,2.6594,2.9132,3.2076,3.6025,3.7306,3.6508,3.3323,3.1358,2.8605,2.474,2.1388,2.0306,2.1711,2.6814,3.342,4.1554,4.6932,4.9663,4.9889,5.0777,5.1334,5.1535,5.097,4.7677,4.2329,3.8628,3.4882,3.1047,0.0,0.0,0.0,0.0,0.0,0.0,0.0,0.0,0.0,0.0,0.0,0.0,0.0,0.0,0.0,0.0,0.0,0.0,0.0,0.0,0.0,0.0,0.0,0.0,0.0,0.0,0.0,0.0,0.0,0.0,0.0,0.0,0.0,0.0,0.0,0.0,0.0,3.703,4.0858,4.2006,4.3016,4.2181,0.0,0.0,0.0,0.0,0.0,0.0,4.6437,5.106,5.4678,5.7028,6.1828,6.4739,6.5591,6.8391,7.0979,7.3352,7.3999,7.5397,7.7435,7.7683,7.7683,7.7449,7.7657,7.6869,7.4835,6.8284,6.3444,5.9835,5.7173,5.5622,5.5215,5.7932,5.9274,6.0398,0.0,0.0,0.0,0.0,0.0,0.0,0.0,0.0,0.0,0.0,0.0,2.4721,2.8877,3.2867,3.7517,4.3161,4.1043,4.0232,4.22,3.584,3.1773,3.1322,2.5964,2.4425,2.7519,3.5534,4.1029,4.3824,4.9565,5.2763,5.3553,5.4568,5.5498,5.6333,5.5742,5.3713,5.0386,4.4061,4.1186,4.0249,3.2782,0.0,0.0,0.0,0.0,0.0,0.0,0.0,0.0,0.0,0.0,0.0,0.0,0.0,0.0,0.0,0.0,0.0,0.0,0.0,0.0,0.0,0.0,0.0,0.0,0.0,0.0,0.0,0.0,0.0,0.0,0.0,0.0,0.0,0.0,0.0,0.0,0.0,0.0,4.7321,4.8601,0.0,0.0,0.0,0.0,4.4974,4.7957,5.1652,5.6053,5.9453,6.2965,6.6695,6.864,7.0874,7.3509,7.4522,7.5862,7.748,7.7617,7.8163,7.9095,7.9753,7.9582,7.8855,7.9554,7.9343,7.8013,7.234,6.8713,6.6543,6.4,6.3863,6.4997,6.3683,6.5746,6.9067,0.0,0.0,0.0,0.0,0.0,0.0,0.0,0.0,1.7695,2.0144,2.4455,2.9771,3.6205,4.0426,4.4788,4.9686,4.9948,4.9059,4.7135,4.1553,3.7542,3.5807,3.0711,3.0923,3.7377,4.0933,4.5212,5.0302,5.346,5.5131,5.5429,5.5767,5.6133,5.6433,5.6383,5.576,5.4366,4.9797,4.633,4.3472,3.8532,3.3625,0.0,0.0,0.0,0.0,0.0,0.0,0.0,0.0,0.0,0.0,0.0,0.0,0.0,0.0,0.0,0.0,0.0,0.0,0.0,0.0,0.0,0.0,0.0,0.0,0.0,0.0,0.0,0.0,0.0,0.0,0.0,0.0,0.0,0.0,0.0,0.0,0.0,5.0565,5.3425,0.0,5.0763,5.0937,5.1881,5.3502,5.6302,5.9798,6.4049,6.743,7.0104,7.1936,7.4152,7.5535,7.5973,7.7013,7.8073,7.9221,7.9224,7.9689,8.0498,8.0589,8.0479,8.0134,8.0485,8.0379,7.9805,7.7415,7.5138,7.301,7.0986,7.0523,7.1032,7.1035,7.235,7.4157,0.0,0.0,0.0,0.0,0.0,0.0,0.0,0.0,1.9085,2.2929,2.8166,3.4444,4.2015,4.6636,5.08,5.4836,5.511,5.4068,5.1762,4.567,4.1486,3.999,3.6262,3.6905,4.2686,4.5769,4.9707,5.4648,5.631,5.71,5.71,5.71,5.71,5.7111,5.7293,5.7342,5.7183,5.4589,5.1147,4.71,4.3448,3.9255,3.4673,0.0,0.0,0.0,0.0,0.0,0.0,0.0,0.0,0.0,0.0,0.0,0.0,0.0,0.0,0.0,0.0,0.0,0.0,0.0,0.0,0.0,0.0,0.0,0.0,0.0,0.0,0.0,0.0,0.0,0.0,0.0,0.0,0.0,0.0,4.6845,5.1686,5.4285,5.7972,5.9381,5.708,5.8181,5.9713,6.1282,6.3828,6.676,7.0105,7.2901,7.4804,7.5633,7.7307,7.8076,7.7854,7.8604,7.9422,8.0277,8.0277,8.0579,8.1128,8.0885,8.0791,8.0734,8.0784,8.0742,8.0528,8.0245,7.9249,7.773,7.6118,7.5695,7.5984,7.6305,7.7123,7.8212,0.0,0.0,0.0,0.0,0.0,0.0,0.0,1.7463,2.0251,2.5207,3.1614,3.8497,4.5805,5.0998,5.5243,5.8475,5.5872,5.4708,5.6144,4.7905,4.3245,4.3892,4.2483,4.218,4.3206,5.0228,5.4713,5.6357,5.7945,5.8725,5.8687,5.8687,5.8687,5.8687,5.8687,5.8821,5.8947,5.8153,5.5575,5.1632,4.7552,4.496,4.2727,0.0,0.0,0.0,0.0,0.0,0.0,0.0,0.0,0.0,0.0,0.0,0.0,0.0,0.0,0.0,0.0,0.0,0.0,0.0,0.0,0.0,0.0,0.0,0.0,0.0,0.0,0.0,0.0,0.0,0.0,0.0,0.0,0.0,4.5129,5.1853,5.725,5.8796,6.2285,6.4133,6.3046,6.4691,6.6485,6.8161,7.0417,7.2486,7.4223,7.5673,7.696,7.7997,7.8044,7.8522,7.9503,7.9519,7.995,8.0803,8.0803,8.0844,8.0992,8.0681,8.0587,8.0578,8.0486,8.0392,8.0277,8.0661,8.0732,8.0449,7.9162,7.9215,7.992,7.9162,7.9895,8.1284,0.0,0.0,0.0,0.0,0.0,0.0,1.5961,1.7463,2.046,2.5969,3.3446,4.1104,4.853,5.4149,5.8016,5.9668,5.7268,5.5589,5.5354,4.7981,4.3976,4.4827,4.5572,4.8056,5.2494,5.4574,5.6432,5.8019,5.9059,5.9282,5.8687,5.8687,5.8687,5.8687,5.8687,5.8729,5.8791,5.8557,5.7461,5.5658,5.2389,4.9393,4.6466,0.0,0.0,0.0,0.0,0.0,0.0,0.0,0.0,0.0,0.0,0.0,0.0,0.0,0.0,0.0,0.0,0.0,0.0,0.0,0.0,0.0,0.0,0.0,0.0,0.0,0.0,0.0,0.0,0.0,0.0,0.0,4.8334,5.2666,5.2908,5.7453,6.1866,6.4736,6.7213,6.8508,6.8113,6.925,7.066,7.2206,7.35,7.4923,7.6493,7.7566,7.821,7.8448,7.9099,7.9588,7.9876,8.0168,8.0417,8.0646,8.0646,8.0664,8.0673,8.0111,7.9853,7.9853,7.9859,7.9827,7.9838,8.0364,8.0411,8.0192,8.0287,8.0376,8.0438,8.033,8.0416,8.0558,0.0,0.0,0.0,0.0,0.0,0.0,1.5961,1.7463,2.0903,2.7666,3.5112,4.276,5.0477,5.5423,5.8415,5.9031,5.6427,5.4091,5.2568,4.7445,4.5007,4.6203,4.8501,5.1825,5.6209,5.7286,5.8427,5.9765,5.9839,5.9653,5.9207,5.8873,5.8873,5.917,5.8836,5.8873,5.917,5.8836,5.8427,5.7854,5.6135,5.3956,5.1356,4.7695,4.5456,4.3908,4.1099,3.9351,3.8282,3.7745,0.0,0.0,0.0,0.0,0.0,0.0,0.0,0.0,0.0,0.0,0.0,0.0,0.0,0.0,0.0,0.0,0.0,0.0,0.0,0.0,0.0,0.0,0.0,0.0,5.5108,5.9875,6.1913,6.4109,6.6536,6.9217,7.0541,7.1423,7.2063,7.2354,7.3143,7.4704,7.5644,7.666,7.7979,7.8811,7.9257,7.9288,7.9754,8.0013,8.0065,8.0315,8.0383,8.0258,8.0258,8.0219,8.0081,7.9681,7.9528,7.9528,7.9528,7.9494,7.9445,7.9881,7.9864,7.9648,0.0,0.0,0.0,0.0,8.0382,8.0209,0.0,0.0,0.0,0.0,0.0,0.0,1.5961,1.7463,2.1427,2.9615,3.6348,4.3379,5.1314,5.5206,5.7202,5.7202,5.4304,5.1454,4.9076,4.6884,4.655,4.8444,5.1416,5.424,5.6803,5.9022,6.047,6.1038,6.047,6.0099,5.9876,5.9282,5.9356,6.0025,5.9282,5.9393,5.9988,5.9282,5.8985,5.8985,5.8873,5.7965,5.6257,5.2574,5.112,5.0659,4.7544,4.5079,4.3076,4.1845,0.0,0.0,0.0,0.0,0.0,0.0,0.0,0.0,0.0,0.0,0.0,0.0,0.0,0.0,0.0,0.0,0.0,0.0,0.0,0.0,0.0,0.0,0.0,0.0,6.1594,6.6021,7.065,7.0869,7.1036,7.2447,7.2599,7.3194,7.4661,7.4093,7.4358,7.6024,7.6867,7.7705,7.8645,7.9383,0.0,0.0,0.0,7.9961,8.0103,8.0113,7.9982,7.974,7.974,7.963,7.9413,7.934,7.9317,7.9317,7.9317,7.9246,7.9138,7.9293,7.9186,7.8954,7.9686,7.9799,7.9626,7.9737,7.9844,7.9968,0.0,0.0,0.0,0.0,0.0,0.0,1.5961,1.7463,2.1427,2.9615,3.5863,4.212,4.8899,5.3116,5.5493,5.5493,5.3125,5.0859,4.9039,4.8444,4.981,5.3413,5.4871,5.7063,6.0184,6.1373,6.1325,6.0136,6.1325,6.1213,5.9913,6.047,6.0815,6.0953,6.0778,6.0815,6.0953,6.0768,6.073,6.0656,5.995,5.8821,5.7369,5.5912,5.5032,5.434,5.2344,5.1707,5.1697,5.1499,4.8888,4.5618,4.4808,4.0653,0.0,0.0,0.0,0.0,0.0,0.0,0.0,0.0,0.0,0.0,0.0,0.0,0.0,0.0,0.0,0.0,0.0,0.0,0.0,6.1911,6.6527,7.0506,7.394,7.4391,7.4199,7.3835,7.3759,7.391,7.4211,7.4098,7.47,7.6392,7.6667,7.7119,7.7932,7.8786,7.8948,7.8307,7.8954,7.9352,7.9375,7.9517,7.9539,7.9494,7.9494,0.0,7.9413,7.9053,7.8904,7.8904,7.8904,7.8841,7.8752,7.9089,7.8841,7.8346,7.8841,7.9097,7.914,7.91,7.9103,7.9165,0.0,0.0,0.0,0.0,0.0,0.0,1.5961,1.7122,2.0684,2.8465,3.3793,3.9148,4.5231,4.8424,4.967,4.8407,4.681,4.6261,4.7033,4.9373,5.2419,5.6087,5.7881,5.9701,6.177,6.2179,6.2179,6.1733,6.2179,6.1956,6.1139,6.1176,6.141,6.1781,6.1373,6.141,6.177,6.1362,6.1187,6.115,6.0741,6.0125,5.9373,5.8097,5.7411,5.7051,5.6332,5.6014,5.5856,5.5168,5.3248,5.0896,4.9712,4.5947,4.1378,0.0,0.0,0.0,0.0,0.0,0.0,0.0,0.0,0.0,0.0,0.0,0.0,0.0,0.0,4.7573,5.1551,0.0,6.0995,6.7287,7.0132,7.2398,7.4894,7.5096,7.4823,7.4546,7.4159,7.3896,7.3896,7.3738,7.4473,7.6464,7.6442,7.6979,7.8438,7.8878,7.894,7.861,7.8998,7.9222,7.9281,7.939,7.9281,7.9089,7.9089,7.8991,7.8828,7.8541,7.8407,7.8407,7.8339,7.8257,7.8216,7.8353,7.8202,7.7877,7.7983,7.8197,7.8403,7.8353,7.8431,7.8602,0.0,0.0,0.0,0.0,0.0,0.0,0.0,1.7173,2.0254,2.7196,3.1491,3.5752,4.0489,4.2597,4.282,4.085,4.0917,4.2545,4.5992,5.0822,5.502,5.8326,6.0518,6.1956,6.2625,6.2625,6.2885,6.3368,6.2885,6.255,6.2402,6.1893,6.1993,6.2588,6.1967,6.203,6.2588,6.1919,6.1659,6.1659,6.1521,6.1436,6.125,5.9579,5.8947,5.8942,5.894,5.8216,5.7116,5.6311,5.5362,5.4294,5.2919,5.0445,4.7417,4.4113,4.1003,0.0,0.0,0.0,0.0,0.0,0.0,0.0,0.0,4.0234,4.1163,4.714,5.0592,5.4291,6.0021,6.2475,6.5571,7.1454,7.2733,7.351,7.5156,7.4903,7.4529,7.4343,7.3812,7.3478,7.3478,7.3235,7.3982,7.6182,7.6054,7.6802,7.8904,7.884,7.8878,7.9188,7.9004,7.9004,7.9162,7.92,7.9041,7.8712,7.8648,7.8501,7.8235,7.8043,7.7971,7.7957,7.7798,7.7776,7.7762,7.7599,7.7524,7.7545,7.7555,7.7714,7.7954,7.8013,7.8276,7.8675,0.0,0.0,0.0,0.0,0.0,0.0,0.0,0.0,2.1413,2.6638,3.0202,3.2755,3.4048,3.6305,3.7627,3.7371,4.1192,4.5287,4.929,5.4193,5.8427,6.1696,6.281,6.3368,6.3442,6.3479,6.3145,6.2513,6.3145,6.3108,6.2402,6.3033,6.3368,6.3442,6.3368,6.3368,6.3442,6.3368,6.333,6.3256,6.255,6.2253,6.2068,6.0396,5.9765,5.969,5.8979,5.7242,5.5532,5.6863,5.6241,5.4931,5.4904,5.3687,5.1624,4.8415,4.424,4.0146,3.8156,3.6034,3.5584,4.0653,3.9723,4.0868,0.0,5.2893,5.1601,5.8077,6.0831,6.2491,6.3925,6.6722,6.9645,7.2297,7.3998,7.5229,7.5889,7.5323,7.4236,7.2534,7.2518,7.2653,7.2653,7.261,7.34,7.5375,7.5218,7.6005,7.8275,7.7842,7.7776,7.8414,7.8113,7.8099,7.8427,7.8427,7.8414,7.8359,7.8183,7.8085,7.8028,7.7885,7.7813,7.7798,7.7673,7.7599,7.762,7.7417,7.732,7.743,7.8148,7.8473,7.8535,7.8787,7.935,8.0037,0.0,0.0,0.0,0.0,0.0,0.0,0.0,0.0,0.0,2.5148,2.7734,2.9657,3.0914,3.0686,3.0804,3.1768,3.7148,4.2434,4.7008,5.4584,6.0136,6.2959,6.4371,6.4816,6.4296,6.4296,6.3888,6.3108,6.3442,6.3442,6.3108,6.3442,6.359,6.3628,6.4073,6.4296,6.4333,6.4853,6.4742,6.4259,6.3925,6.3256,6.2216,6.0545,5.9053,5.7766,5.6948,5.5683,0.0,5.4093,5.386,5.3693,5.3777,5.2322,5.0296,4.8488,4.6126,4.3975,4.3318,4.3781,4.4789,4.6207,4.7652,5.0333,5.659,5.7188,5.7729,6.2339,6.48,6.6741,6.8729,6.9732,7.114,7.3632,7.4067,7.4262,7.4764,7.3888,7.2516,7.0596,6.9806,6.9969,7.137,7.1361,7.2357,7.4933,7.4792,7.5504,7.7622,7.7457,7.7487,7.7879,7.7835,7.7754,7.7725,7.7986,7.7986,7.7725,7.7827,7.7871,7.7871,7.7747,7.7628,7.7524,7.7463,7.7433,7.7417,7.732,7.7289,7.7399,7.8259,7.8883,7.9318,7.9421,7.9673,8.0057,0.0,0.0,0.0,0.0,0.0,0.0,0.0,0.0,0.0,0.0,2.4986,2.6677,2.8104,2.5992,2.5323,2.7461,3.3185,3.8955,4.4295,5.3395,5.986,6.281,6.4742,6.5448,6.4816,6.4816,6.4519,6.3925,6.3702,6.359,6.359,6.359,6.359,6.3628,6.4445,6.4816,6.4853,6.5745,6.5596,6.4779,6.4556,6.3628,6.2153,5.9834,5.7458,5.5285,5.4466,5.3051,5.133,4.9915,4.999,5.0651,5.0615,4.9889,4.8956,4.855,4.7793,4.7016,4.6628,4.8947,5.1374,5.087,5.4195,5.7961,5.9462,6.1069,6.3063,6.6036,6.7652,6.9197,7.137,7.0979,7.1038,7.3158,7.2989,7.2631,7.2774,7.179,7.0344,6.8304,6.6829,6.6751,6.8719,6.9162,7.064,7.3909,7.3874,7.4722,7.7003,7.7003,7.7087,7.7335,7.7365,7.7329,7.732,7.7651,7.7659,7.7441,7.7673,7.7747,7.7747,7.7841,7.7815,7.7656,7.7876,7.7986,7.7986,7.7986,7.7986,7.806,7.8919,7.9617,8.0183,8.0367,8.0477,8.055,0.0,0.0,0.0,0.0,0.0,0.0,0.0,0.0,0.0,0.0,0.0,0.0,0.0,2.2648,2.2435,2.5685,3.0492,3.6099,4.2538,5.0697,5.7069,6.1113,6.3553,6.4816,6.4816,6.4816,6.4779,6.4779,6.3999,6.359,6.359,6.359,6.359,6.3628,6.4445,6.4816,6.4853,6.5745,6.5596,6.4742,6.3962,6.3145,6.1967,5.8009,5.4987,5.2698,5.1888,4.8996,4.543,4.4514,4.4819,4.5488,4.537,4.7045,4.9196,4.9785,4.9414,4.8473,4.6834,4.8748,5.1797,5.4199,5.7725,6.1447,6.4779,6.6753,6.8511,7.0836,7.0565,7.0085,7.0564,6.983,6.9348,6.9957,7.0613,7.0813,7.0129,6.9337,6.7898,6.5508,6.3868,6.3271,6.4128,6.5609,6.813,7.1997,7.208,7.3338,7.6534,7.6289,7.6239,7.6712,7.6419,7.6583,7.7304,7.7298,7.7487,7.7769,7.7658,7.762,7.762,7.8262,7.8568,7.8589,7.9412,7.9706,7.9706,7.9706,7.9706,7.9816,8.0608,8.0938,8.1048,8.1819,8.2113,8.2113,0.0,0.0,0.0,0.0,0.0,0.0,0.0,0.0,0.0,0.0,0.0,0.0,0.0,0.0,0.0,0.0,2.8779,3.3925,3.9428,4.7864,5.4242,5.785,6.1878,6.3516,6.2439,6.3442,6.3739,6.3219,6.3479,6.359,6.359,6.359,6.359,6.3628,6.4445,6.4816,6.4816,6.5113,6.4742,6.3888,6.255,6.0885,5.9057,5.7553,5.2856,4.6874,0.0,4.363,4.1733,3.9164,3.9217,4.0368,4.0355,4.0532,4.1148,4.2902,4.5172,4.7429,4.8956,5.2217,5.5901,5.8902,6.2246,6.5386,6.7628,6.9194,7.022,7.045,6.9253,6.8111,6.7917,6.6385,6.5648,6.7085,6.8103,6.8586,6.8334,6.8514,6.7219,6.3263,6.2961,6.2394,6.0711,6.3137,6.6442,7.0365,7.0603,7.1945,7.515,7.5141,7.5428,7.6222,7.6203,7.6203,7.6256,7.6603,7.6781,7.6817,7.7196,7.7711,7.8262,7.851,7.8883,7.9412,7.9669,7.9816,7.9816,7.9816,7.9816,7.989,8.0681,8.1012,8.1122,8.1893,8.2186,8.2186,0.0,0.0,0.0,0.0,0.0,0.0,0.0,0.0,0.0,0.0,0.0,0.0,0.0,0.0,0.0,0.0,0.0,3.1034,3.5679,4.2707,4.8543,5.2752,5.5888,5.7688,5.8114,5.7695,5.7924,5.8837,5.9091,5.9658,6.0502,6.1128,6.1436,6.1473,6.255,6.3033,6.3033,6.2769,6.2186,6.1219,5.8719,5.6434,5.4316,5.2382,4.7222,0.0,3.8018,3.6436,3.5256,3.3066,3.3821,3.5706,3.5937,3.7412,3.9401,4.1214,4.4847,4.9029,5.2484,5.6275,6.0013,6.3283,6.6306,6.8689,6.9492,7.0193,7.0271,6.8829,6.6656,6.4746,6.3862,6.1756,6.1,6.3509,6.4479,6.5399,6.6893,6.7039,6.5982,6.3415,6.2709,6.1925,6.0576,6.2241,6.4706,6.7942,6.886,7.0618,7.3635,7.424,7.4865,7.5691,7.5813,7.5795,7.5707,7.6188,7.6525,7.6656,7.7417,7.8075,7.8626,7.9213,7.9727,8.0257,8.055,8.0661,8.0661,8.0661,8.0661,8.0697,8.1232,8.1415,8.1489,8.2003,8.2186,8.2186,0.0,0.0,0.0,0.0,0.0,0.0,0.0,0.0,0.0,0.0,0.0,0.0,0.0,0.0,0.0,0.0,0.0,0.0,3.1373,3.5529,4.032,4.5893,4.6272,4.8153,5.201,4.8416,4.8301,5.2017,5.1408,5.2289,5.4548,5.6233,5.7016,5.7127,5.864,5.9346,5.9282,5.8547,5.7732,5.6605,5.2586,4.9966,4.7987,4.3234,3.8804,3.4662,3.0789,2.8239,2.6696,2.6807,2.9105,3.2046,3.2641,3.7734,4.369,4.4626,4.8379,5.3125,5.7152,6.0603,6.3858,6.7234,6.9655,7.1041,7.0372,6.9837,6.8728,6.6072,6.3026,6.0295,5.8445,5.6198,5.5794,5.9354,6.016,6.1748,6.5795,6.5041,6.4471,6.5597,6.3163,6.195,6.329,6.2847,6.3229,6.5029,6.7054,6.9404,7.217,7.3583,7.4565,7.5189,7.5225,7.537,7.5672,7.6072,7.6607,7.7295,7.8154,7.861,7.8699,8.0277,8.1012,8.1122,8.1856,8.2186,8.2186,8.2186,8.2186,8.2186,8.2186,8.2186,8.2186,8.2186,8.2186,8.2186,0.0,0.0,0.0,0.0,0.0,0.0,0.0,0.0,0.0,0.0,0.0,0.0,0.0,0.0,0.0,0.0,0.0,0.0,2.6435,3.0415,3.4416,3.8333,4.1365,4.3715,4.5413,4.6153,4.6682,4.7048,4.8018,4.8788,4.9417,4.9843,5.037,5.0963,5.138,5.1565,5.1491,5.0832,4.9653,4.8107,4.5881,4.3638,4.1527,4.0688,3.6804,3.1653,3.1083,2.8294,2.5125,2.6927,3.0931,3.5264,3.5994,3.9578,4.402,4.6617,5.1269,5.6455,6.0481,6.398,6.7076,6.9784,7.0431,7.0141,6.9181,6.7751,6.5504,6.1506,5.8132,5.4963,5.1948,5.2012,5.3408,5.6039,5.9915,6.3385,6.564,6.7102,6.7155,6.513,6.5233,6.5034,6.3812,6.456,6.5371,6.5877,6.7271,6.9453,7.2513,7.3565,7.4404,7.5189,7.5225,7.5225,7.5334,7.5691,7.6205,7.6929,7.7769,7.8608,7.9522,8.0534,8.1342,8.1893,8.2113,8.2186,8.2186,8.2186,8.2186,8.2186,8.2186,8.2186,8.2186,8.2186,8.2186,8.2186,0.0,0.0,0.0,0.0,0.0,0.0,0.0,0.0,0.0,0.0,0.0,0.0,0.0,0.0,0.0,0.0,0.0,0.0,0.0,2.6122,2.8905,3.1831,3.3424,3.5134,3.7044,3.6937,3.7299,3.8125,3.9407,4.04,4.1086,4.2205,4.2968,4.3413,4.4116,4.4449,4.4383,4.3338,4.2091,0.0,0.0,3.6672,3.4791,3.4679,3.1777,2.7764,2.813,2.8081,2.8374,3.1531,3.5422,3.9203,4.0716,4.4204,4.8306,5.1196,5.5563,6.015,6.349,6.6806,6.9495,7.0344,7.0342,6.9301,6.6209,6.414,6.1271,5.5749,5.2408,4.9468,4.6178,4.7374,4.9805,5.2688,5.7273,6.1787,6.5542,6.7112,6.7714,6.727,6.7659,6.7544,6.6318,6.7013,6.7656,6.8079,6.8522,6.9813,7.2206,7.3403,7.435,7.5189,7.5225,7.5262,7.5407,7.5602,7.607,7.6785,7.7968,7.8967,7.9853,8.1012,8.1782,8.2186,8.2186,8.2186,8.2186,8.2186,8.2186,8.2186,8.2186,8.2186,8.2186,8.2186,8.2406,8.2737,0.0,0.0,0.0,0.0,0.0,0.0,0.0,0.0,0.0,0.0,0.0,0.0,0.0,0.0,0.0,0.0,0.0,0.0,0.0,0.0,2.4073,2.6435,2.5154,2.5785,2.8801,2.6169,2.5987,2.8503,2.9391,3.0516,3.1888,3.4079,3.5183,3.5331,3.6737,3.7403,3.7447,3.612,3.5076,3.4142,3.1926,3.0089,2.8519,0.0,2.603,2.4231,2.4562,2.8002,3.314,3.7771,4.1148,4.3864,4.6287,5.0325,5.4645,5.7068,6.0481,6.3967,6.6329,6.9068,7.103,6.993,6.9547,6.8037,6.2499,5.9669,5.6289,4.96,4.6502,4.4126,4.1278,4.3034,4.613,4.995,5.4124,5.9137,6.5597,6.64,6.7388,7.0177,6.9962,6.9605,6.9605,6.9712,7.0087,7.0838,7.0452,7.0729,7.1918,7.3363,7.4493,7.5189,7.5134,7.5262,7.562,7.5531,7.5864,7.6656,7.8274,7.9291,7.9789,8.1436,8.2186,8.2186,8.2186,8.2186,8.2186,8.2186,8.2186,8.2186,8.2186,8.2186,8.2186,8.2186,8.27,8.3381,0.0,0.0,0.0,0.0,0.0,0.0,0.0,0.0,0.0,0.0,2.6356,0.0,0.0,0.0,0.0,0.0,0.0,0.0,0.0,0.0,0.0,2.3055,2.2864,2.3607,2.5501,2.5564,2.5504,2.5394,2.6028,2.6499,2.6769,2.7175,2.77,2.8351,2.8614,2.9135,2.9735,2.9564,2.8999,2.8126,2.778,2.6615,2.5083,2.4902,0.0,0.0,2.6471,2.9077,3.2749,4.0165,4.5626,4.9738,5.216,5.5794,5.9648,6.2108,6.4763,6.721,6.9009,7.0367,7.1073,7.0223,6.805,6.4838,5.9941,5.5542,5.0832,4.4859,4.1821,3.9758,3.8272,4.1221,4.5388,5.0061,5.4903,6.0164,6.6083,6.7382,6.8451,7.0283,7.0942,7.1264,7.1264,7.1834,7.2389,7.2846,7.3099,7.3332,7.3581,7.451,7.5082,7.5225,7.4857,7.4858,7.5191,7.4525,7.475,7.5845,7.7503,7.8647,7.938,8.1322,8.2186,8.2186,8.2186,8.2186,8.2186,8.2186,8.2186,8.2186,8.2186,8.2186,8.2186,8.2186,8.27,8.3381,0.0,0.0,0.0,0.0,0.0,0.0,0.0,0.0,0.0,0.0,3.2881,3.0461,0.0,0.0,0.0,0.0,0.0,0.0,0.0,0.0,0.0,0.0,2.0987,2.1362,2.2147,2.2892,2.2888,2.2032,0.0,2.2852,2.2324,2.2773,2.3134,2.3446,2.3896,2.4557,2.5296,2.536,2.513,2.4777,2.525,2.4688,2.3634,0.0,0.0,0.0,2.6948,3.0173,3.3984,3.877,4.559,5.2627,5.5856,5.9391,6.2622,6.4237,6.6439,6.8385,6.8765,7.0036,7.0751,6.8522,6.5873,6.223,5.6122,5.1359,4.6545,4.052,3.8064,3.6624,3.5242,3.9104,4.3336,4.6092,5.0823,5.6397,6.282,6.4155,6.5804,6.9427,7.1299,7.212,7.1727,7.2762,7.3493,7.3704,7.3885,7.4081,7.4307,7.4698,7.4875,7.4875,7.4444,7.4329,7.4449,7.4081,7.4258,7.5064,7.691,7.8171,7.8957,8.095,8.1885,8.1885,8.1885,8.1885,8.1885,8.1885,8.2022,8.2186,8.2186,8.2186,8.226,8.2663,8.3324,8.4078,0.0,0.0,0.0,0.0,0.0,0.0,0.0,3.0495,3.2875,3.9795,3.943,3.6537,3.1268,2.6714,2.3314,0.0,0.0,0.0,0.0,0.0,0.0,0.0,0.0,0.0,1.9782,0.0,0.0,1.9978,2.0406,0.0,0.0,0.0,0.0,0.0,2.1478,2.2249,2.3006,2.3006,2.3116,0.0,0.0,2.3823,2.3341,0.0,0.0,0.0,0.0,3.0246,3.391,3.6787,4.3351,5.1159,5.571,6.0089,6.3699,6.431,6.6352,6.8274,6.7811,6.9192,7.0026,6.6806,6.3859,5.9863,5.2643,4.7559,4.2693,3.6794,3.4869,3.4017,3.3283,3.7082,4.0906,4.2696,4.6817,5.2214,5.9212,6.097,6.3387,6.8428,7.1264,7.2548,7.1977,7.3333,7.4243,7.4243,7.4243,7.4364,7.4577,7.4593,7.4536,7.446,7.4018,7.3782,7.3782,7.3782,7.3994,7.4521,7.642,7.7825,7.8796,8.0525,8.1441,8.1579,8.151,8.1476,8.1476,8.1476,8.1717,8.2088,8.2088,8.2231,8.2517,8.3161,8.4005,8.4939,0.0,0.0,0.0,0.0,0.0,0.0,0.0,3.2498,3.6635,4.4207,4.2398,3.9252,3.6395,3.2125,2.7233,0.0,0.0,0.0,0.0,0.0,0.0,0.0,0.0,0.0,0.0,0.0,0.0,2.0874,2.0175,0.0,0.0,0.0,0.0,0.0,0.0,2.2249,2.3006,2.3006,0.0,0.0,0.0,0.0,0.0,0.0,0.0,0.0,0.0,2.8086,2.9512,3.6303,3.9717,4.2221,4.8499,5.5695,6.1851,6.1924,6.42,6.6843,6.7517,6.8385,6.861,6.6528,6.2582,5.7522,5.0903,4.4698,3.8992,3.4193,3.2085,3.1706,3.3638,3.5521,3.8473,4.373,4.6723,5.0776,5.7658,6.1031,6.4143,6.7786,7.0942,7.2762,7.2691,7.4154,7.5082,7.5082,7.5082,7.4934,7.4612,7.4593,7.4422,7.3979,7.3562,7.3375,7.3375,7.3375,7.3708,7.4446,7.6065,7.768,7.9179,8.0097,8.0912,8.1562,8.1196,8.1055,8.1055,8.1055,8.1302,8.1666,8.1666,8.2308,8.3308,8.3381,8.4389,8.571,0.0,0.0,0.0,0.0,0.0,0.0,0.0,3.3654,3.7093,4.6883,4.6042,4.3722,4.1587,3.7545,3.1254,0.0,0.0,0.0,0.0,0.0,0.0,0.0,0.0,0.0,0.0,0.0,2.0198,2.0997,2.067,0.0,0.0,0.0,0.0,0.0,0.0,2.2264,2.3006,2.3006,0.0,0.0,0.0,0.0,0.0,0.0,0.0,0.0,0.0,0.0,2.8882,3.1311,3.4952,3.8733,4.0304,4.603,5.3115,5.7997,6.1741,6.4554,6.5888,6.754,6.8394,6.611,6.1592,5.6246,5.0713,4.3841,3.7562,3.37,3.174,3.1119,3.2465,3.3559,3.5749,4.0343,4.1198,4.3837,5.1243,5.3998,5.7568,6.3658,6.7684,7.0728,7.262,7.4261,7.5225,7.5225,7.5225,7.4894,7.4213,7.4174,7.4096,7.392,7.3258,7.2943,7.2943,7.2943,7.3324,7.4051,7.5694,7.7311,7.8898,8.0152,8.093,8.125,8.1055,8.0894,8.0712,8.0712,8.0894,8.1286,8.1777,8.2265,8.2788,8.3789,8.466,8.5492,0.0,0.0,0.0,0.0,0.0,0.0,3.4043,3.4695,3.7751,4.7657,4.7192,4.5585,4.4557,3.9071,3.2451,2.4943,0.0,0.0,0.0,0.0,0.0,0.0,0.0,0.0,0.0,0.0,2.069,2.1748,2.197,2.261,0.0,0.0,2.3135,2.2992,0.0,0.0,0.0,0.0,0.0,0.0,0.0,0.0,0.0,0.0,0.0,0.0,0.0,0.0,0.0,0.0,0.0,3.4945,3.4718,3.8534,4.4635,5.2747,5.8107,6.1728,6.338,6.5802,6.7266,6.4908,6.0236,5.4889,4.9817,4.2734,3.6287,3.2926,3.1214,3.0593,3.1361,3.2455,3.4352,3.7743,3.8081,4.0329,4.723,4.9811,5.3419,6.0002,6.4131,6.7745,7.1016,7.36,7.5005,7.5005,7.4894,7.4539,7.3924,7.3801,7.3682,7.3562,7.3217,7.2943,7.2692,7.3088,7.3553,7.4141,7.5799,7.7433,7.8993,8.0242,8.0894,8.0984,8.0912,8.0657,8.032,8.032,8.0672,8.1238,8.1797,8.2377,8.3066,8.4188,8.4991,8.5627,0.0,0.0,0.0,0.0,0.0,0.0,0.0,3.582,3.934,4.6229,4.491,4.3669,4.4516,3.5427,2.9895,3.1455,0.0,0.0,0.0,0.0,0.0,0.0,0.0,0.0,0.0,0.0,2.1785,2.3479,2.4257,2.5489,2.703,2.6153,2.5728,2.5606,0.0,0.0,0.0,0.0,0.0,0.0,0.0,0.0,0.0,0.0,0.0,0.0,0.0,0.0,0.0,0.0,0.0,0.0,0.0,3.4981,3.7991,4.603,5.2968,5.84,6.0015,6.2829,6.4804,6.2581,5.8283,5.3194,4.7688,4.0832,3.4694,3.1389,3.0075,2.9765,3.0567,3.2568,3.4845,3.7122,3.941,4.2569,4.7505,5.0823,5.4119,5.7711,6.0752,6.3969,6.7588,7.1995,7.4593,7.4593,7.4174,7.392,7.392,7.3522,7.3129,7.2713,7.3481,7.3522,7.2713,7.3955,7.4672,7.4912,7.6572,7.8203,7.9685,8.0196,8.0622,8.0966,8.0639,8.0283,7.9899,7.9899,8.056,8.1604,8.1604,8.284,8.4569,8.4605,8.5354,8.6374,0.0,0.0,0.0,0.0,0.0,0.0,0.0,3.0871,3.3076,3.9301,3.8417,3.7998,4.0013,3.372,2.9521,2.9942,0.0,0.0,0.0,0.0,0.0,0.0,0.0,0.0,0.0,0.0,2.3506,2.6839,2.7711,2.9237,3.1389,2.9954,2.8938,2.8222,2.6194,2.5244,0.0,0.0,0.0,0.0,0.0,0.0,2.4194,0.0,0.0,0.0,0.0,0.0,0.0,0.0,0.0,0.0,0.0,0.0,0.0,3.8836,4.5892,5.2469,5.3502,5.5982,5.7632,5.5014,5.2051,4.8638,4.4266,3.9136,3.4471,3.1344,3.0075,2.9765,3.0567,3.1292,3.3534,3.8951,3.9537,4.116,4.6363,5.0235,5.3918,5.7605,6.4852,7.0096,7.1534,7.3427,7.446,7.4155,7.3999,7.3782,7.3502,7.3622,7.3522,7.3129,7.3108,7.2963,7.2692,7.336,7.4005,7.46,7.6241,7.7705,7.8972,7.9998,8.0658,8.0966,8.0639,8.0433,8.0283,7.9996,8.01,8.0538,8.1595,8.2389,8.3079,8.4191,8.5022,8.561,0.0,0.0,0.0,0.0,0.0,0.0,0.0,2.8085,2.9205,3.3924,3.2769,3.2854,3.6381,3.0608,2.7507,2.9989,0.0,0.0,0.0,0.0,0.0,0.0,0.0,0.0,2.0997,2.1854,2.4478,2.8904,3.0377,3.2367,3.4771,3.4052,3.2524,3.0375,2.8161,2.66,0.0,0.0,0.0,0.0,0.0,0.0,2.3833,0.0,0.0,0.0,0.0,0.0,0.0,0.0,0.0,0.0,0.0,0.0,0.0,0.0,3.891,4.4373,4.7734,5.0875,5.262,5.0305,4.7808,4.4987,4.1571,3.7209,3.3224,3.0731,2.9834,2.9653,3.0144,3.0938,3.3017,3.7571,3.8261,3.9824,4.4539,4.8681,5.3166,5.8248,6.5767,7.0823,7.1586,7.303,7.3931,7.3905,7.3622,7.334,7.3108,7.3299,7.3319,7.3088,7.315,7.3026,7.2692,7.3238,7.3906,7.4639,7.6031,7.7174,7.8224,7.9627,8.0207,8.0134,8.0365,8.0415,0.0,8.0318,8.0506,8.0899,8.2148,8.2826,8.3218,8.4232,8.4839,8.5258,0.0,0.0,0.0,0.0,0.0,0.0,0.0,0.0,0.0,0.0,2.812,2.8397,3.3091,2.6457,2.4259,0.0,0.0,0.0,0.0,0.0,0.0,0.0,0.0,0.0,2.1075,2.2004,2.497,3.0044,3.2513,3.5071,3.763,3.8338,3.6455,3.2367,3.0562,2.8259,2.5643,0.0,0.0,0.0,0.0,0.0,0.0,0.0,0.0,0.0,0.0,0.0,0.0,0.0,0.0,0.0,0.0,0.0,0.0,0.0,0.0,0.0,0.0,4.6632,4.8753,4.7236,4.4535,4.1617,3.9094,3.4985,0.0,2.973,2.9386,2.9411,2.9618,3.1317,3.3076,3.4362,3.6363,3.9043,4.2765,4.7285,5.2803,5.9854,6.4536,6.7714,6.891,7.1359,7.3148,7.381,7.3101,7.2623,7.2692,7.2657,7.2623,7.2692,7.3421,7.3461,7.2713,7.3481,7.4196,7.4883,7.5792,7.6596,7.7401,7.9053,7.9413,7.8907,7.9962,8.0264,8.001,8.0775,8.1505,8.2219,8.3075,8.386,8.4518,8.4554,8.4855,8.5218,0.0,0.0,0.0,0.0,0.0,0.0,0.0,0.0,0.0,0.0,2.6171,2.5762,2.5684,2.3312,2.2357,0.0,0.0,0.0,0.0,0.0,0.0,0.0,0.0,0.0,2.197,2.3389,2.7186,3.3462,3.5935,3.9083,4.2762,4.2318,3.9921,3.5828,3.351,2.9961,2.5652,2.4873,0.0,0.0,0.0,0.0,0.0,0.0,0.0,0.0,2.4897,2.5626,0.0,0.0,0.0,0.0,0.0,0.0,0.0,0.0,3.0351,3.1453,3.3399,0.0,3.8213,3.6139,3.5456,3.4822,0.0,3.1795,3.0533,2.8972,2.8213,2.8523,3.0834,3.0731,3.2283,3.833,3.9756,4.1679,4.6226,5.3331,5.9878,6.481,6.8945,7.1321,7.119,7.2689,7.3571,7.3461,7.2395,7.2071,7.2657,7.214,7.2071,7.2692,7.288,7.2901,7.2692,7.3176,7.3546,7.372,7.4842,7.5979,7.7034,7.8064,7.9103,8.0071,8.0059,8.015,8.0411,8.0892,8.1184,8.1505,8.2861,8.3504,8.3753,8.4396,8.4671,8.4814,0.0,0.0,0.0,0.0,0.0,0.0,0.0,0.0,0.0,0.0,0.0,0.0,0.0,0.0,0.0,0.0,0.0,0.0,0.0,0.0,0.0,0.0,0.0,2.0769,2.227,2.3506,2.7411,3.4057,3.6154,3.9683,4.4482,4.4038,4.183,3.8049,3.3227,2.9077,2.5652,2.492,2.4289,0.0,2.422,0.0,0.0,0.0,0.0,0.0,2.4672,2.5585,0.0,2.8374,2.9738,3.0687,0.0,0.0,0.0,0.0,2.8778,2.9167,2.9487,3.2706,3.5548,3.3793,3.3534,3.3359,3.2028,3.0636,2.9325,2.8152,2.7833,2.842,3.0386,3.1027,3.2794,3.7523,3.9961,4.3648,5.055,5.645,6.1874,6.6689,6.9477,7.1179,7.1746,7.2451,7.2731,7.2415,7.1841,7.1491,7.1511,7.1181,7.1346,7.214,7.214,7.2347,7.2692,7.2922,7.3197,7.3547,7.4042,7.4998,7.6328,7.7162,7.8232,7.9422,7.974,8.0015,8.0314,8.1211,8.1612,8.1755,8.3325,8.3967,8.4003,8.4431,8.4589,8.4651,0.0,0.0,0.0,0.0,0.0,0.0,0.0,0.0,0.0,0.0,0.0,0.0,0.0,0.0,0.0,0.0,0.0,0.0,0.0,0.0,0.0,0.0,2.018,2.1041,2.3023,2.3487,2.7077,3.3977,3.5897,3.9533,4.4714,4.5465,4.367,3.9477,3.213,2.7769,2.5865,2.4966,2.4108,2.3446,2.4106,0.0,0.0,0.0,0.0,0.0,0.0,0.0,0.0,2.8778,3.0252,3.1133,3.0766,0.0,0.0,0.0,0.0,0.0,2.87,3.29,3.6569,3.4758,3.4273,3.3957,3.2727,3.0412,2.8361,2.7748,2.8128,2.8929,3.0162,3.2156,3.4235,3.6136,4.032,4.6301,5.4886,5.846,6.2045,6.7054,6.8591,6.9865,7.1497,7.1631,7.1527,7.1319,7.1229,7.0864,7.0141,7.0189,7.0622,7.1463,7.1498,7.1898,7.2692,7.2692,7.2998,7.3637,7.3325,7.4097,7.5736,7.6462,7.739,7.8434,7.9458,7.988,7.9987,8.1434,8.2112,8.2362,8.386,8.4482,8.4589,8.4589,8.4589,8.4651,0.0,0.0,0.0,0.0,0.0,0.0,0.0,0.0,0.0,0.0,0.0,0.0,0.0,0.0,0.0,0.0,0.0,0.0,0.0,0.0,0.0,2.1391,2.053,2.2138,2.6529,2.5228,2.8462,3.6541,3.9571,4.2612,4.5622,4.9873,4.7845,4.0365,3.4163,2.9727,2.6784,2.5257,2.4409,2.4136,2.434,0.0,0.0,0.0,0.0,0.0,0.0,0.0,0.0,2.5999,2.8013,3.0026,2.797,0.0,0.0,0.0,0.0,0.0,2.976,3.3959,3.625,3.1413,3.1224,3.1948,3.0728,2.9823,2.9222,2.9085,2.9188,3.0324,3.3842,3.4713,3.6502,4.1441,4.6873,5.2457,5.8116,6.1721,6.4818,6.7521,6.9879,7.1302,7.1446,7.154,7.1511,7.1319,7.0258,6.9761,7.0072,6.9706,7.0104,7.1463,7.1498,7.1898,7.2692,7.2692,7.2755,7.2866,7.2818,7.4003,7.6222,7.6328,7.7554,7.9624,7.9825,7.988,7.9971,8.0899,8.1648,8.229,8.3218,8.4003,8.4589,8.4589,8.4589,8.461,0.0,0.0,0.0,0.0,0.0,0.0,0.0,0.0,0.0,0.0,0.0,0.0,0.0,0.0,0.0,0.0,0.0,0.0,0.0,0.0,2.2937,2.5684,2.4396,2.5076,2.8213,3.0162,3.3809,3.9248,4.3044,4.5854,4.7687,4.7808,4.4615,3.8569,3.3162,2.9134,2.6311,2.5157,2.4551,2.4347,0.0,0.0,0.0,0.0,0.0,0.0,0.0,0.0,0.0,0.0,2.8563,3.0503,2.8515,0.0,0.0,0.0,0.0,0.0,2.9332,3.2509,3.4716,3.2719,3.4679,3.6617,3.485,3.3342,3.2403,3.2692,3.2413,3.3178,3.6709,3.8464,4.1655,4.867,5.2858,5.6664,6.0751,6.291,6.5122,6.8023,6.9439,7.0238,7.0558,7.0721,7.0438,6.9647,6.9267,6.8918,6.8555,6.8621,6.9285,7.0678,7.0457,7.107,7.2692,7.2278,7.2278,7.2692,7.2692,7.3934,7.6297,7.6297,7.7605,7.988,7.988,7.988,7.9951,8.0756,8.1291,8.1719,8.2933,8.3611,8.4003,8.4431,8.4589,8.4589,0.0,0.0,0.0,0.0,0.0,0.0,0.0,0.0,0.0,0.0,0.0,0.0,0.0,0.0,0.0,0.0,0.0,0.0,0.0,0.0,2.3837,2.8582,2.8365,2.943,3.2231,3.5517,3.9043,4.287,4.6884,4.9442,5.0496,4.6186,4.1755,3.718,3.239,2.86,2.5814,2.4994,2.4555,2.4417,0.0,0.0,0.0,0.0,0.0,0.0,0.0,0.0,0.0,0.0,0.0,0.0,0.0,0.0,0.0,2.8851,2.7824,2.7897,2.9647,3.1714,3.3712,3.5196,3.7917,4.005,3.9322,3.7253,3.5888,3.7266,3.706,3.741,3.9936,4.2939,4.741,5.4628,5.7677,6.0121,6.3151,6.4369,6.5926,6.859,6.8964,6.9194,6.9778,6.9757,6.9273,6.8192,6.8435,6.8254,6.7318,6.7759,6.8599,6.9777,6.9465,7.0311,7.2416,7.1829,7.1898,7.2692,7.2692,7.3934,7.6297,7.6297,7.7605,7.988,7.988,7.988,7.9971,8.0577,8.0934,8.122,8.2576,8.3325,8.3753,8.4396,8.4589,8.4589,0.0,0.0,0.0,0.0,0.0,0.0,0.0,0.0,0.0,0.0,0.0,0.0,0.0,0.0,0.0,0.0,0.0,0.0,0.0,0.0,2.329,2.6821,3.0681,3.5631,4.1866,3.9965,4.1911,4.8074,5.1471,5.3445,5.3921,4.9039,4.3707,3.8031,3.3757,2.9673,2.5946,2.5003,2.4543,2.4417,2.4417,0.0,0.0,0.0,0.0,0.0,0.0,0.0,0.0,0.0,0.0,0.0,0.0,0.0,3.0167,2.9207,2.7849,2.7671,3.2228,3.3603,3.4465,3.7387,3.7183,3.7219,4.1126,3.972,3.8681,4.2494,4.3254,4.3477,4.4389,4.8271,5.2727,5.6927,6.045,6.3337,6.5296,6.7486,6.8967,6.925,6.9442,6.9545,6.9616,6.8948,6.8408,6.8103,6.7954,6.7767,6.751,6.7699,6.8163,6.8966,6.919,7.0035,7.1567,7.1532,7.1898,7.2692,7.2692,7.3934,7.6297,7.6297,7.7605,7.988,7.988,7.988,7.988,7.9951,8.0435,8.1184,8.1969,8.3218,8.4518,8.4554,8.4589,8.4589,0.0,0.0,0.0,0.0,0.0,0.0,0.0,0.0,0.0,0.0,0.0,0.0,0.0,0.0,0.0,0.0,0.0,0.0,0.0,2.2516,2.4994,3.0521,3.2326,3.6115,4.2307,4.6144,4.9601,5.2698,5.3626,5.34,5.1976,4.6479,4.1072,3.5822,3.2187,2.9411,2.7407,2.6035,2.5979,2.6637,2.5114,2.4255,0.0,0.0,0.0,0.0,0.0,0.0,0.0,0.0,2.5988,2.7016,2.6833,2.8674,3.0693,2.939,2.8222,2.786,3.0167,3.2626,3.4926,3.646,3.8593,4.0908,4.3366,4.3581,4.4214,4.7493,4.8348,4.8988,5.0554,5.2726,5.5607,5.9657,6.1718,6.386,6.6825,6.7588,6.823,6.9177,6.9346,6.9317,6.9071,6.9116,6.8914,6.8319,6.8083,6.7799,6.7346,6.7618,6.8082,6.8713,6.8593,6.9638,7.1929,7.1193,7.1573,7.3088,7.3088,7.4217,7.6318,7.6579,7.7843,7.988,7.988,7.988,7.988,7.988,8.0078,8.047,8.1719,8.3182,8.4589,8.4589,8.4589,8.4589,0.0,0.0,0.0,0.0,0.0,0.0,0.0,0.0,0.0,0.0,0.0,0.0,0.0,0.0,0.0,0.0,0.0,0.0,2.3324,2.3408,2.5965,3.1768,3.3026,3.6376,4.2359,4.9722,5.3716,5.4146,5.4759,5.3217,4.9536,4.4752,4.012,3.5634,3.233,3.0678,3.018,2.7786,2.7332,2.8025,2.5576,2.4356,0.0,0.0,0.0,0.0,0.0,0.0,0.0,0.0,2.4924,2.5988,2.6691,2.8784,3.0834,3.002,2.9543,2.9439,2.9977,3.2326,3.4969,3.6419,3.9912,4.3662,4.6279,4.7173,4.8576,5.2501,5.3041,5.3294,5.4959,5.5538,5.6958,6.0599,6.2242,6.4037,6.6822,6.6997,6.7261,6.8531,6.8714,6.8699,6.8611,6.9085,6.9194,6.8628,6.8338,6.7999,6.7496,6.7678,6.7918,6.8144,6.824,6.9263,7.134,7.0962,7.1503,7.2931,7.3457,7.4482,7.5946,7.6596,7.7857,7.9543,7.9792,7.988,7.988,7.988,8.0185,8.072,8.1791,8.304,8.4253,8.4503,8.4431,8.4253,0.0,0.0,0.0,0.0,0.0,0.0,0.0,0.0,0.0,0.0,0.0,0.0,0.0,0.0,0.0,0.0,0.0,0.0,2.4253,2.4306,2.5814,2.9235,3.2593,3.7148,4.3053,4.9877,5.2858,5.1849,5.4923,5.3327,4.7327,4.4755,4.167,3.8144,3.4878,3.3869,3.4325,3.018,2.8404,2.8105,2.5634,2.4169,2.339,0.0,0.0,0.0,0.0,0.0,0.0,0.0,2.4194,2.4887,2.8888,3.0173,3.0356,3.1133,3.1935,3.2589,3.2583,3.3176,3.4614,3.7881,4.0872,4.443,4.9884,5.0269,5.1224,5.7453,5.7299,5.6262,5.7013,5.6531,5.6867,5.9421,6.2019,6.4125,6.5158,6.5922,6.6612,6.72,6.7404,6.7712,6.8328,6.874,6.8991,6.8973,6.8593,6.8319,6.8103,6.7885,6.7597,6.7201,6.8162,6.8957,6.9505,7.0895,7.1762,7.2116,7.3803,7.4772,7.5118,7.6329,7.7573,7.8741,7.9543,7.988,7.988,7.988,8.0827,8.2183,8.2183,8.2683,8.3524,8.4324,8.411,8.3524,0.0,0.0,0.0,0.0,0.0,0.0,0.0,0.0,0.0,0.0,0.0,0.0,0.0,0.0,0.0,0.0,0.0,0.0,2.4221,2.4305,2.5543,2.8364,3.1133,3.3747,3.6087,4.1689,4.7808,5.4462,5.3276,4.9961,4.4668,4.2617,3.9857,3.661,3.6166,3.5189,3.3601,3.1194,3.0132,2.9914,2.802,2.6727,2.5865,0.0,0.0,0.0,0.0,0.0,0.0,0.0,0.0,0.0,2.5925,2.8784,3.0876,2.9983,3.0687,3.1494,3.0381,3.2773,3.6193,3.8872,4.4445,5.006,5.3023,5.3181,5.4177,5.9323,5.9325,5.8621,5.9421,5.885,5.8758,6.0334,6.1631,6.3153,6.5035,6.4999,6.5214,6.6302,6.6497,6.676,6.736,6.8001,6.8381,6.8355,6.7624,6.7178,6.7114,6.6856,6.6676,6.6589,6.7827,6.8957,6.9973,7.1049,7.2069,7.3031,7.409,7.4772,7.5138,7.6621,7.7842,7.8741,7.9543,7.988,7.988,7.988,8.0827,8.2183,8.2183,8.304,8.4289,8.4518,8.4467,8.4289,0.0,0.0,0.0,0.0,0.0,0.0,0.0,0.0,0.0,0.0,2.2791,2.3351,0.0,0.0,0.0,0.0,0.0,0.0,0.0,2.5307,2.6432,2.8979,3.1248,3.3897,3.7077,4.0528,4.4728,4.9735,4.8529,4.5813,4.1733,4.1859,4.0973,3.9383,4.0516,3.9658,3.7174,3.484,3.3237,3.2183,3.0541,2.9331,2.8451,0.0,0.0,0.0,0.0,0.0,0.0,0.0,0.0,0.0,2.3791,2.6324,2.8674,2.9286,3.0607,3.2008,3.2699,3.5708,3.9423,4.247,4.7902,5.3232,5.6067,5.7064,5.8223,6.1358,6.1244,6.0696,6.1179,6.0534,6.0026,6.0287,6.1429,6.2613,6.3581,6.3558,6.3905,6.5163,6.5584,6.6107,6.6916,6.7676,6.8082,6.8081,6.7287,6.6746,6.6593,6.624,6.6126,6.6399,6.7588,6.8787,6.997,7.1379,7.2434,7.3169,7.4137,7.4803,7.517,7.6766,7.7758,7.8313,7.94,7.988,7.988,7.988,8.0827,8.2183,8.2183,8.279,8.3682,8.4003,8.3753,8.3289,0.0,0.0,0.0,0.0,0.0,0.0,0.0,0.0,0.0,0.0,2.3508,2.4111,0.0,0.0,0.0,0.0,0.0,0.0,0.0,0.0,2.7939,3.0505,3.255,3.6554,4.2821,4.3428,4.255,4.0221,4.1812,4.1269,3.8775,4.1961,4.3794,4.4486,4.6073,4.5322,4.2618,3.9201,3.6385,3.4138,3.2518,3.1494,3.0761,2.9691,0.0,0.0,0.0,0.0,0.0,0.0,0.0,0.0,2.2456,2.3598,2.5039,2.8778,3.1158,3.3433,3.7323,4.0296,4.3314,4.7489,5.1212,5.4894,5.8911,6.1141,6.253,6.3178,6.2893,6.25,6.2429,6.1807,6.0904,5.9718,6.1379,6.2469,6.1437,6.1893,6.2745,6.3895,6.4719,6.5601,6.6711,6.7464,6.7909,6.7931,6.7199,6.6634,6.634,6.5738,6.5774,6.6436,6.7358,6.8388,6.9492,7.1624,7.2727,7.2798,7.4003,7.4731,7.5153,7.665,7.7399,7.758,7.9043,7.9702,7.9792,7.9792,8.072,8.2112,8.2112,8.2148,8.229,8.3075,8.2504,8.1505,0.0,0.0,0.0,0.0,0.0,0.0,0.0,0.0,0.0,0.0,0.0,0.0,0.0,0.0,0.0,0.0,0.0,0.0,0.0,0.0,2.7981,3.0481,3.4794,3.8111,4.0274,3.7876,3.6337,3.5775,3.7847,3.8289,3.7264,4.0728,4.2856,4.3844,4.4654,4.295,3.912,3.5108,3.2775,3.1611,3.0603,3.0442,3.0518,2.8488,2.6217,0.0,0.0,0.0,0.0,0.0,0.0,0.0,2.2272,2.4006,2.5448,2.6943,2.9873,3.306,3.5224,3.8975,4.3571,4.893,5.4418,5.9103,6.1298,6.2207,6.2584,6.2545,6.3377,6.3912,6.3285,6.3036,6.234,6.0625,6.1411,6.2056,6.1389,6.1515,6.2112,6.3261,6.3962,6.462,6.5292,6.5917,6.6439,6.6727,6.5635,6.5127,6.5503,6.466,6.4551,6.5318,6.6802,6.7944,6.8645,7.0842,7.2227,7.2798,7.3707,7.4491,7.5206,7.5835,7.66,7.7508,7.7865,7.8365,7.8936,7.8936,7.9899,8.1327,8.1327,8.1684,8.229,8.3075,8.3203,8.304,0.0,0.0,0.0,0.0,0.0,0.0,0.0,0.0,0.0,0.0,0.0,0.0,0.0,0.0,0.0,0.0,0.0,0.0,0.0,0.0,2.914,3.289,3.6765,3.8456,3.7694,3.5134,3.3216,3.2014,3.2697,3.403,3.6021,4.0182,4.3001,4.4654,4.5754,4.3287,3.8144,3.601,3.3676,3.1536,3.2367,3.1919,3.0707,2.9866,2.6984,2.3227,2.1931,0.0,0.0,0.0,0.0,0.0,0.0,0.0,2.3098,2.6245,2.9213,3.2406,3.6729,4.147,4.6617,5.2747,5.6965,5.9907,6.0987,6.1543,6.1722,6.1408,6.2754,6.3805,6.3036,6.3178,6.2675,6.0449,6.1218,6.1658,6.037,6.0943,6.1787,6.2578,6.3271,6.3847,6.4314,6.4966,6.5346,6.5318,6.474,6.4445,6.4576,6.3738,6.3871,6.5223,6.6043,6.7195,6.8804,7.0359,7.16,7.2541,7.2941,7.3543,7.4379,7.5534,7.6572,7.7508,7.7508,7.7937,7.8705,7.8705,7.9669,8.1168,8.1741,8.1962,8.205,8.3252,8.3001,8.221,0.0,0.0,0.0,0.0,0.0,0.0,0.0,0.0,0.0,0.0,0.0,0.0,0.0,0.0,0.0,0.0,0.0,0.0,0.0,0.0,0.0,3.4844,3.7478,3.7851,3.5738,3.3788,3.1795,2.9838,2.8702,3.0751,3.5844,3.9948,4.3353,4.6024,4.6771,4.3857,3.8219,3.7093,3.4615,3.1616,3.3306,3.255,3.048,3.0565,2.7223,2.2447,2.2057,2.0925,1.9635,1.98,0.0,0.0,0.0,0.0,2.045,2.5333,2.8301,3.1341,3.7543,4.3452,4.9444,5.5941,5.829,5.9137,5.9724,6.0261,6.0566,6.0267,6.1579,6.2643,6.2179,6.25,6.2071,5.9872,6.0746,6.1085,5.9287,6.0269,6.1328,6.1766,6.2547,6.3141,6.3305,6.4106,6.4381,6.379,6.3936,6.3919,6.3633,6.2992,6.3463,6.5194,6.528,6.6496,6.8935,6.9856,7.0918,7.2118,7.2175,7.2683,7.3537,7.5165,7.6346,7.7116,7.7116,7.7615,7.8491,7.8491,7.9507,8.1188,8.2202,8.2246,8.1885,8.336,8.2569,8.1021,0.0,0.0,0.0,0.0,0.0,0.0,0.0,0.0,0.0,0.0,2.4948,2.549,0.0,0.0,0.0,0.0,0.0,0.0,0.0,0.0,0.0,3.2333,3.4865,3.6059,3.5728,3.265,3.1227,3.1574,2.9865,3.2218,3.8323,3.9563,4.2625,4.695,4.4096,4.1147,3.7919,3.217,2.9387,2.8749,2.6914,2.7215,2.8411,2.5688,2.4114,2.3138,2.1662,2.0481,1.9794,2.1172,2.1064,0.0,0.0,0.0,2.0621,2.218,2.5731,2.9537,3.1194,3.8799,4.7792,5.43,5.7042,5.8352,5.9112,5.97,6.002,5.9747,6.0051,6.0543,6.1165,6.0772,6.0159,5.9592,5.9839,5.9921,5.9334,5.9607,6.0055,6.0576,6.1737,6.2218,6.1443,6.2649,6.3202,6.2431,6.2561,6.2728,6.2836,6.2605,6.2828,6.3761,6.4766,6.602,6.7551,6.8814,7.0246,7.1779,7.2103,7.2848,7.3903,7.386,7.4413,7.551,7.551,7.6331,7.7651,7.7651,7.9007,8.1132,8.1298,8.1656,8.2227,8.314,8.2834,8.212,0.0,0.0,0.0,0.0,0.0,0.0,0.0,0.0,0.0,0.0,0.0,2.6202,0.0,0.0,0.0,0.0,0.0,0.0,0.0,0.0,0.0,3.1833,3.2514,3.2862,3.2882,3.0488,2.9385,2.9642,2.8375,3.2208,4.0756,4.0117,4.2905,4.8376,4.4951,4.1786,3.8607,3.2437,2.9016,2.7594,2.6063,2.6601,2.8104,2.5788,2.518,2.5252,2.3161,2.147,2.0511,2.2142,2.2029,2.1216,2.1216,0.0,0.0,0.0,2.4919,2.9006,3.5133,4.1494,4.7699,5.3156,5.542,5.6501,5.7434,5.8057,5.8415,5.83,5.82,5.8492,5.9573,5.9473,5.9254,5.926,5.9179,5.9084,5.8973,5.9236,5.9465,5.9621,6.0505,6.0918,6.0366,6.143,6.1901,6.1222,6.1658,6.2086,6.2391,6.2105,6.2389,6.3459,6.3915,6.4928,6.6618,6.7637,6.9154,7.1049,7.1641,7.2442,7.3315,7.3617,7.4276,7.5225,7.5225,7.6081,7.7508,7.7508,7.865,8.0526,8.1637,8.1965,8.2017,8.3255,8.2933,8.1943,0.0,0.0,0.0,0.0,0.0,0.0,0.0,0.0,0.0,0.0,0.0,0.0,0.0,0.0,0.0,0.0,0.0,0.0,0.0,0.0,0.0,3.0515,3.0201,2.9897,2.9722,2.8384,2.7809,2.7954,2.7824,3.2855,4.2625,4.1958,4.5125,5.1217,4.7229,4.3482,3.9846,3.4202,3.041,2.8082,2.7248,2.7471,2.8287,2.8179,2.8488,2.8591,2.5981,2.3906,2.2512,2.3525,2.309,2.215,2.2335,2.2832,0.0,0.0,0.0,2.7534,3.7507,4.1982,4.5093,5.0391,5.2895,5.4311,5.5251,5.6225,5.6861,5.6647,5.6711,5.7016,5.7818,5.8189,5.8566,5.9026,5.8784,5.8597,5.8737,5.8916,5.8948,5.8801,5.9482,5.9837,5.9434,6.0283,6.0701,6.022,6.0858,6.1508,6.2021,6.1836,6.2214,6.3271,6.3218,6.408,6.5934,6.7181,6.8695,7.0514,7.0999,7.1783,7.2834,7.3333,7.4171,7.5225,7.5225,7.6081,7.7508,7.7508,7.8579,8.0347,8.1786,8.2117,8.1918,8.3337,8.2835,8.1557,0.0,0.0,0.0,0.0,0.0,0.0,0.0,0.0,0.0,0.0,0.0,0.0,2.6802,2.6742,2.6385,2.5553,0.0,0.0,0.0,0.0,0.0,2.7062,2.7815,0.0,2.7018,2.6792,2.7137,2.8092,2.9955,3.5253,4.3656,4.5679,5.0174,5.6249,5.0549,4.5735,4.1554,3.6535,3.2968,3.0626,2.9771,2.8961,2.8727,3.252,3.3985,3.3586,3.0435,2.8166,0.0,0.0,2.4428,2.3138,2.3865,2.408,2.3827,0.0,0.0,0.0,3.2936,3.5497,3.7338,4.4535,4.9062,5.1992,5.2794,5.4577,5.5855,5.5156,5.5973,5.6613,5.5978,5.683,5.7989,5.8956,5.8654,5.8464,5.8926,5.8561,5.8239,5.8239,5.9064,5.927,5.8361,5.9152,5.967,5.9636,6.0154,6.0792,6.1484,6.2058,6.2464,6.2731,6.3045,6.3986,6.5618,6.7988,6.9624,7.0514,7.015,7.1002,7.2798,7.2529,7.34,7.5225,7.5225,7.6081,7.7508,7.7508,7.89,8.1041,8.1152,8.158,8.2294,8.3116,8.2437,8.1223,0.0,0.0,0.0,0.0,0.0,0.0,0.0,0.0,0.0,0.0,0.0,0.0,0.0,2.6782,2.6433,2.558,2.5503,0.0,0.0,0.0,0.0,2.6773,2.7139,2.7188,2.6878,2.6815,2.6868,2.7012,2.7723,3.253,4.1093,4.1876,4.608,5.2765,4.961,4.735,4.5435,3.7286,3.3607,3.3076,3.0595,3.1586,3.4568,3.4362,3.621,3.8539,3.5194,0.0,0.0,0.0,0.0,0.0,0.0,0.0,2.5323,2.3194,2.4043,2.6444,3.0002,3.2828,3.6023,4.1087,4.4828,4.7763,4.9757,5.2313,5.4192,5.3941,5.4602,5.5281,5.5377,5.618,5.7126,5.7989,5.7383,5.7051,5.7756,5.7535,5.7313,5.7313,5.8011,5.8423,5.8205,5.8515,5.8775,5.8882,5.9193,5.9786,6.0736,6.1132,6.1745,6.2673,6.2828,6.3761,6.5582,6.7544,6.8944,6.9712,7.0127,7.1177,7.2798,7.2674,7.3564,7.5225,7.5225,7.5796,7.683,7.7294,7.8294,7.9669,8.0684,8.1255,8.1541,8.1826,8.1577,8.1077,0.0,0.0,0.0,0.0,0.0,0.0,0.0,0.0,0.0,2.7529,0.0,0.0,0.0,0.0,2.7906,2.6472,2.6361,2.6128,2.5577,2.5569,2.5856,2.6358,2.645,2.6456,2.645,2.6662,2.6711,2.6535,2.7805,3.2007,3.8912,4.0215,4.4202,5.0174,4.7387,4.7049,4.8138,4.0397,3.6943,3.6492,3.4168,3.5388,3.8613,3.9314,4.1318,4.3326,0.0,0.0,0.0,0.0,0.0,0.0,0.0,0.0,0.0,0.0,2.4704,2.6732,2.7399,3.0335,3.4324,3.9053,4.1252,4.3464,4.8153,5.0069,5.1167,5.2298,5.3256,5.3979,5.4248,5.5105,5.6182,5.7404,5.6844,5.647,5.7115,5.7089,5.6995,5.6817,5.7496,5.8045,5.8205,5.8189,5.8397,5.8848,5.8919,5.9413,6.044,6.0783,6.1514,6.2659,6.3152,6.4076,6.5582,6.7029,6.8332,6.9468,6.9887,7.1101,7.2974,7.2851,7.369,7.5225,7.5225,7.5653,7.6438,7.7187,7.7972,7.8848,8.0185,8.0684,8.072,8.1006,8.0934,8.0649,0.0,0.0,0.0,0.0,0.0,0.0,0.0,0.0,2.748,2.9246,0.0,0.0,0.0,0.0,0.0,2.8422,2.8247,2.7531,2.5808,2.567,2.5633,2.5619,0.0,0.0,2.5619,2.6244,2.6625,2.669,3.0407,3.3937,3.7352,4.1222,4.5209,4.8964,4.4144,4.467,4.8964,4.5578,4.2912,4.0916,4.0564,4.0133,4.0492,4.7556,4.9347,4.7919,4.6198,4.4027,0.0,3.8883,0.0,0.0,0.0,0.0,0.0,0.0,0.0,0.0,0.0,0.0,0.0,3.7962,3.8253,3.919,4.7741,4.7692,4.6793,5.0143,5.1841,5.2687,5.2549,5.3554,5.5051,5.7112,5.7042,5.6822,5.7108,5.7356,5.7312,5.6854,5.7622,5.8171,5.8189,5.8171,5.8583,5.9495,5.9384,5.9654,6.0587,6.1204,6.1892,6.2712,6.402,6.497,6.5583,6.6533,6.7927,6.9757,6.9485,7.0701,7.3283,7.2974,7.3672,7.5189,7.5189,7.5653,7.6402,7.7187,7.7937,7.8741,7.9578,7.988,7.9987,8.0791,8.0577,7.9987,0.0,0.0,0.0,0.0,0.0,0.0,2.9464,2.9057,2.9293,0.0,0.0,0.0,3.0617,3.2452,3.3638,3.3568,3.2463,3.0776,2.8417,2.7175,2.6262,2.5634,2.6182,2.626,2.5594,2.6252,2.5987,2.4698,2.6864,2.9286,3.1925,3.4781,3.8031,4.141,4.1817,4.1779,4.1191,3.7881,3.9533,4.4031,4.0265,4.2148,4.7276,4.795,4.9723,5.17,0.0,4.8983,4.7122,0.0,4.2263,3.8507,0.0,0.0,0.0,0.0,0.0,0.0,2.4965,0.0,0.0,0.0,0.0,0.0,3.888,4.1286,4.3356,4.6032,4.7687,4.9114,5.0786,5.156,5.247,5.3975,5.491,5.5579,5.6049,5.6459,5.6644,5.6543,5.7389,5.8027,5.8205,5.8063,5.8147,5.8549,5.8547,5.8781,5.9451,6.0932,6.2292,6.3459,6.4287,6.4914,6.5312,6.6432,6.7676,6.9018,6.9444,7.0665,7.2545,7.3018,7.3652,7.435,7.4975,7.5332,7.5617,7.6973,7.7615,7.7972,7.9364,7.988,7.9935,8.0149,8.0113,7.9935,0.0,0.0,0.0,0.0,0.0,0.0,3.2662,3.2908,3.3298,0.0,0.0,0.0,3.4732,3.7119,3.8277,3.7359,3.5744,3.3398,3.0048,2.829,2.6874,2.5638,2.634,2.6551,2.6044,2.6719,2.6356,2.4935,2.6489,2.7741,2.8776,3.1237,3.3751,3.6267,3.668,3.7364,3.789,3.2905,3.5784,4.3574,4.2534,4.5384,5.0342,5.1195,5.2745,5.4468,5.4602,0.0,5.2026,5.0602,4.6571,0.0,0.0,0.0,0.0,0.0,0.0,0.0,0.0,0.0,0.0,3.1097,0.0,0.0,3.7377,3.8683,4.0047,4.4058,4.5738,4.7059,4.8909,4.9925,5.0836,5.1925,5.3028,5.4072,5.5043,5.5973,5.6413,5.5972,5.6747,5.7237,5.7147,5.704,5.7058,5.7271,5.7577,5.8151,5.9075,6.0272,6.156,6.2975,6.3569,6.4217,6.4977,6.5988,6.7096,6.8358,6.9151,7.0441,7.2143,7.2967,7.3683,7.4261,7.4922,7.5225,7.5332,7.6866,7.7508,7.7651,7.9293,7.988,7.988,7.988,7.988,7.988,0.0,0.0,0.0,3.1452,3.4071,3.6265,3.6619,3.7727,3.8418,0.0,3.7973,3.8914,4.1625,4.3672,4.3718,4.0876,3.8827,3.586,3.1553,2.9553,2.7667,2.5779,2.6385,2.6676,2.6601,2.7385,2.7263,2.6221,2.7677,2.804,2.7426,2.9502,3.1264,3.2625,3.0593,3.2258,3.6216,3.0647,3.3044,4.097,4.525,4.8517,5.1271,5.5505,5.6916,5.6741,5.7961,5.7552,5.6218,5.4978,4.9858,0.0,0.0,0.0,0.0,0.0,3.0204,0.0,0.0,0.0,0.0,0.0,3.355,0.0,3.9345,3.8274,3.7405,4.2675,4.4323,4.5194,4.6495,4.7902,4.9145,5.0011,5.0947,5.2308,5.4282,5.5777,5.637,5.5547,5.6023,5.6252,5.5839,5.5734,5.5786,5.5944,5.6657,5.7677,5.9141,5.9441,6.0319,6.195,6.2463,6.3345,6.4706,6.5376,6.6422,6.7924,6.8751,7.0114,7.1906,7.2854,7.3691,7.4379,7.4887,7.5154,7.5332,7.6795,7.7437,7.7651,7.9293,7.988,7.988,7.988,7.988,7.988,0.0,0.0,0.0,3.6255,3.7892,3.9752,4.244,4.1412,4.1451,4.4698,4.4495,4.53,4.8581,4.754,4.6925,4.766,4.4237,4.0197,3.5786,3.2793,2.9727,2.6524,2.7137,2.7277,2.6599,2.7791,2.7348,2.5115,2.605,2.6743,2.7151,2.7636,2.8024,2.8458,2.9186,2.869,2.7573,3.2755,3.6659,3.9554,4.1133,4.6682,5.4154,5.5518,5.7505,5.9497,5.9168,5.923,5.9108,5.6294,5.1793,4.6764,0.0,0.0,0.0,3.4564,0.0,0.0,0.0,0.0,0.0,0.0,3.5679,0.0,3.417,3.5754,3.762,3.687,3.7736,3.9265,4.1413,4.253,4.3496,4.4692,4.6873,4.9947,5.4425,5.5504,5.5997,5.6465,5.6429,5.6369,5.6268,5.5926,5.5716,5.5769,5.6446,5.7368,5.859,5.908,6.0339,6.2466,6.2644,6.338,6.4859,6.5406,6.6422,6.7924,6.8975,7.0032,7.1098,7.2548,7.3309,7.357,7.4327,7.4851,7.526,7.6224,7.6973,7.7651,7.9293,7.988,7.988,7.988,7.988,7.988,0.0,0.0,0.0,3.8485,4.135,4.4053,4.6169,4.6492,4.7267,4.9366,5.002,5.079,5.2066,5.1061,5.0287,5.0283,4.6669,4.2559,3.8229,3.4722,3.1251,2.7817,2.7892,2.8075,2.8157,2.8671,2.8162,2.6539,2.687,2.6388,2.5168,2.5616,2.6673,2.8222,2.7345,2.8279,3.06,3.2344,3.5578,4.0007,4.4449,5.0167,5.6203,5.7972,5.9867,6.1545,6.1141,6.0994,6.0456,5.6833,5.3969,0.0,4.6691,4.5333,4.4378,0.0,3.9489,4.0377,0.0,0.0,0.0,3.7654,0.0,0.0,0.0,3.6435,3.6934,3.8105,3.7551,3.7853,4.1044,4.1264,4.1619,4.3626,4.5552,4.7868,5.0928,5.31,5.4431,5.4458,5.4695,5.458,5.397,5.4197,5.4584,5.5212,5.5532,5.6313,5.7735,5.7965,5.9085,6.1344,6.1219,6.2091,6.404,6.4754,6.5719,6.6926,6.851,6.9665,7.0492,7.1923,7.3063,7.3872,7.4316,7.4849,7.5496,7.6137,7.6616,7.7116,7.8686,7.9293,7.9364,7.9757,7.9822,7.9783,3.3341,0.0,0.0,3.9331,4.3457,4.696,4.8005,5.0175,5.1861,5.2288,5.4009,5.5034,5.463,5.4269,5.3783,5.3167,4.8966,4.4939,4.1577,3.7116,3.3282,3.0392,2.9626,2.9616,3.038,2.9976,2.9189,2.8012,2.7595,2.6108,2.3657,2.4065,2.5885,2.8739,2.6349,2.9084,3.5262,3.2212,3.5053,4.2295,4.9491,5.3621,5.5871,5.951,6.13,6.1949,6.2572,6.2291,6.1092,5.7678,5.6319,5.5181,5.0095,4.9334,0.0,0.0,0.0,0.0,0.0,0.0,0.0,0.0,0.0,4.0092,0.0,0.0,0.0,3.98,3.8348,3.7527,4.078,4.0338,4.0257,4.2655,4.4042,4.5176,4.6282,4.9138,5.1212,5.1396,5.2267,5.2502,5.156,5.2041,5.2928,5.4173,5.4143,5.4771,5.6421,5.6586,5.7578,5.9683,5.9658,6.0733,6.3014,6.4163,6.5109,6.5991,6.7948,6.9339,7.0146,7.1341,7.2799,7.4384,7.4407,7.4879,7.5708,7.6032,7.6152,7.6331,7.8063,7.8705,7.8812,7.9614,7.9763,7.97,3.3854,3.579,0.0,0.0,4.2486,4.5409,4.7003,0.0,5.0687,5.2651,5.499,5.699,5.8317,5.699,5.7329,6.0715,5.3962,4.9378,4.9145,4.2045,0.0,0.0,3.3789,3.2681,3.2809,3.1949,3.0023,2.697,2.5606,2.5059,2.5301,2.3908,2.4643,2.7194,2.8154,2.9889,3.2244,3.536,4.0783,4.771,5.152,5.1658,5.022,5.6165,5.8474,5.8914,6.1765,6.2291,6.141,0.0,5.8914,5.7226,0.0,5.3225,5.237,5.0315,0.0,0.0,0.0,0.0,0.0,0.0,4.6361,0.0,0.0,0.0,3.931,3.5504,0.0,3.5344,3.5813,0.0,0.0,3.7592,3.9072,4.0652,4.231,4.3263,4.5094,4.8584,5.0352,5.137,5.1654,5.0815,5.0868,5.2303,5.218,5.2705,5.4271,5.5451,5.6828,5.838,5.9188,6.0536,6.2484,6.4478,6.5728,6.6182,6.8027,6.9339,7.0146,7.0985,7.2497,7.44,7.4091,7.4613,7.5672,7.5424,7.5332,7.5546,7.7813,7.8705,7.8812,7.9614,7.9763,7.97,3.1687,3.4221,0.0,0.0,4.0889,4.4104,4.6215,5.1195,5.5122,5.6174,5.8432,6.0802,6.3092,6.0895,6.0251,6.2732,5.8337,5.4031,5.0611,4.526,0.0,0.0,0.0,0.0,0.0,3.3728,0.0,2.9601,2.6529,2.4953,2.4763,2.4072,2.6031,3.0235,3.1323,3.4823,3.9911,4.0698,4.3026,4.6535,5.0315,5.0438,4.9441,5.8717,6.1961,6.163,6.2499,6.2572,6.2022,0.0,5.9575,0.0,0.0,0.0,0.0,5.3371,0.0,0.0,0.0,0.0,0.0,0.0,0.0,0.0,4.1523,0.0,3.8836,0.0,0.0,0.0,0.0,0.0,0.0,0.0,3.8399,3.8949,3.8364,3.9337,4.1551,4.547,4.5739,4.6358,4.8199,4.8315,4.9014,5.0803,5.0198,5.0803,5.3323,5.4241,5.5707,5.7964,5.8131,5.9225,6.1523,6.3073,6.4412,6.5526,6.7135,6.866,7.011,7.044,7.2079,7.4677,7.4147,7.4727,7.6003,7.5442,7.5474,7.6027,7.7305,7.7913,7.8151,7.9435,7.9684,7.9431,2.9212,0.0,0.0,3.5281,3.8926,4.2873,4.6224,5.1799,5.6239,5.7901,5.9801,6.2353,6.5939,6.4294,6.3895,6.6159,6.3168,5.9147,5.4466,4.9426,4.5887,0.0,0.0,0.0,0.0,0.0,0.0,3.1549,2.7643,2.5642,2.5511,2.5064,2.7741,3.2993,3.4724,3.935,4.5883,4.5856,4.7058,4.9251,5.2223,5.3518,5.4363,6.1325,6.4016,6.4029,6.3392,6.316,6.2829,6.0591,6.037,0.0,5.8462,5.7471,5.6895,0.0,0.0,0.0,5.1767,0.0,0.0,0.0,0.0,0.0,0.0,0.0,0.0,0.0,0.0,0.0,0.0,0.0,0.0,0.0,0.0,3.8268,3.6423,3.6538,3.8002,4.1198,4.1781,4.2916,4.5497,4.5808,4.6773,4.907,4.7987,4.865,5.195,5.2789,5.4324,5.6918,5.7071,5.8262,6.0734,6.2209,6.3646,6.5082,6.6523,6.8095,6.9779,7.0,7.1572,7.4094,7.3897,7.4582,7.58,7.5245,7.5524,7.6326,7.6901,7.7347,7.7837,7.9225,7.9451,7.9175,2.7153,3.0052,0.0,3.258,3.6648,4.1803,4.746,4.8553,5.0626,5.5968,5.7286,5.9881,6.5493,6.6595,6.8791,7.3455,6.8716,6.4992,6.3762,5.5486,5.0922,0.0,0.0,4.3653,0.0,0.0,0.0,3.1403,2.8154,2.7341,2.8803,2.7268,2.9108,3.3954,3.7925,4.2001,4.614,5.0078,5.4876,5.9905,6.0052,6.2915,6.6599,6.2218,6.2034,6.4103,6.4066,6.4066,0.0,6.212,6.2071,0.0,0.0,0.0,0.0,0.0,0.0,0.0,0.0,0.0,0.0,4.892,0.0,0.0,0.0,0.0,4.1956,0.0,0.0,0.0,0.0,0.0,0.0,0.0,0.0,0.0,0.0,3.49,3.3675,3.5277,3.9565,4.3103,4.4952,4.3605,4.3868,4.686,4.5455,4.5944,4.9436,5.0993,5.2692,5.4652,5.6249,5.8173,6.0381,6.2561,6.4226,6.5332,6.6582,6.7803,6.8972,6.9743,7.0834,7.2134,7.3184,7.4026,7.4666,7.463,7.5168,7.6065,7.6689,7.739,7.8153,7.8948,7.911,7.8993,0.0,0.0,3.3013,3.2195,3.5132,3.9679,4.5818,4.9504,5.411,6.1187,6.3205,6.707,7.5145,7.5508,7.6193,7.8721,7.6027,7.2227,6.758,6.1912,5.84,5.7593,0.0,5.0058,0.0,0.0,0.0,0.0,3.2989,3.144,3.2949,3.1366,3.2915,3.7257,4.1846,4.614,5.0188,5.4252,5.6748,5.8168,5.9747,6.4297,6.9669,6.5888,6.4971,6.5558,6.447,6.4103,6.3919,6.2768,6.2218,6.1924,6.1374,6.0456,5.9501,5.8939,5.8609,5.8095,0.0,0.0,5.6748,5.1646,0.0,0.0,0.0,0.0,0.0,0.0,0.0,0.0,0.0,0.0,0.0,0.0,0.0,0.0,0.0,3.1689,3.0323,3.2659,3.6786,3.9438,3.9514,4.111,4.2588,4.3746,4.3828,4.5265,4.8612,5.0081,5.2049,5.4652,5.5669,5.7227,5.9463,6.1484,6.3022,6.4077,6.5792,6.7163,6.827,6.8916,7.0096,7.1567,7.2061,7.3008,7.419,7.3932,7.4914,7.6566,7.6529,7.7281,7.8487,7.9028,7.9089,7.8952,3.1395,3.2629,3.3532,3.2749,3.6209,4.069,4.5571,5.1453,5.7833,6.4813,6.7837,7.242,8.0593,8.1022,8.1109,8.2182,8.0866,7.7065,7.0188,6.7013,6.4297,6.1814,5.818,5.604,0.0,0.0,0.0,0.0,3.8609,3.6919,3.7543,3.5413,3.6552,4.0598,4.4562,4.8453,5.2317,5.72,5.9501,6.004,6.2426,6.6242,7.0206,6.8164,6.7357,6.71,6.5191,6.453,6.4347,6.3196,6.2658,6.245,6.2108,6.1484,6.0676,5.9857,5.9636,5.9343,5.8022,5.8242,0.0,5.3849,5.1646,0.0,4.5305,0.0,4.4562,0.0,0.0,0.0,0.0,0.0,0.0,0.0,0.0,0.0,0.0,2.9993,2.9387,3.0801,3.4035,3.6625,3.7895,3.8438,3.9747,4.2277,4.1511,4.2901,4.7461,4.9161,5.1306,5.4228,5.54,5.6961,5.8979,6.1103,6.2588,6.3439,6.5288,6.6757,6.7819,6.8445,6.9401,7.0603,7.1207,7.2228,7.3367,7.3246,7.4598,7.6781,7.6674,7.7573,7.8944,7.9135,7.9147,7.9196,3.5286,3.4726,3.4375,3.4644,3.9608,4.4424,4.7031,5.4116,6.1208,6.6871,7.1029,7.5855,8.2062,8.3232,8.3752,8.4172,8.3417,7.9792,7.24,7.1027,6.8788,0.0,6.3038,6.1667,6.086,0.0,0.0,0.0,0.0,4.3322,4.247,3.9247,3.9806,4.3616,4.6058,4.8994,5.2501,5.8889,6.3135,6.5729,6.7967,6.8958,6.9068,6.8885,6.8898,6.8628,6.6242,6.5362,6.5105,6.3453,6.3466,6.4016,6.3123,6.2328,6.1557,6.0713,6.0456,6.026,5.949,5.982,5.9501,5.5647,5.4546,0.0,0.0,0.0,4.9187,0.0,0.0,0.0,0.0,0.0,0.0,0.0,0.0,0.0,0.0,0.0,3.0783,2.9963,3.1742,3.4831,3.948,3.5874,3.5854,4.216,3.8797,3.9342,4.5985,4.8094,5.0412,5.3348,5.5432,5.7329,5.9035,6.1482,6.292,6.3439,6.5161,6.654,6.7575,6.8226,6.8779,6.9252,7.061,7.1623,7.2308,7.2583,7.4253,7.6603,7.7002,7.8083,7.9497,7.9296,7.9341,7.9578,3.6383,3.8712,4.1385,4.2639,4.2271,4.4009,5.0608,5.5781,6.2286,7.175,7.7329,8.2866,8.924,8.9317,8.8833,8.8599,8.7031,8.4405,8.0546,7.7855,0.0,7.3986,7.061,6.8151,6.6756,6.2328,5.807,5.3995,0.0,4.6645,4.5801,4.258,4.1927,4.3616,4.6654,4.9801,5.3251,5.9134,6.442,6.8862,6.8898,6.9949,7.1321,6.8898,6.8752,6.9486,6.7063,6.6182,6.6035,6.4995,6.4811,6.4861,6.4016,6.3613,6.3185,6.1704,6.13,6.1117,6.0297,6.0224,6.0162,5.9134,5.6602,5.4032,0.0,0.0,0.0,0.0,0.0,0.0,0.0,0.0,0.0,0.0,0.0,0.0,0.0,0.0,0.0,3.4772,3.48,3.4288,3.3287,3.6225,3.798,3.7536,3.9926,4.2636,4.5502,4.6874,4.9123,5.2503,5.5124,5.7535,5.9657,6.1668,6.3021,6.3693,6.5002,6.6099,6.6929,6.7415,6.8026,6.8735,6.9545,7.0634,7.1861,7.1942,7.3633,7.6166,7.6085,7.759,7.9682,7.9475,7.9439,7.944,3.9651,4.3653,4.7728,4.9334,4.9581,5.113,5.5913,5.9187,6.4362,7.3377,7.9003,8.372,8.792,9.0149,9.0962,8.9984,8.8554,8.6183,8.2566,8.0975,0.0,7.7399,7.4793,7.2642,7.1027,6.6916,0.0,5.8352,0.0,4.9994,4.8122,4.4488,4.3065,4.3653,4.6874,4.9728,5.259,5.9685,6.5167,6.9082,6.9302,7.0257,0.0,6.9463,6.8875,6.8875,6.7517,6.6806,6.6366,6.5582,6.5081,6.4714,6.4249,6.3833,6.3356,6.2401,6.2108,6.2034,6.1582,6.1435,6.1361,6.1006,5.8951,5.6748,5.5684,5.4473,5.3345,0.0,5.281,5.2863,0.0,0.0,0.0,0.0,0.0,0.0,0.0,0.0,0.0,0.0,3.5422,3.4555,3.1484,3.5004,3.6452,3.4094,3.7617,4.0894,4.3196,4.5672,4.8749,5.26,5.5187,5.7603,5.9888,6.2085,6.3566,6.4324,6.537,6.6514,6.7614,6.7658,6.8133,6.8907,6.9255,7.0078,7.122,7.18,7.3602,7.6126,7.7182,7.8952,8.0772,8.0027,7.9832,7.9812,4.402,4.8903,5.3261,5.4363,5.8253,6.1628,6.2803,6.4707,6.8321,7.4705,7.9664,8.3089,8.4268,8.8779,9.1109,8.9667,8.874,8.6379,8.2051,8.2223,8.1232,7.839,7.7194,7.5836,7.4221,7.0697,6.6182,0.0,5.6308,5.238,4.8729,4.5158,4.3322,4.3176,4.6397,4.9287,5.2307,6.0713,6.5718,6.8141,6.9522,7.0146,7.022,7.0036,6.9082,6.7847,6.7737,6.726,6.6549,6.5852,6.5154,6.4543,6.447,6.3906,6.3233,6.3013,6.2976,6.2939,6.2829,6.2793,6.2646,6.1924,6.1153,5.9979,5.7765,5.6638,5.5831,5.4979,5.422,5.3737,5.3945,0.0,0.0,0.0,0.0,0.0,0.0,0.0,0.0,0.0,0.0,0.0,3.2163,3.3555,3.3967,3.2078,3.4225,3.7116,4.0563,4.4229,4.8314,5.2839,5.5242,5.7619,6.0025,6.2502,6.4235,6.5261,6.6031,6.7248,6.8735,6.8361,6.8638,6.9394,6.9394,6.9797,7.0607,7.1957,7.3991,7.6459,7.8938,8.0785,8.1864,8.0437,8.0188,8.0437,4.7572,5.3104,5.7398,5.5695,6.097,6.7174,7.2275,7.4869,7.8004,8.2937,8.8155,9.147,9.1736,9.1123,9.0376,8.9721,8.8496,8.7263,8.6038,0.0,0.0,8.3361,8.0645,7.8369,7.6702,7.1564,6.6439,6.1374,5.6051,5.0398,4.4534,4.3836,4.2441,4.0679,4.3892,4.9591,5.7116,6.2732,6.688,6.9706,7.0,7.0513,7.094,6.9633,6.8935,6.8605,6.7958,6.7627,6.748,6.7333,6.7187,6.6966,6.6292,6.5962,6.5595,6.4273,6.387,6.3723,6.3013,6.2793,6.2756,6.2646,6.1998,6.1117,6.0015,5.9159,5.8294,5.7252,5.6564,5.5705,5.4262,0.0,0.0,0.0,0.0,0.0,0.0,0.0,0.0,0.0,0.0,3.887,3.242,3.5254,3.6329,3.3466,3.4815,3.7435,4.1283,4.2063,4.507,5.0963,5.4472,5.7727,6.0781,6.2587,6.4514,6.6567,6.6457,6.7179,6.854,6.8307,6.8638,6.9394,6.9394,6.9797,7.0607,7.1957,7.4457,7.7502,7.848,7.9831,8.1057,7.9652,7.9961,8.0984,5.5636,5.8646,6.1618,6.3429,6.8017,7.3417,7.914,8.3038,8.4775,8.3175,8.5562,8.7097,8.6285,8.8082,8.918,8.8701,8.7677,8.6865,8.6405,8.4866,8.3985,8.3985,8.1709,7.9653,7.7986,7.3215,6.8605,6.4127,5.7226,5.1132,4.5957,4.3864,4.1817,4.0128,4.5002,5.0986,5.7703,6.2585,6.6292,6.8972,7.022,7.094,7.116,7.0,6.9265,6.8775,6.7994,6.77,6.77,6.77,6.77,6.7554,6.6733,6.6512,6.6256,6.5081,6.4714,6.453,6.3686,6.3466,6.3356,6.2903,6.2218,6.1447,6.0945,6.02,5.9469,5.8944,5.8324,5.7056,5.4483,5.0922,0.0,0.0,0.0,0.0,0.0,0.0,0.0,0.0,0.0,0.0,0.0,3.6465,3.5832,3.0948,3.272,3.586,4.0093,4.0434,4.3761,5.0887,5.3814,5.7018,6.0704,6.2463,6.4463,6.6619,6.6793,6.7446,6.8522,6.8729,6.9024,6.9394,6.9394,6.9605,7.0117,7.2585,7.5217,7.7754,7.8363,7.958,8.0869,7.9784,8.0213,8.1108,6.3453,6.4517,6.6536,7.1013,7.4918,7.8928,8.3512,8.822,8.9247,8.3693,8.3373,8.3113,8.168,8.5529,8.8105,8.7736,8.7031,8.6455,8.6075,8.4719,8.3821,8.3638,8.2113,8.0498,7.8883,7.4845,7.0624,6.6256,5.8988,5.2711,4.7452,4.4626,4.2653,4.1699,4.7985,5.3335,5.7875,6.2622,6.6109,6.8641,7.0536,7.1417,7.1454,7.066,6.9853,6.9045,6.8238,6.7958,6.7921,6.7774,6.77,6.759,6.6953,6.6769,6.6586,6.5778,6.5545,6.5375,6.4567,6.4249,6.3956,6.3246,6.2425,6.1678,6.1281,6.0706,6.0158,5.9885,5.9181,5.7716,5.4732,5.1937,0.0,0.0,0.0,0.0,0.0,0.0,0.0,0.0,0.0,0.0,3.7434,3.6766,3.4453,2.9216,3.0972,3.4208,3.857,3.9041,4.259,5.0042,5.2562,5.5604,5.9372,6.1948,6.4301,6.6406,6.6989,6.7694,6.8468,6.9098,6.9394,6.9394,6.9394,6.9643,7.0268,7.3348,7.5834,7.7754,7.8363,7.958,8.0901,8.011,8.0511,8.1355,6.7187,7.0197,7.2863,7.3377,7.8002,8.2276,8.4235,8.8019,9.0755,9.0979,9.0415,8.972,8.8802,8.8162,8.7752,8.7704,8.7241,8.6936,8.6885,8.604,8.5233,8.4535,8.2957,8.1305,7.9706,7.5704,7.0881,0.0,6.0958,5.4058,4.5067,4.6122,4.6562,4.6672,5.2454,5.6895,6.0346,6.4494,6.8091,7.0977,7.1197,7.1747,7.2312,7.149,7.0697,6.9889,6.9082,6.8788,6.8678,6.7958,6.77,6.77,6.7627,6.759,6.7444,6.6623,6.6402,6.6219,6.5398,6.464,6.4066,6.3992,6.3128,6.2131,6.1375,6.1157,6.0711,5.9457,5.8606,5.7389,5.5135,5.5051,5.4098,0.0,0.0,0.0,0.0,0.0,4.8068,4.4864,0.0,0.0,3.8365,3.5416,3.3247,3.2214,3.1969,3.3707,3.7948,3.7746,4.0215,4.616,4.9938,5.3127,5.5748,6.0552,6.4121,6.643,6.7024,6.7641,6.827,6.9043,6.9394,6.9394,6.9394,7.048,7.2317,7.3935,7.5834,7.7754,7.8363,7.958,8.0901,8.011,8.0775,8.2038,7.4221,7.4735,7.635,8.0277,8.1636,8.3544,8.7582,8.9968,9.0937,8.9891,8.9888,8.9518,8.8203,8.7599,8.7265,8.7265,8.6674,8.6261,8.6261,8.5527,8.4719,8.3895,8.3234,8.2186,8.0571,7.7451,7.3582,0.0,0.0,0.0,5.0498,5.0178,5.0802,5.2344,5.6088,6.0126,6.4237,6.6843,6.9522,7.2004,7.2004,7.2202,7.2422,7.16,7.1087,7.0646,6.9362,6.8885,6.8788,6.7958,6.8325,6.9059,6.8568,6.8752,6.8972,6.8164,6.7944,6.765,6.6366,6.5448,6.4675,6.3957,6.3225,6.2427,6.1562,6.1901,6.201,6.0802,6.0078,5.9068,5.7077,5.5713,5.446,5.332,0.0,0.0,0.0,0.0,0.0,4.7805,0.0,0.0,4.012,3.7179,3.5655,3.5992,3.2161,3.1437,3.5144,3.6177,3.9112,4.4483,4.959,5.3549,5.6221,6.0813,6.4253,6.6583,6.7588,6.8279,6.8699,6.9477,6.9687,6.9394,6.9394,7.0402,7.2126,7.3366,7.4908,7.6627,7.8053,7.9286,8.0277,8.0461,8.1232,8.2121,8.0131,7.9396,8.0424,8.6187,8.5783,8.6077,9.0298,9.1216,9.0739,8.883,8.8849,8.8519,8.7161,8.6978,8.6978,8.6978,8.6481,8.6151,8.6151,8.5637,8.4829,8.3785,8.3748,0.0,8.1379,7.9161,7.6408,7.3068,6.7857,0.0,5.7189,5.5097,5.5537,5.8192,6.0639,6.387,6.765,6.9302,7.0954,7.2496,7.2496,7.2496,7.2459,7.1857,7.1344,7.0793,6.9669,6.9265,6.9082,6.8068,6.8935,7.0257,6.9215,6.9302,6.9669,6.9339,6.9082,6.8715,6.7797,6.6623,6.5506,6.4955,6.4038,6.3089,6.249,6.2853,6.3047,6.2069,6.1154,6.0123,5.8802,5.6846,5.5402,5.5241,0.0,0.0,0.0,5.3335,0.0,0.0,4.7051,4.4409,4.1683,3.915,3.7857,3.8314,3.4669,3.3499,3.6009,3.696,3.9629,4.4447,4.9937,5.4037,5.6586,6.145,6.4847,6.6733,6.8238,6.904,6.9248,6.9845,6.9849,6.9394,6.964,7.0464,7.1804,7.2994,7.449,7.6191,7.7737,7.9086,8.0204,8.0791,8.1525,8.2137,8.3765,8.4499,8.5783,8.9821,9.0519,9.0812,9.1657,9.1106,9.0317,8.9473,8.872,8.7912,8.7088,8.6978,8.6978,8.6978,8.6978,8.6978,8.6978,8.6978,8.6261,0.0,0.0,8.3838,8.2223,8.0587,7.8919,7.7252,0.0,0.0,6.3919,6.0627,6.086,6.4103,6.6526,6.8508,7.0146,7.1762,7.2459,7.2496,7.2496,7.2496,7.2496,7.2496,7.1505,7.011,7.0073,7.0073,6.9816,6.8251,6.9302,7.1013,6.9398,6.8898,6.9082,6.9853,6.9522,6.9082,6.9853,6.8311,6.6659,6.748,6.5984,6.4374,6.4359,6.4116,6.3665,6.2853,6.1206,5.9916,5.988,5.9188,5.7903,5.5584,0.0,0.0,0.0,5.3265,0.0,4.9543,4.5458,4.283,4.286,4.0683,3.907,3.8551,4.049,4.189,4.2288,4.0996,4.2089,4.6152,5.0654,5.3927,5.5901,6.229,6.5879,6.6733,6.8809,6.9805,6.9809,7.0016,6.9849,6.9429,7.0183,7.0955,7.1801,7.3145,7.4958,7.6947,7.7502,7.9055,8.1012,8.1012,8.1525,8.2186,8.5894,8.7124,8.8445,9.028,9.1069,9.1326,9.1033,9.1216,9.0922,8.9583,8.9657,8.9528,8.8702,8.8169,8.7839,8.7839,8.7839,8.7582,8.7014,8.6978,8.6518,8.5453,8.4903,8.4095,8.3014,8.1452,7.9837,7.8185,0.0,7.1872,6.8164,6.6549,6.7233,6.9853,7.0624,7.2165,7.4184,7.4147,7.4441,7.4918,7.4353,7.3817,7.3303,7.3303,7.2642,7.1651,7.1087,7.0903,7.0756,6.9706,6.9853,7.0477,7.0499,7.0536,7.0573,7.083,7.072,7.0353,6.9522,6.8311,6.717,6.6688,6.5756,6.484,6.4202,6.3412,6.2886,6.3152,6.1882,6.0558,6.0008,5.9687,5.8938,5.7132,5.7336,0.0,5.486,0.0,5.2868,5.0375,4.8401,4.6837,4.5805,4.3994,4.3172,4.3843,4.1544,3.9764,3.8969,4.1928,4.4637,4.686,5.2056,5.6168,5.894,6.3656,6.6901,6.8574,7.0081,7.0998,7.1342,7.048,7.0397,7.0955,7.0639,7.1236,7.2504,7.3358,7.4637,7.6228,7.7882,7.9218,8.0314,8.1415,8.1966,8.2186,8.7601,8.8702,8.9767,9.0849,9.1473,9.162,9.1143,9.1216,9.0886,8.9583,8.984,8.995,8.9436,8.9234,8.8977,8.8683,8.839,8.7986,8.7472,8.7161,8.6628,8.5837,8.5306,8.4682,8.3858,8.2574,8.1415,8.0388,7.7635,7.4955,7.2349,7.1541,7.2129,7.3854,7.3854,7.4698,7.6056,7.5579,7.5469,7.5616,7.5087,7.4588,7.4111,7.3817,7.3193,7.2386,7.16,7.1307,7.1197,7.0367,7.0513,7.1027,7.1233,7.1527,7.1747,7.1747,7.1307,7.0683,6.9986,6.8752,6.7587,6.7177,6.6473,6.5604,6.481,6.3852,6.327,6.377,6.2628,6.1379,6.0879,6.0558,5.9786,5.8024,5.7512,5.6801,5.5174,0.0,5.1906,0.0,0.0,4.7832,4.6884,4.6944,4.7157,4.7464,4.6506,4.5018,4.3074,4.488,4.7339,5.0352,5.5773,5.9843,6.2375,6.6059,6.8561,6.9862,7.1143,7.1854,7.208,7.1221,7.1161,7.1674,7.1482,7.1903,7.2855,7.352,7.4789,7.641,7.7969,7.9318,8.0495,8.1754,8.2186,8.2186,8.9033,8.9473,8.995,9.1546,9.1803,9.1803,9.1803,9.1106,9.0317,8.9583,8.9436,8.9436,8.9473,9.0134,9.0317,8.962,8.8793,8.8243,8.8206,8.7472,8.6664,8.593,8.5837,8.5453,8.4682,8.3911,8.3418,8.3308,8.0277,7.7928,7.635,7.5579,7.5652,7.635,7.635,7.635,7.635,7.6313,7.5836,7.516,7.5087,7.5014,7.4903,7.4147,7.3377,7.2569,7.1821,7.1564,7.1454,7.0697,7.1431,7.2532,7.1784,7.2041,7.2569,7.2532,7.1431,7.0403,7.105,6.9545,6.8004,6.8628,6.7743,6.6536,6.5974,6.5229,6.461,6.461,6.3413,6.2357,6.2322,6.17,6.0496,5.838,5.7388,5.6329,5.4705,5.1904,5.0047,5.015,4.8263,4.6943,4.6918,4.9594,5.0819,4.9709,5.3797,5.5236,5.2602,4.9658,5.0514,5.5906,6.0956,6.4322,6.5871,6.9043,7.0641,7.0744,7.1999,7.2453,7.2168,7.2168,7.2068,7.1884,7.2535,7.2816,7.2922,7.3694,7.5211,7.7103,7.7754,7.9305,8.1138,8.1832,8.2104,8.2137,8.9968,9.0317,9.0629,9.162,9.1803,9.1803,9.1803,9.1106,9.0537,9.0317,8.9767,8.962,9.0244,9.0482,9.0776,9.1179,8.9913,8.8849,8.8243,8.7472,8.6904,8.6738,8.6114,8.571,8.5527,8.4719,8.3728,8.248,8.1122,7.991,7.8935,7.8751,7.8751,7.8935,7.8935,7.8935,7.8898,7.8259,7.7892,7.7671,7.6995,7.6371,7.5799,7.5616,7.5028,7.4316,7.4133,7.4059,7.4023,7.3839,7.4023,7.428,7.4096,7.378,7.3303,7.2679,7.2239,7.1725,7.066,6.9758,6.895,6.8183,6.7356,6.6655,6.6506,6.552,6.461,6.461,6.3805,6.2964,6.2393,6.2143,6.1212,5.8783,5.7571,5.6282,5.4532,5.2931,5.1864,0.0,5.2158,5.2428,5.22,5.2899,5.3174,0.0,5.2319,5.2365,5.3181,5.4644,5.6485,5.872,6.2384,6.5387,6.7568,6.9576,7.1083,7.2043,7.2966,7.3254,7.2942,7.2976,7.3191,7.3448,7.2992,7.3132,7.3729,7.394,7.4521,7.5481,7.6896,7.795,7.8945,8.0298,8.1108,8.1441,9.0372,9.0592,9.0849,9.1657,9.1803,9.1803,9.1803,9.1436,9.1033,9.0665,9.0555,9.0519,9.0592,9.0922,9.1326,9.1767,9.0665,8.962,8.8776,8.8023,8.7399,8.7014,8.6591,8.6334,8.6334,8.5196,8.3801,8.2186,8.1746,8.1122,8.0351,8.0351,8.0131,7.9816,7.9816,7.9816,7.9743,7.8919,7.8589,7.8516,7.7656,7.7032,7.6592,7.624,7.5836,7.538,7.5014,7.4903,7.4903,7.4903,7.4647,7.4441,7.4793,7.4111,7.312,7.3083,7.2532,7.1747,7.0881,6.9984,6.9037,6.8033,6.7237,6.6872,6.746,6.6433,6.5515,6.6028,6.5074,6.3943,6.3176,6.2409,6.0934,5.7937,5.677,5.5379,5.3001,5.2345,5.2253,5.264,5.4059,5.5205,5.5753,5.6948,5.7208,5.6093,5.6307,5.651,5.6528,5.9934,6.1636,6.1122,6.4859,6.7772,6.9595,7.0851,7.2007,7.3046,7.3229,7.3509,7.3769,7.3562,7.3649,7.3975,7.3553,7.3799,7.4501,7.4501,7.5086,7.6125,7.725,7.8091,7.8806,7.9984,8.0622,8.084,9.0427,9.0702,9.0996,9.1693,9.1803,9.1803,9.1803,9.1693,9.1363,9.0702,9.1106,9.1216,9.0665,9.1216,9.1657,9.1803,9.1179,9.0391,8.9473,8.8647,8.7839,8.7014,8.6978,8.6978,8.6978,8.5416,8.3948,8.2553,8.2296,8.1856,8.1195,8.1195,8.0828,8.0147,8.0147,8.0147,8.011,7.9286,7.8956,7.8883,7.7876,7.7509,7.7399,7.6607,7.6276,7.6203,7.5491,7.527,7.527,7.5417,7.4918,7.4404,7.5212,7.4368,7.3193,7.3854,7.301,7.1747,7.1417,7.0206,6.8944,6.8298,6.7598,6.7363,6.8512,6.7615,6.6839,6.7825,6.6662,6.5169,6.433,6.2928,6.0717,5.7094,5.593,5.4488,5.1672,0.0,5.2411,5.3867,5.5493,5.7175,5.8804,6.0856,6.1417,5.9745,6.2083,6.2748,6.0966,6.4574,6.5778,6.3783,6.7735,7.0368,7.1454,7.2151,7.2899,7.3707,7.3346,7.3664,7.4487,7.4101,7.3939,7.401,7.4115,7.4501,7.5118,7.5204,7.6046,7.7316,7.7917,7.8595,7.9278,7.9875,8.0194,8.0269,9.0427,9.1143,9.1657,9.1767,9.1803,9.1803,9.1803,9.1216,9.0739,9.0629,9.0097,8.9987,9.0555,9.0702,9.1069,9.173,9.1693,9.0996,8.951,8.8647,8.7839,8.7014,8.6978,8.6978,8.6978,8.5416,8.4499,8.4242,8.2884,8.215,8.2003,8.2003,8.1929,8.1819,8.1819,8.1819,8.1746,8.0975,8.0645,8.0498,7.8993,7.8405,7.8295,7.7436,7.7105,7.7105,7.6959,7.6922,7.7032,7.7781,7.7451,7.6885,7.7745,7.6864,7.5579,7.5689,7.5065,7.3913,7.1857,7.0624,6.9806,6.9413,6.9025,6.8763,6.8971,6.8426,6.7946,6.8458,6.7775,6.669,6.5562,6.4578,6.2608,5.8544,5.6776,5.5306,5.3569,0.0,5.4434,5.6659,5.8952,6.1144,6.3228,6.2903,6.3227,6.4722,6.388,6.3611,6.444,6.6426,6.765,6.7931,6.9944,7.1448,7.2312,7.2459,7.2899,7.3707,7.4279,7.456,7.4505,7.5117,7.4864,7.4045,7.4642,7.4993,7.5133,7.5836,7.6257,7.6538,7.7272,7.7629,7.7826,7.8597,7.9216,7.9558,9.1179,9.1546,9.1803,9.1803,9.1803,9.1803,9.1803,9.1473,9.1253,9.1253,9.0922,9.0849,9.1216,9.1253,9.14,9.1767,9.1803,9.1106,8.951,8.9033,8.8299,8.7051,8.6978,8.6794,8.6371,8.5196,8.4389,8.3948,8.3214,8.2627,8.2186,8.2186,8.2443,8.2847,8.237,8.2443,8.2774,8.1525,8.1012,8.0901,7.9727,7.9265,7.914,7.8332,7.8259,7.8589,7.8185,7.7986,7.8148,7.8956,7.8075,7.6885,7.8185,7.7157,7.5542,7.5983,7.5212,7.3927,7.2386,7.1344,7.0663,7.031,6.9806,6.9593,7.0466,6.9766,6.9121,6.9927,6.8808,6.7367,6.6424,6.4836,6.2743,5.9856,5.7751,5.6145,5.5211,5.5589,5.6766,5.8856,6.1901,6.4503,6.6134,6.6532,6.6927,6.7506,6.6752,6.6537,6.7183,6.8348,6.9376,7.0169,7.1307,7.2129,7.2496,7.2496,7.312,7.4368,7.4412,7.484,7.5578,7.6117,7.5888,7.5096,7.5912,7.6281,7.6362,7.6748,7.7135,7.7556,7.7907,7.8047,7.8083,7.8454,7.8782,7.8973,9.1253,9.1546,9.1803,9.1803,9.1803,9.1803,9.1803,9.1803,9.1803,9.1803,9.1803,9.1803,9.1803,9.1803,9.1803,9.1803,9.162,9.0996,8.9767,8.9326,8.8482,8.7051,8.6978,8.6701,8.6077,8.5306,8.4499,8.3675,8.3491,8.2994,8.2186,8.2186,8.2517,8.3087,8.248,8.2553,8.3014,8.1819,8.1269,8.1232,8.0388,8.0073,7.9984,7.9176,7.9265,7.9706,7.9103,7.8883,7.8993,7.9816,7.8699,7.7231,7.8699,7.7708,7.6166,7.679,7.5799,7.4331,7.334,7.2591,7.2093,7.1823,7.1245,7.0981,7.2039,7.125,7.0551,7.1296,6.9931,6.8384,6.771,6.5718,6.3489,6.131,0.0,5.7851,5.7047,5.8142,5.9666,6.1349,6.4613,6.7252,6.856,6.9821,7.026,6.9509,6.9563,6.9549,6.9472,7.0036,7.0844,7.1821,7.2275,7.2496,7.2496,7.2679,7.3487,7.4903,7.4655,7.5329,7.6796,7.699,7.6877,7.6523,7.7174,7.75,7.762,7.7667,7.8047,7.8595,7.8595,7.8595,7.8595,7.8595,7.8595,7.8595,8.9583,9.0776,9.1803,9.1803,9.1803,9.1803,9.1803,9.1803,9.1803,9.1803,9.1803,9.1803,9.1803,9.1803,9.1803,9.1803,9.1106,9.0629,9.0519,8.9124,8.7912,8.7014,8.6978,8.6978,8.6904,8.6114,8.5306,8.4499,8.3748,8.2994,8.2186,8.2186,8.2223,8.2296,8.2223,8.2223,8.226,8.215,8.2113,8.2039,8.1232,8.0901,8.0828,8.0036,7.9743,7.9779,7.9743,7.9706,7.9816,8.0645,8.0277,7.9669,8.0534,8.0204,7.9449,7.9522,7.8332,7.6702,7.5124,7.4683,7.4647,7.458,7.4333,7.3863,7.3264,7.2777,7.2377,7.2009,7.1222,7.0442,6.9961,6.8472,6.6336,6.3233,0.0,0.0,5.9326,6.1376,6.3552,6.4799,6.7153,6.9297,7.092,7.1545,7.1677,7.1183,7.1538,7.1567,7.1146,7.1197,7.1931,7.345,7.2863,7.2496,7.2496,7.323,7.4037,7.4903,7.5607,7.6533,7.7595,7.7634,7.7764,7.7937,7.8129,7.8196,7.826,7.8436,7.856,7.8595,7.8595,7.8595,7.8595,7.8595,7.8595,7.8595,9.0812,9.1363,9.1803,9.1803,9.1803,9.1803,9.1803,9.1803,9.1803,9.1803,9.1803,9.1803,9.1803,9.1803,9.1803,9.1803,9.151,9.0922,8.9913,8.929,8.8372,8.7051,8.6518,8.6481,8.6978,8.6224,8.5637,8.5343,8.5049,8.4499,8.3691,8.3691,8.3691,8.3654,8.3177,8.3214,8.3654,8.3177,8.3251,8.3618,8.2794,8.25,8.2353,8.1048,8.0828,8.1195,8.0718,8.0534,8.0681,8.1452,8.0881,7.9926,8.0755,8.0461,7.9816,7.9816,7.8993,7.7965,7.7378,7.6093,7.4859,7.4662,7.4395,7.4181,7.3999,7.3369,7.2865,7.3016,7.1845,7.0756,7.0558,6.922,6.769,6.6236,0.0,6.3532,6.3897,6.4352,6.5386,6.7461,6.9299,7.0942,7.2328,7.2387,7.2439,7.2738,7.2504,7.2219,7.2041,7.2041,7.2569,7.367,7.3377,7.3487,7.3986,7.378,7.4331,7.5652,7.6445,7.705,7.752,7.9072,7.9341,7.8667,7.972,7.9728,7.9033,7.9114,7.8932,7.8595,7.8595,7.8595,7.8595,7.8595,7.8595,7.8595,9.0959,9.1436,9.1803,9.1803,9.1803,9.1803,9.1803,9.1803,9.1803,9.1803,9.1803,9.1803,9.1803,9.1803,9.1803,9.1803,9.1583,9.1069,9.0207,8.9913,8.8959,8.7088,8.6481,8.6444,8.6978,8.6444,8.604,8.58,8.58,8.538,8.4609,8.4609,8.4462,8.4205,8.3638,8.3711,8.4205,8.3638,8.3858,8.4535,8.4005,8.3638,8.3271,8.217,8.1929,8.2113,8.1562,8.1379,8.1452,8.2003,8.1468,8.0661,8.1195,8.1012,8.0514,8.0257,7.98,7.9286,7.9029,7.7561,7.5922,7.5436,7.5207,7.5087,7.4957,7.442,7.3961,7.4037,7.2812,7.1728,7.1728,7.0398,6.9157,6.8648,6.712,6.643,6.7636,6.7695,6.8299,7.0359,7.1699,7.2651,7.33,7.3281,7.3266,7.3303,7.3046,7.2899,7.2899,7.312,7.3634,7.4441,7.4221,7.4588,7.5637,7.4845,7.5139,7.6497,7.7326,7.7949,7.8537,8.0225,8.0597,7.9977,8.0689,8.0548,7.9754,7.936,7.8952,7.8595,7.8595,7.8595,7.8616,7.8823,7.8902,7.8967,8.9436,9.0702,9.1803,9.1803,9.1803,9.1803,9.1803,9.1803,9.1803,9.1803,9.1803,9.1803,9.1803,9.1803,9.1803,9.1803,9.1069,9.0959,9.173,9.1033,8.951,8.7088,8.7014,8.7014,8.6978,8.6978,8.6628,8.58,8.58,8.538,8.4609,8.4609,8.4205,8.3418,8.3418,8.3418,8.3418,8.3418,8.3858,8.4609,8.4609,8.4132,8.3418,8.3381,8.292,8.2186,8.2186,8.2186,8.2186,8.2186,8.2186,8.2186,8.2186,8.2186,8.2039,8.1232,8.1012,8.0828,8.0036,7.9213,7.8405,7.7509,7.731,7.709,7.6313,7.6093,7.5858,7.505,7.4258,7.3722,7.3722,7.2422,7.105,7.0257,7.011,7.011,7.011,7.1505,7.2826,7.3597,7.4404,7.4588,7.378,7.4441,7.4243,7.2642,7.3266,7.3722,7.3722,7.4478,7.527,7.6056,7.5322,7.5674,7.7289,7.6481,7.6533,7.7326,7.8185,7.9433,8.1012,8.1012,8.1452,8.2137,8.093,8.0419,8.0326,7.9095,7.8595,7.863,7.8595,7.863,7.8678,7.9296,7.961,7.9789,9.0959,9.1473,9.1803,9.1803,9.1803,9.1803,9.1803,9.1803,9.1803,9.1803,9.1803,9.1803,9.1803,9.1803,9.1803,9.1803,9.1583,9.1069,9.017,8.9381,8.8353,8.7051,8.7545,8.7582,8.7014,8.6978,8.6867,8.6628,8.6628,8.6518,8.628,8.628,8.5563,8.4278,8.4829,8.4756,8.4278,8.4829,8.5563,8.6224,8.5673,8.4976,8.4168,8.3601,8.292,8.2186,8.2186,8.2186,8.2186,8.2186,8.2186,8.2186,8.2186,8.2186,8.215,8.1893,8.1452,8.0938,8.0718,8.0057,7.9166,7.8085,7.7267,7.6692,7.6585,7.6047,7.5588,7.5724,7.5102,7.4551,7.4551,7.3707,7.2899,7.2679,7.2129,7.1982,7.2532,7.3046,7.3634,7.4441,7.4757,7.5028,7.5359,7.5102,7.494,7.5028,7.4735,7.4551,7.4551,7.4757,7.527,7.6056,7.5873,7.6225,7.7289,7.6481,7.6827,7.8222,7.9029,7.9706,8.022,8.1342,8.1672,8.1346,8.1117,8.0786,8.0344,7.9538,7.9326,7.9403,7.8841,7.9182,8.0035,7.9633,7.9834,8.021,9.1216,9.1583,9.1803,9.1803,9.1803,9.1803,9.1803,9.1803,9.1803,9.1803,9.1803,9.1803,9.1803,9.1803,9.1803,9.1803,9.151,9.0922,8.995,8.9106,8.8316,8.7509,8.7949,8.7839,8.7014,8.6978,8.6978,8.6978,8.6978,8.6978,8.6978,8.6978,8.6297,8.5086,8.5563,8.5527,8.5123,8.56,8.6261,8.6941,8.6481,8.56,8.4535,8.4058,8.3398,8.2663,8.2663,8.2663,8.2663,8.2663,8.2443,8.2186,8.2186,8.2186,8.2186,8.2186,8.1856,8.1489,8.1489,8.0901,8.0083,7.9377,7.848,7.7737,7.7562,7.7039,7.6689,7.7023,7.6166,7.538,7.538,7.4735,7.4184,7.4184,7.378,7.3744,7.4551,7.4661,7.4955,7.5747,7.5858,7.5931,7.6093,7.5931,7.5931,7.6093,7.5652,7.538,7.538,7.5674,7.6225,7.7047,7.7084,7.7488,7.8295,7.7818,7.8075,7.9066,7.9874,8.044,8.0771,8.1762,8.1929,8.144,8.1102,8.075,8.0363,7.9754,7.958,7.9679,7.9413,7.9839,8.0548,8.0316,8.0468,8.0833,9.0702,9.1289,9.1803,9.1803,9.1803,9.1803,9.1803,9.1803,9.1803,9.1803,9.1803,9.1803,9.1803,9.1803,9.1803,9.1803,9.1143,9.0702,9.0592,8.9913,8.9143,8.8353,8.8243,8.7876,8.7124,8.7088,8.7088,8.7088,8.7088,8.7088,8.7088,8.7014,8.6591,8.58,8.5874,8.5857,8.58,8.5874,8.6334,8.6978,8.6904,8.5967,8.4609,8.4535,8.3985,8.3271,8.3271,8.3271,8.3271,8.3271,8.281,8.2186,8.2186,8.2186,8.2186,8.2186,8.2186,8.2186,8.2186,8.1672,8.1085,8.1012,8.0498,7.9779,7.8919,7.8699,7.8699,7.8589,7.7378,7.6313,7.624,7.5542,7.5014,7.5087,7.505,7.527,7.6093,7.6203,7.6533,7.7326,7.7362,7.7069,7.6497,7.7032,7.7105,7.6387,7.624,7.6203,7.6203,7.6995,7.7766,7.8552,7.8662,7.9082,7.9779,7.989,7.9926,7.9926,8.0645,8.1415,8.2186,8.2186,8.2186,8.2137,8.0912,8.0419,8.0363,7.9754,7.9606,7.9772,8.0318,8.0581,8.0728,8.1235,8.1473,8.1541,9.1546,9.1693,9.1803,9.1803,9.1803,9.1803,9.1803,9.1803,9.1803,9.1803,9.1803,9.1803,9.1803,9.1803,9.1803,9.1803,9.1657,9.1253,9.0629,9.0427,8.9987,8.9179,8.8536,8.8133,8.7949,8.7949,8.7949,8.7949,8.7949,8.7949,8.7949,8.7271,8.6591,8.5837,8.6444,8.6407,8.582,8.6481,8.6848,8.6941,8.6297,8.5453,8.4535,8.3895,8.3177,8.2443,8.2443,8.2443,8.2443,8.2443,8.2333,8.2186,8.2186,8.2186,8.2186,8.2186,8.2186,8.2186,8.2186,8.2076,8.1782,8.1158,8.1342,8.1305,7.989,7.9559,7.9376,7.8736,7.8295,7.7855,7.7179,7.6371,7.6056,7.6665,7.6261,7.6114,7.6922,7.7032,7.7362,7.8222,7.7729,7.7766,7.8898,7.8589,7.8259,7.8075,7.7436,7.7032,7.7032,7.7839,7.8405,7.8589,7.9229,7.9633,7.9816,8.0424,8.0755,8.0755,8.0938,8.1415,8.2186,8.2186,8.2186,8.2137,8.0912,8.0419,8.0363,7.9754,8.0246,8.1393,8.1358,8.203,8.2903,8.2412,8.2149,8.2147,9.1803,9.1803,9.1803,9.1803,9.1803,9.1803,9.1803,9.1803,9.1803,9.1803,9.1803,9.1803,9.1803,9.1803,9.1803,9.1803,9.1436,9.1069,9.0629,9.0244,8.984,8.9436,8.8996,8.861,8.8206,8.894,8.8977,8.8206,8.8206,8.8206,8.8169,8.7399,8.6591,8.582,8.6224,8.5967,8.527,8.6077,8.6224,8.5857,8.582,8.5086,8.3985,8.3564,8.3124,8.2774,8.2774,8.2774,8.27,8.2333,8.2186,8.2186,8.2186,8.2186,8.2186,8.2186,8.2186,8.2186,8.2186,8.2186,8.2113,8.1672,8.1893,8.1856,8.0645,8.0351,8.0241,7.9837,7.9433,7.8919,7.806,7.7598,7.7304,7.7289,7.6959,7.6812,7.7252,7.7656,7.7949,7.7986,7.8295,7.8993,8.0241,7.9617,7.9192,7.9192,7.8405,7.7913,7.7913,7.8369,7.8956,7.9727,8.0167,8.0571,8.0954,8.1342,8.1562,8.1562,8.1562,8.1782,8.2186,8.2186,8.2186,8.2154,8.125,8.1039,8.1382,8.1069,8.164,8.2759,8.2541,8.2898,8.347,8.2647,8.2524,8.2847,9.1803,9.1803,9.1803,9.1803,9.1803,9.1803,9.1803,9.1803,9.1803,9.1803,9.1803,9.1803,9.1803,9.1803,9.1803,9.1803,9.1179,9.0812,9.0812,9.017,8.9803,8.9803,8.9693,8.929,8.861,8.9931,8.9895,8.8426,8.8426,8.8426,8.839,8.7435,8.6628,8.6004,8.6004,8.5637,8.5049,8.571,8.5527,8.4866,8.538,8.4719,8.3381,8.3234,8.3197,8.3197,8.3197,8.3197,8.3087,8.2406,8.2186,8.2223,8.237,8.2406,8.2406,8.2406,8.2406,8.237,8.2223,8.2186,8.2186,8.2186,8.2186,8.2039,8.1379,8.1232,8.1158,8.1048,8.0461,7.9779,7.8956,7.8699,7.8369,7.7656,7.7509,7.7509,7.7509,7.8259,7.8552,7.7803,7.9066,8.0293,8.0938,8.0388,8.0,8.0,7.925,7.8809,7.8809,7.8919,7.9617,8.0975,8.1122,8.1525,8.2186,8.2186,8.2186,8.2186,8.2186,8.2186,8.2186,8.2186,8.2186,8.217,8.1544,8.1738,8.2502,8.2356,8.2829,8.3664,8.3473,8.3491,8.3528,8.2847,8.2957,8.3454,9.1803,9.1803,9.1803,9.1803,9.1803,9.1803,9.1803,9.1803,9.1803,9.1803,9.1803,9.1803,9.1803,9.1803,9.1803,9.1803,9.1693,9.1657,9.1657,9.1546,9.1473,9.1473,9.0812,9.0408,9.0298,9.0482,9.0134,8.9253,8.9253,8.9253,8.9216,8.7711,8.6941,8.6848,8.6848,8.6775,8.6684,8.6794,8.6371,8.56,8.5013,8.4242,8.3308,8.2627,8.237,8.237,8.237,8.237,8.2333,8.2223,8.2186,8.2333,8.303,8.3234,8.3234,8.3234,8.3234,8.3087,8.237,8.2186,8.2186,8.2186,8.2186,8.215,8.2039,8.2039,8.1819,8.1158,8.0901,8.0571,7.9779,7.9066,7.8552,7.8442,7.8405,7.8405,7.8405,7.9103,7.9596,7.9486,8.0277,8.0901,8.1012,8.0901,8.0828,8.0828,8.0094,7.9633,7.9633,8.0314,8.0791,8.1012,8.1672,8.2076,8.2186,8.2186,8.2186,8.2186,8.2186,8.2186,8.2186,8.2186,8.2186,8.217,8.1544,8.1738,8.2465,8.1738,8.2338,8.3664,8.3473,8.3821,8.4425,8.4315,8.3911,8.3601,9.1803,9.1803,9.1803,9.1803,9.2207,9.2537,9.2537,9.2537,9.2537,9.2537,9.2097,9.1803,9.1803,9.1803,9.1803,9.1803,9.1803,9.1803,9.1803,9.1803,9.1803,9.1803,9.1473,9.1069,9.0629,9.1033,9.0665,8.94,8.94,8.9179,8.872,8.7528,8.6775,8.6334,8.6334,8.6077,8.5673,8.5673,8.5196,8.4425,8.4058,8.3711,8.3344,8.3014,8.2884,8.281,8.237,8.2186,8.2186,8.2186,8.248,8.2904,8.3271,8.3711,8.3985,8.3528,8.3381,8.3234,8.2406,8.2186,8.2186,8.2186,8.2186,8.2186,8.2186,8.2186,8.2113,8.1746,8.1672,8.1415,8.0608,8.0167,7.98,7.9339,7.9265,7.9265,7.9265,7.9947,8.0645,8.1101,8.1048,8.1195,8.1636,8.1672,8.1489,8.1048,8.0681,8.0461,8.0461,8.0828,8.1232,8.1672,8.2003,8.2186,8.2186,8.2186,8.2186,8.2186,8.2186,8.2186,8.2186,8.2186,8.2186,8.2186,8.1902,8.2277,8.2991,8.2642,8.3154,8.4212,8.4104,8.4278,8.4609,8.4609,8.4646,8.4829]}]]